<?xml version="1.0" encoding="UTF-8" standalone="no" ?>
<gpx xmlns="http://www.topografix.com/GPX/1/1" xmlns:xsi="http://www.w3.org/2001/XMLSchema-instance" xsi:schemaLocation="http://www.topografix.com/GPX/1/1 http://www.topografix.com/GPX/1/1/gpx.xsd" version="1.1" creator="VisuGPX - https://www.visugpx.com">
  <metadata>
    <name>lac luitel 26-08-21</name>
    <desc><![CDATA[                                    ]]></desc>
  </metadata>
  <trk>
    <name><![CDATA[lac luitel 26-08-21]]></name>
    <trkseg>
      <trkpt lat="45.10104" lon="5.84662">
        <ele>1085.95</ele>
        <time>2021-08-26T07:26:58Z</time>
      </trkpt>
      <trkpt lat="45.10108" lon="5.84666">
        <ele>1089.79</ele>
        <time>2021-08-26T07:27:00Z</time>
      </trkpt>
      <trkpt lat="45.1012" lon="5.8467">
        <ele>1092.68</ele>
        <time>2021-08-26T07:27:02Z</time>
      </trkpt>
      <trkpt lat="45.10132" lon="5.84677">
        <ele>1096.04</ele>
        <time>2021-08-26T07:27:06Z</time>
      </trkpt>
      <trkpt lat="45.10141" lon="5.84687">
        <ele>1097.48</ele>
        <time>2021-08-26T07:27:09Z</time>
      </trkpt>
      <trkpt lat="45.10152" lon="5.84685">
        <ele>1097.96</ele>
        <time>2021-08-26T07:27:39Z</time>
      </trkpt>
      <trkpt lat="45.10154" lon="5.84687">
        <ele>1097.48</ele>
        <time>2021-08-26T07:28:05Z</time>
      </trkpt>
      <trkpt lat="45.10157" lon="5.8469">
        <ele>1097.48</ele>
        <time>2021-08-26T07:28:34Z</time>
      </trkpt>
      <trkpt lat="45.10156" lon="5.84691">
        <ele>1097.48</ele>
        <time>2021-08-26T07:29:02Z</time>
      </trkpt>
      <trkpt lat="45.10156" lon="5.84692">
        <ele>1096.52</ele>
        <time>2021-08-26T07:29:23Z</time>
      </trkpt>
      <trkpt lat="45.10156" lon="5.84692">
        <ele>1096.52</ele>
        <time>2021-08-26T07:29:50Z</time>
      </trkpt>
      <trkpt lat="45.10156" lon="5.84692">
        <ele>1096.04</ele>
        <time>2021-08-26T07:30:15Z</time>
      </trkpt>
      <trkpt lat="45.10156" lon="5.84696">
        <ele>1096.52</ele>
        <time>2021-08-26T07:30:42Z</time>
      </trkpt>
      <trkpt lat="45.10156" lon="5.84698">
        <ele>1096.04</ele>
        <time>2021-08-26T07:30:44Z</time>
      </trkpt>
      <trkpt lat="45.10157" lon="5.84704">
        <ele>1096.52</ele>
        <time>2021-08-26T07:30:54Z</time>
      </trkpt>
      <trkpt lat="45.10157" lon="5.84704">
        <ele>1097</ele>
        <time>2021-08-26T07:31:13Z</time>
      </trkpt>
      <trkpt lat="45.10157" lon="5.84706">
        <ele>1096.52</ele>
        <time>2021-08-26T07:31:32Z</time>
      </trkpt>
      <trkpt lat="45.10157" lon="5.84705">
        <ele>1093.64</ele>
        <time>2021-08-26T07:31:47Z</time>
      </trkpt>
      <trkpt lat="45.10157" lon="5.84705">
        <ele>1101.81</ele>
        <time>2021-08-26T07:31:48Z</time>
      </trkpt>
      <trkpt lat="45.10157" lon="5.84705">
        <ele>1101.81</ele>
        <time>2021-08-26T07:31:49Z</time>
      </trkpt>
      <trkpt lat="45.10157" lon="5.84705">
        <ele>1090.27</ele>
        <time>2021-08-26T07:31:50Z</time>
      </trkpt>
      <trkpt lat="45.10157" lon="5.84705">
        <ele>1106.13</ele>
        <time>2021-08-26T07:31:51Z</time>
      </trkpt>
      <trkpt lat="45.10157" lon="5.84705">
        <ele>1086.43</ele>
        <time>2021-08-26T07:31:52Z</time>
      </trkpt>
      <trkpt lat="45.10157" lon="5.84705">
        <ele>1104.69</ele>
        <time>2021-08-26T07:31:53Z</time>
      </trkpt>
      <trkpt lat="45.10157" lon="5.84705">
        <ele>1093.64</ele>
        <time>2021-08-26T07:31:54Z</time>
      </trkpt>
      <trkpt lat="45.10157" lon="5.84705">
        <ele>1083.06</ele>
        <time>2021-08-26T07:31:55Z</time>
      </trkpt>
      <trkpt lat="45.10157" lon="5.84705">
        <ele>1103.25</ele>
        <time>2021-08-26T07:31:56Z</time>
      </trkpt>
      <trkpt lat="45.10157" lon="5.84705">
        <ele>1094.6</ele>
        <time>2021-08-26T07:31:58Z</time>
      </trkpt>
      <trkpt lat="45.10157" lon="5.84705">
        <ele>1098.44</ele>
        <time>2021-08-26T07:31:59Z</time>
      </trkpt>
      <trkpt lat="45.10158" lon="5.84705">
        <ele>1087.39</ele>
        <time>2021-08-26T07:32:01Z</time>
      </trkpt>
      <trkpt lat="45.10158" lon="5.84705">
        <ele>1104.69</ele>
        <time>2021-08-26T07:32:02Z</time>
      </trkpt>
      <trkpt lat="45.10158" lon="5.84705">
        <ele>1097.48</ele>
        <time>2021-08-26T07:32:03Z</time>
      </trkpt>
      <trkpt lat="45.10158" lon="5.84705">
        <ele>1073.93</ele>
        <time>2021-08-26T07:32:04Z</time>
      </trkpt>
      <trkpt lat="45.10158" lon="5.84705">
        <ele>1120.07</ele>
        <time>2021-08-26T07:32:05Z</time>
      </trkpt>
      <trkpt lat="45.10158" lon="5.84705">
        <ele>1069.12</ele>
        <time>2021-08-26T07:32:06Z</time>
      </trkpt>
      <trkpt lat="45.10158" lon="5.84705">
        <ele>1122.96</ele>
        <time>2021-08-26T07:32:07Z</time>
      </trkpt>
      <trkpt lat="45.10158" lon="5.84704">
        <ele>1100.37</ele>
        <time>2021-08-26T07:32:08Z</time>
      </trkpt>
      <trkpt lat="45.10158" lon="5.84704">
        <ele>1076.81</ele>
        <time>2021-08-26T07:32:09Z</time>
      </trkpt>
      <trkpt lat="45.10158" lon="5.84704">
        <ele>1117.67</ele>
        <time>2021-08-26T07:32:10Z</time>
      </trkpt>
      <trkpt lat="45.10158" lon="5.84704">
        <ele>1098.44</ele>
        <time>2021-08-26T07:32:11Z</time>
      </trkpt>
      <trkpt lat="45.10158" lon="5.84704">
        <ele>1078.26</ele>
        <time>2021-08-26T07:32:12Z</time>
      </trkpt>
      <trkpt lat="45.10158" lon="5.84703">
        <ele>1097.48</ele>
        <time>2021-08-26T07:32:13Z</time>
      </trkpt>
      <trkpt lat="45.10158" lon="5.84704">
        <ele>1096.52</ele>
        <time>2021-08-26T07:32:31Z</time>
      </trkpt>
      <trkpt lat="45.10159" lon="5.84705">
        <ele>1096.52</ele>
        <time>2021-08-26T07:32:51Z</time>
      </trkpt>
      <trkpt lat="45.1016" lon="5.84706">
        <ele>1096.52</ele>
        <time>2021-08-26T07:33:09Z</time>
      </trkpt>
      <trkpt lat="45.10162" lon="5.84704">
        <ele>1096.52</ele>
        <time>2021-08-26T07:33:34Z</time>
      </trkpt>
      <trkpt lat="45.10161" lon="5.84704">
        <ele>1096.52</ele>
        <time>2021-08-26T07:33:55Z</time>
      </trkpt>
      <trkpt lat="45.10162" lon="5.84705">
        <ele>1095.08</ele>
        <time>2021-08-26T07:34:05Z</time>
      </trkpt>
      <trkpt lat="45.10162" lon="5.84705">
        <ele>1099.89</ele>
        <time>2021-08-26T07:34:06Z</time>
      </trkpt>
      <trkpt lat="45.10162" lon="5.84705">
        <ele>1096.04</ele>
        <time>2021-08-26T07:34:07Z</time>
      </trkpt>
      <trkpt lat="45.10164" lon="5.84711">
        <ele>1096.52</ele>
        <time>2021-08-26T07:34:29Z</time>
      </trkpt>
      <trkpt lat="45.10164" lon="5.84712">
        <ele>1092.68</ele>
        <time>2021-08-26T07:34:38Z</time>
      </trkpt>
      <trkpt lat="45.10164" lon="5.84712">
        <ele>1097</ele>
        <time>2021-08-26T07:34:39Z</time>
      </trkpt>
      <trkpt lat="45.10164" lon="5.84712">
        <ele>1103.25</ele>
        <time>2021-08-26T07:34:40Z</time>
      </trkpt>
      <trkpt lat="45.10164" lon="5.84712">
        <ele>1097.48</ele>
        <time>2021-08-26T07:34:41Z</time>
      </trkpt>
      <trkpt lat="45.10164" lon="5.84725">
        <ele>1097.96</ele>
        <time>2021-08-26T07:34:56Z</time>
      </trkpt>
      <trkpt lat="45.10168" lon="5.84748">
        <ele>1090.75</ele>
        <time>2021-08-26T07:35:09Z</time>
      </trkpt>
      <trkpt lat="45.10169" lon="5.8475">
        <ele>1103.73</ele>
        <time>2021-08-26T07:35:10Z</time>
      </trkpt>
      <trkpt lat="45.10168" lon="5.84751">
        <ele>1098.92</ele>
        <time>2021-08-26T07:35:11Z</time>
      </trkpt>
      <trkpt lat="45.10166" lon="5.8476">
        <ele>1098.44</ele>
        <time>2021-08-26T07:35:18Z</time>
      </trkpt>
      <trkpt lat="45.10157" lon="5.84777">
        <ele>1098.44</ele>
        <time>2021-08-26T07:35:34Z</time>
      </trkpt>
      <trkpt lat="45.10155" lon="5.84789">
        <ele>1090.27</ele>
        <time>2021-08-26T07:35:43Z</time>
      </trkpt>
      <trkpt lat="45.10155" lon="5.8479">
        <ele>1109.98</ele>
        <time>2021-08-26T07:35:44Z</time>
      </trkpt>
      <trkpt lat="45.10155" lon="5.84792">
        <ele>1100.37</ele>
        <time>2021-08-26T07:35:45Z</time>
      </trkpt>
      <trkpt lat="45.10155" lon="5.84794">
        <ele>1098.92</ele>
        <time>2021-08-26T07:35:47Z</time>
      </trkpt>
      <trkpt lat="45.1015" lon="5.84805">
        <ele>1099.89</ele>
        <time>2021-08-26T07:36:00Z</time>
      </trkpt>
      <trkpt lat="45.1015" lon="5.84809">
        <ele>1100.85</ele>
        <time>2021-08-26T07:36:12Z</time>
      </trkpt>
      <trkpt lat="45.10149" lon="5.84816">
        <ele>1101.81</ele>
        <time>2021-08-26T07:36:27Z</time>
      </trkpt>
      <trkpt lat="45.10145" lon="5.84828">
        <ele>1102.77</ele>
        <time>2021-08-26T07:36:36Z</time>
      </trkpt>
      <trkpt lat="45.10137" lon="5.84842">
        <ele>1103.73</ele>
        <time>2021-08-26T07:36:49Z</time>
      </trkpt>
      <trkpt lat="45.10126" lon="5.84856">
        <ele>1104.69</ele>
        <time>2021-08-26T07:37:05Z</time>
      </trkpt>
      <trkpt lat="45.10123" lon="5.8486">
        <ele>1106.61</ele>
        <time>2021-08-26T07:37:19Z</time>
      </trkpt>
      <trkpt lat="45.10117" lon="5.84866">
        <ele>1108.06</ele>
        <time>2021-08-26T07:37:35Z</time>
      </trkpt>
      <trkpt lat="45.10111" lon="5.84873">
        <ele>1109.5</ele>
        <time>2021-08-26T07:37:50Z</time>
      </trkpt>
      <trkpt lat="45.101" lon="5.84882">
        <ele>1110.46</ele>
        <time>2021-08-26T07:38:02Z</time>
      </trkpt>
      <trkpt lat="45.10096" lon="5.84888">
        <ele>1111.42</ele>
        <time>2021-08-26T07:38:15Z</time>
      </trkpt>
      <trkpt lat="45.10089" lon="5.84894">
        <ele>1112.38</ele>
        <time>2021-08-26T07:38:28Z</time>
      </trkpt>
      <trkpt lat="45.10082" lon="5.84897">
        <ele>1113.34</ele>
        <time>2021-08-26T07:38:39Z</time>
      </trkpt>
      <trkpt lat="45.10078" lon="5.84898">
        <ele>1114.79</ele>
        <time>2021-08-26T07:38:53Z</time>
      </trkpt>
      <trkpt lat="45.10075" lon="5.84901">
        <ele>1115.27</ele>
        <time>2021-08-26T07:38:59Z</time>
      </trkpt>
      <trkpt lat="45.10063" lon="5.84914">
        <ele>1116.23</ele>
        <time>2021-08-26T07:39:13Z</time>
      </trkpt>
      <trkpt lat="45.1005" lon="5.84927">
        <ele>1117.67</ele>
        <time>2021-08-26T07:39:28Z</time>
      </trkpt>
      <trkpt lat="45.10036" lon="5.84944">
        <ele>1117.67</ele>
        <time>2021-08-26T07:39:43Z</time>
      </trkpt>
      <trkpt lat="45.10029" lon="5.84948">
        <ele>1119.11</ele>
        <time>2021-08-26T07:39:55Z</time>
      </trkpt>
      <trkpt lat="45.10025" lon="5.84945">
        <ele>1120.55</ele>
        <time>2021-08-26T07:40:09Z</time>
      </trkpt>
      <trkpt lat="45.10013" lon="5.84948">
        <ele>1121.52</ele>
        <time>2021-08-26T07:40:24Z</time>
      </trkpt>
      <trkpt lat="45.10008" lon="5.84951">
        <ele>1122.48</ele>
        <time>2021-08-26T07:40:38Z</time>
      </trkpt>
      <trkpt lat="45.10001" lon="5.84953">
        <ele>1123.92</ele>
        <time>2021-08-26T07:40:53Z</time>
      </trkpt>
      <trkpt lat="45.09992" lon="5.84953">
        <ele>1124.88</ele>
        <time>2021-08-26T07:41:04Z</time>
      </trkpt>
      <trkpt lat="45.09978" lon="5.84955">
        <ele>1126.32</ele>
        <time>2021-08-26T07:41:16Z</time>
      </trkpt>
      <trkpt lat="45.09963" lon="5.84957">
        <ele>1126.32</ele>
        <time>2021-08-26T07:41:34Z</time>
      </trkpt>
      <trkpt lat="45.09953" lon="5.84963">
        <ele>1127.28</ele>
        <time>2021-08-26T07:41:49Z</time>
      </trkpt>
      <trkpt lat="45.09941" lon="5.84964">
        <ele>1134.49</ele>
        <time>2021-08-26T07:42:03Z</time>
      </trkpt>
      <trkpt lat="45.09941" lon="5.84963">
        <ele>1131.13</ele>
        <time>2021-08-26T07:42:04Z</time>
      </trkpt>
      <trkpt lat="45.0994" lon="5.84962">
        <ele>1129.21</ele>
        <time>2021-08-26T07:42:06Z</time>
      </trkpt>
      <trkpt lat="45.09937" lon="5.84961">
        <ele>1118.15</ele>
        <time>2021-08-26T07:42:16Z</time>
      </trkpt>
      <trkpt lat="45.09936" lon="5.8496">
        <ele>1140.74</ele>
        <time>2021-08-26T07:42:17Z</time>
      </trkpt>
      <trkpt lat="45.09935" lon="5.8496">
        <ele>1122.48</ele>
        <time>2021-08-26T07:42:18Z</time>
      </trkpt>
      <trkpt lat="45.09935" lon="5.84959">
        <ele>1132.57</ele>
        <time>2021-08-26T07:42:19Z</time>
      </trkpt>
      <trkpt lat="45.09933" lon="5.84959">
        <ele>1130.65</ele>
        <time>2021-08-26T07:42:22Z</time>
      </trkpt>
      <trkpt lat="45.09929" lon="5.84957">
        <ele>1131.13</ele>
        <time>2021-08-26T07:42:28Z</time>
      </trkpt>
      <trkpt lat="45.09916" lon="5.84954">
        <ele>1132.09</ele>
        <time>2021-08-26T07:42:44Z</time>
      </trkpt>
      <trkpt lat="45.09907" lon="5.84957">
        <ele>1133.53</ele>
        <time>2021-08-26T07:43:00Z</time>
      </trkpt>
      <trkpt lat="45.09903" lon="5.84954">
        <ele>1135.45</ele>
        <time>2021-08-26T07:43:16Z</time>
      </trkpt>
      <trkpt lat="45.09898" lon="5.84953">
        <ele>1136.42</ele>
        <time>2021-08-26T07:43:31Z</time>
      </trkpt>
      <trkpt lat="45.09894" lon="5.84951">
        <ele>1137.86</ele>
        <time>2021-08-26T07:43:46Z</time>
      </trkpt>
      <trkpt lat="45.0989" lon="5.84951">
        <ele>1139.3</ele>
        <time>2021-08-26T07:44:00Z</time>
      </trkpt>
      <trkpt lat="45.09884" lon="5.84949">
        <ele>1139.78</ele>
        <time>2021-08-26T07:44:13Z</time>
      </trkpt>
      <trkpt lat="45.09879" lon="5.84945">
        <ele>1140.74</ele>
        <time>2021-08-26T07:44:27Z</time>
      </trkpt>
      <trkpt lat="45.09871" lon="5.8494">
        <ele>1142.18</ele>
        <time>2021-08-26T07:44:41Z</time>
      </trkpt>
      <trkpt lat="45.09861" lon="5.84937">
        <ele>1143.14</ele>
        <time>2021-08-26T07:44:55Z</time>
      </trkpt>
      <trkpt lat="45.09845" lon="5.84934">
        <ele>1144.11</ele>
        <time>2021-08-26T07:45:07Z</time>
      </trkpt>
      <trkpt lat="45.09828" lon="5.8494">
        <ele>1145.55</ele>
        <time>2021-08-26T07:45:22Z</time>
      </trkpt>
      <trkpt lat="45.09818" lon="5.8494">
        <ele>1146.99</ele>
        <time>2021-08-26T07:45:38Z</time>
      </trkpt>
      <trkpt lat="45.09811" lon="5.8494">
        <ele>1148.43</ele>
        <time>2021-08-26T07:45:53Z</time>
      </trkpt>
      <trkpt lat="45.09806" lon="5.84939">
        <ele>1149.39</ele>
        <time>2021-08-26T07:46:07Z</time>
      </trkpt>
      <trkpt lat="45.09794" lon="5.84937">
        <ele>1150.84</ele>
        <time>2021-08-26T07:46:21Z</time>
      </trkpt>
      <trkpt lat="45.09786" lon="5.84934">
        <ele>1151.8</ele>
        <time>2021-08-26T07:46:33Z</time>
      </trkpt>
      <trkpt lat="45.09781" lon="5.84936">
        <ele>1152.76</ele>
        <time>2021-08-26T07:46:50Z</time>
      </trkpt>
      <trkpt lat="45.09774" lon="5.84934">
        <ele>1154.2</ele>
        <time>2021-08-26T07:47:05Z</time>
      </trkpt>
      <trkpt lat="45.0977" lon="5.84931">
        <ele>1155.64</ele>
        <time>2021-08-26T07:47:21Z</time>
      </trkpt>
      <trkpt lat="45.09766" lon="5.84929">
        <ele>1157.08</ele>
        <time>2021-08-26T07:47:34Z</time>
      </trkpt>
      <trkpt lat="45.0976" lon="5.84926">
        <ele>1158.05</ele>
        <time>2021-08-26T07:47:50Z</time>
      </trkpt>
      <trkpt lat="45.09746" lon="5.84922">
        <ele>1159.01</ele>
        <time>2021-08-26T07:48:04Z</time>
      </trkpt>
      <trkpt lat="45.09725" lon="5.84927">
        <ele>1159.01</ele>
        <time>2021-08-26T07:48:27Z</time>
      </trkpt>
      <trkpt lat="45.09721" lon="5.84926">
        <ele>1159.01</ele>
        <time>2021-08-26T07:48:53Z</time>
      </trkpt>
      <trkpt lat="45.09721" lon="5.84925">
        <ele>1159.49</ele>
        <time>2021-08-26T07:49:12Z</time>
      </trkpt>
      <trkpt lat="45.0972" lon="5.84925">
        <ele>1159.97</ele>
        <time>2021-08-26T07:49:33Z</time>
      </trkpt>
      <trkpt lat="45.09718" lon="5.84924">
        <ele>1161.41</ele>
        <time>2021-08-26T07:49:49Z</time>
      </trkpt>
      <trkpt lat="45.09717" lon="5.84923">
        <ele>1162.37</ele>
        <time>2021-08-26T07:50:06Z</time>
      </trkpt>
      <trkpt lat="45.09715" lon="5.84922">
        <ele>1162.85</ele>
        <time>2021-08-26T07:50:28Z</time>
      </trkpt>
      <trkpt lat="45.09712" lon="5.84921">
        <ele>1162.37</ele>
        <time>2021-08-26T07:50:59Z</time>
      </trkpt>
      <trkpt lat="45.0971" lon="5.84921">
        <ele>1162.37</ele>
        <time>2021-08-26T07:51:29Z</time>
      </trkpt>
      <trkpt lat="45.097" lon="5.84921">
        <ele>1163.81</ele>
        <time>2021-08-26T07:51:50Z</time>
      </trkpt>
      <trkpt lat="45.09695" lon="5.84923">
        <ele>1165.74</ele>
        <time>2021-08-26T07:52:05Z</time>
      </trkpt>
      <trkpt lat="45.09686" lon="5.84922">
        <ele>1166.22</ele>
        <time>2021-08-26T07:52:20Z</time>
      </trkpt>
      <trkpt lat="45.09682" lon="5.8492">
        <ele>1167.66</ele>
        <time>2021-08-26T07:52:33Z</time>
      </trkpt>
      <trkpt lat="45.09676" lon="5.8492">
        <ele>1169.1</ele>
        <time>2021-08-26T07:52:48Z</time>
      </trkpt>
      <trkpt lat="45.09669" lon="5.84924">
        <ele>1170.06</ele>
        <time>2021-08-26T07:53:03Z</time>
      </trkpt>
      <trkpt lat="45.09659" lon="5.84926">
        <ele>1171.5</ele>
        <time>2021-08-26T07:53:21Z</time>
      </trkpt>
      <trkpt lat="45.09656" lon="5.84928">
        <ele>1172.95</ele>
        <time>2021-08-26T07:53:37Z</time>
      </trkpt>
      <trkpt lat="45.09651" lon="5.8493">
        <ele>1174.39</ele>
        <time>2021-08-26T07:53:54Z</time>
      </trkpt>
      <trkpt lat="45.09647" lon="5.84931">
        <ele>1175.35</ele>
        <time>2021-08-26T07:54:12Z</time>
      </trkpt>
      <trkpt lat="45.09632" lon="5.84934">
        <ele>1175.83</ele>
        <time>2021-08-26T07:54:25Z</time>
      </trkpt>
      <trkpt lat="45.0962" lon="5.84933">
        <ele>1176.79</ele>
        <time>2021-08-26T07:54:34Z</time>
      </trkpt>
      <trkpt lat="45.09608" lon="5.84929">
        <ele>1177.27</ele>
        <time>2021-08-26T07:54:47Z</time>
      </trkpt>
      <trkpt lat="45.09594" lon="5.84931">
        <ele>1178.23</ele>
        <time>2021-08-26T07:55:04Z</time>
      </trkpt>
      <trkpt lat="45.09583" lon="5.84931">
        <ele>1180.16</ele>
        <time>2021-08-26T07:55:22Z</time>
      </trkpt>
      <trkpt lat="45.09568" lon="5.84924">
        <ele>1181.6</ele>
        <time>2021-08-26T07:55:40Z</time>
      </trkpt>
      <trkpt lat="45.0956" lon="5.84925">
        <ele>1183.04</ele>
        <time>2021-08-26T07:55:56Z</time>
      </trkpt>
      <trkpt lat="45.09556" lon="5.84927">
        <ele>1184</ele>
        <time>2021-08-26T07:56:13Z</time>
      </trkpt>
      <trkpt lat="45.09553" lon="5.84925">
        <ele>1185.44</ele>
        <time>2021-08-26T07:56:27Z</time>
      </trkpt>
      <trkpt lat="45.09549" lon="5.84923">
        <ele>1186.4</ele>
        <time>2021-08-26T07:56:41Z</time>
      </trkpt>
      <trkpt lat="45.09545" lon="5.84924">
        <ele>1187.85</ele>
        <time>2021-08-26T07:56:55Z</time>
      </trkpt>
      <trkpt lat="45.0954" lon="5.84927">
        <ele>1188.81</ele>
        <time>2021-08-26T07:57:09Z</time>
      </trkpt>
      <trkpt lat="45.09536" lon="5.8493">
        <ele>1190.25</ele>
        <time>2021-08-26T07:57:26Z</time>
      </trkpt>
      <trkpt lat="45.09533" lon="5.84931">
        <ele>1190.73</ele>
        <time>2021-08-26T07:57:42Z</time>
      </trkpt>
      <trkpt lat="45.09528" lon="5.84931">
        <ele>1190.73</ele>
        <time>2021-08-26T07:58:05Z</time>
      </trkpt>
      <trkpt lat="45.09527" lon="5.84932">
        <ele>1190.25</ele>
        <time>2021-08-26T07:58:27Z</time>
      </trkpt>
      <trkpt lat="45.09528" lon="5.84931">
        <ele>1190.25</ele>
        <time>2021-08-26T07:58:51Z</time>
      </trkpt>
      <trkpt lat="45.09515" lon="5.84929">
        <ele>1189.77</ele>
        <time>2021-08-26T07:59:07Z</time>
      </trkpt>
      <trkpt lat="45.095" lon="5.84938">
        <ele>1189.77</ele>
        <time>2021-08-26T07:59:39Z</time>
      </trkpt>
      <trkpt lat="45.09498" lon="5.8494">
        <ele>1189.29</ele>
        <time>2021-08-26T08:00:08Z</time>
      </trkpt>
      <trkpt lat="45.09495" lon="5.84942">
        <ele>1189.29</ele>
        <time>2021-08-26T08:00:32Z</time>
      </trkpt>
      <trkpt lat="45.09492" lon="5.84945">
        <ele>1190.73</ele>
        <time>2021-08-26T08:00:51Z</time>
      </trkpt>
      <trkpt lat="45.09489" lon="5.84946">
        <ele>1192.17</ele>
        <time>2021-08-26T08:01:11Z</time>
      </trkpt>
      <trkpt lat="45.09486" lon="5.84947">
        <ele>1193.13</ele>
        <time>2021-08-26T08:01:25Z</time>
      </trkpt>
      <trkpt lat="45.09483" lon="5.84946">
        <ele>1195.06</ele>
        <time>2021-08-26T08:01:42Z</time>
      </trkpt>
      <trkpt lat="45.09471" lon="5.84946">
        <ele>1196.02</ele>
        <time>2021-08-26T08:01:58Z</time>
      </trkpt>
      <trkpt lat="45.09455" lon="5.84951">
        <ele>1197.46</ele>
        <time>2021-08-26T08:02:16Z</time>
      </trkpt>
      <trkpt lat="45.09439" lon="5.84955">
        <ele>1198.9</ele>
        <time>2021-08-26T08:02:33Z</time>
      </trkpt>
      <trkpt lat="45.09423" lon="5.84956">
        <ele>1200.34</ele>
        <time>2021-08-26T08:02:47Z</time>
      </trkpt>
      <trkpt lat="45.09413" lon="5.84958">
        <ele>1201.3</ele>
        <time>2021-08-26T08:03:02Z</time>
      </trkpt>
      <trkpt lat="45.09405" lon="5.84957">
        <ele>1202.27</ele>
        <time>2021-08-26T08:03:16Z</time>
      </trkpt>
      <trkpt lat="45.09402" lon="5.84955">
        <ele>1204.19</ele>
        <time>2021-08-26T08:03:37Z</time>
      </trkpt>
      <trkpt lat="45.09395" lon="5.84953">
        <ele>1205.15</ele>
        <time>2021-08-26T08:03:54Z</time>
      </trkpt>
      <trkpt lat="45.0938" lon="5.84947">
        <ele>1206.59</ele>
        <time>2021-08-26T08:04:08Z</time>
      </trkpt>
      <trkpt lat="45.09365" lon="5.84934">
        <ele>1207.55</ele>
        <time>2021-08-26T08:04:25Z</time>
      </trkpt>
      <trkpt lat="45.09358" lon="5.84931">
        <ele>1209</ele>
        <time>2021-08-26T08:04:38Z</time>
      </trkpt>
      <trkpt lat="45.09351" lon="5.84928">
        <ele>1209.96</ele>
        <time>2021-08-26T08:04:51Z</time>
      </trkpt>
      <trkpt lat="45.09347" lon="5.84926">
        <ele>1210.92</ele>
        <time>2021-08-26T08:05:04Z</time>
      </trkpt>
      <trkpt lat="45.09345" lon="5.84926">
        <ele>1212.36</ele>
        <time>2021-08-26T08:05:22Z</time>
      </trkpt>
      <trkpt lat="45.09342" lon="5.84924">
        <ele>1212.84</ele>
        <time>2021-08-26T08:05:32Z</time>
      </trkpt>
      <trkpt lat="45.09331" lon="5.84918">
        <ele>1213.8</ele>
        <time>2021-08-26T08:05:48Z</time>
      </trkpt>
      <trkpt lat="45.09322" lon="5.8491">
        <ele>1214.76</ele>
        <time>2021-08-26T08:06:06Z</time>
      </trkpt>
      <trkpt lat="45.09313" lon="5.849">
        <ele>1215.72</ele>
        <time>2021-08-26T08:06:21Z</time>
      </trkpt>
      <trkpt lat="45.09305" lon="5.84893">
        <ele>1216.69</ele>
        <time>2021-08-26T08:06:37Z</time>
      </trkpt>
      <trkpt lat="45.09301" lon="5.84888">
        <ele>1218.13</ele>
        <time>2021-08-26T08:06:52Z</time>
      </trkpt>
      <trkpt lat="45.09297" lon="5.84882">
        <ele>1220.05</ele>
        <time>2021-08-26T08:07:10Z</time>
      </trkpt>
      <trkpt lat="45.09295" lon="5.8488">
        <ele>1221.49</ele>
        <time>2021-08-26T08:07:29Z</time>
      </trkpt>
      <trkpt lat="45.09293" lon="5.84876">
        <ele>1222.45</ele>
        <time>2021-08-26T08:07:44Z</time>
      </trkpt>
      <trkpt lat="45.09286" lon="5.84869">
        <ele>1223.42</ele>
        <time>2021-08-26T08:08:01Z</time>
      </trkpt>
      <trkpt lat="45.09267" lon="5.84847">
        <ele>1224.86</ele>
        <time>2021-08-26T08:08:20Z</time>
      </trkpt>
      <trkpt lat="45.09259" lon="5.84838">
        <ele>1225.82</ele>
        <time>2021-08-26T08:08:32Z</time>
      </trkpt>
      <trkpt lat="45.09254" lon="5.84831">
        <ele>1227.26</ele>
        <time>2021-08-26T08:08:49Z</time>
      </trkpt>
      <trkpt lat="45.09249" lon="5.84824">
        <ele>1228.7</ele>
        <time>2021-08-26T08:09:04Z</time>
      </trkpt>
      <trkpt lat="45.09241" lon="5.84815">
        <ele>1230.62</ele>
        <time>2021-08-26T08:09:21Z</time>
      </trkpt>
      <trkpt lat="45.09234" lon="5.84807">
        <ele>1232.07</ele>
        <time>2021-08-26T08:09:37Z</time>
      </trkpt>
      <trkpt lat="45.09228" lon="5.84796">
        <ele>1233.51</ele>
        <time>2021-08-26T08:09:51Z</time>
      </trkpt>
      <trkpt lat="45.09224" lon="5.84793">
        <ele>1234.95</ele>
        <time>2021-08-26T08:10:04Z</time>
      </trkpt>
      <trkpt lat="45.09223" lon="5.84791">
        <ele>1236.39</ele>
        <time>2021-08-26T08:10:20Z</time>
      </trkpt>
      <trkpt lat="45.09222" lon="5.84787">
        <ele>1238.32</ele>
        <time>2021-08-26T08:10:37Z</time>
      </trkpt>
      <trkpt lat="45.09221" lon="5.84786">
        <ele>1239.28</ele>
        <time>2021-08-26T08:10:52Z</time>
      </trkpt>
      <trkpt lat="45.09215" lon="5.84777">
        <ele>1240.72</ele>
        <time>2021-08-26T08:11:06Z</time>
      </trkpt>
      <trkpt lat="45.09208" lon="5.84775">
        <ele>1242.16</ele>
        <time>2021-08-26T08:11:21Z</time>
      </trkpt>
      <trkpt lat="45.09204" lon="5.84771">
        <ele>1243.6</ele>
        <time>2021-08-26T08:11:34Z</time>
      </trkpt>
      <trkpt lat="45.09199" lon="5.8477">
        <ele>1238.8</ele>
        <time>2021-08-26T08:11:42Z</time>
      </trkpt>
      <trkpt lat="45.09199" lon="5.84769">
        <ele>1247.45</ele>
        <time>2021-08-26T08:11:43Z</time>
      </trkpt>
      <trkpt lat="45.09199" lon="5.84769">
        <ele>1246.49</ele>
        <time>2021-08-26T08:11:44Z</time>
      </trkpt>
      <trkpt lat="45.0919" lon="5.84769">
        <ele>1242.16</ele>
        <time>2021-08-26T08:11:50Z</time>
      </trkpt>
      <trkpt lat="45.09189" lon="5.84768">
        <ele>1247.93</ele>
        <time>2021-08-26T08:11:51Z</time>
      </trkpt>
      <trkpt lat="45.09188" lon="5.84768">
        <ele>1244.56</ele>
        <time>2021-08-26T08:11:52Z</time>
      </trkpt>
      <trkpt lat="45.09185" lon="5.84767">
        <ele>1235.91</ele>
        <time>2021-08-26T08:11:55Z</time>
      </trkpt>
      <trkpt lat="45.09185" lon="5.84767">
        <ele>1246.01</ele>
        <time>2021-08-26T08:11:56Z</time>
      </trkpt>
      <trkpt lat="45.09178" lon="5.84763">
        <ele>1245.04</ele>
        <time>2021-08-26T08:12:13Z</time>
      </trkpt>
      <trkpt lat="45.09176" lon="5.84759">
        <ele>1240.24</ele>
        <time>2021-08-26T08:12:25Z</time>
      </trkpt>
      <trkpt lat="45.09176" lon="5.84759">
        <ele>1241.2</ele>
        <time>2021-08-26T08:12:26Z</time>
      </trkpt>
      <trkpt lat="45.09176" lon="5.84758">
        <ele>1250.81</ele>
        <time>2021-08-26T08:12:27Z</time>
      </trkpt>
      <trkpt lat="45.09175" lon="5.84757">
        <ele>1241.68</ele>
        <time>2021-08-26T08:12:28Z</time>
      </trkpt>
      <trkpt lat="45.09175" lon="5.84756">
        <ele>1251.77</ele>
        <time>2021-08-26T08:12:29Z</time>
      </trkpt>
      <trkpt lat="45.09175" lon="5.84756">
        <ele>1247.45</ele>
        <time>2021-08-26T08:12:30Z</time>
      </trkpt>
      <trkpt lat="45.09175" lon="5.84756">
        <ele>1243.6</ele>
        <time>2021-08-26T08:12:31Z</time>
      </trkpt>
      <trkpt lat="45.09175" lon="5.84756">
        <ele>1238.8</ele>
        <time>2021-08-26T08:12:32Z</time>
      </trkpt>
      <trkpt lat="45.09175" lon="5.84756">
        <ele>1224.86</ele>
        <time>2021-08-26T08:12:33Z</time>
      </trkpt>
      <trkpt lat="45.09175" lon="5.84756">
        <ele>1271.48</ele>
        <time>2021-08-26T08:12:34Z</time>
      </trkpt>
      <trkpt lat="45.09175" lon="5.84756">
        <ele>1249.37</ele>
        <time>2021-08-26T08:12:35Z</time>
      </trkpt>
      <trkpt lat="45.09175" lon="5.84756">
        <ele>1213.8</ele>
        <time>2021-08-26T08:12:36Z</time>
      </trkpt>
      <trkpt lat="45.09175" lon="5.84756">
        <ele>1268.12</ele>
        <time>2021-08-26T08:12:37Z</time>
      </trkpt>
      <trkpt lat="45.09175" lon="5.84756">
        <ele>1237.35</ele>
        <time>2021-08-26T08:12:38Z</time>
      </trkpt>
      <trkpt lat="45.09175" lon="5.84756">
        <ele>1251.77</ele>
        <time>2021-08-26T08:12:39Z</time>
      </trkpt>
      <trkpt lat="45.09175" lon="5.84756">
        <ele>1244.08</ele>
        <time>2021-08-26T08:12:40Z</time>
      </trkpt>
      <trkpt lat="45.09175" lon="5.84756">
        <ele>1252.25</ele>
        <time>2021-08-26T08:12:41Z</time>
      </trkpt>
      <trkpt lat="45.09175" lon="5.84756">
        <ele>1245.53</ele>
        <time>2021-08-26T08:12:42Z</time>
      </trkpt>
      <trkpt lat="45.09175" lon="5.84755">
        <ele>1237.35</ele>
        <time>2021-08-26T08:12:43Z</time>
      </trkpt>
      <trkpt lat="45.09175" lon="5.84755">
        <ele>1251.29</ele>
        <time>2021-08-26T08:12:44Z</time>
      </trkpt>
      <trkpt lat="45.09175" lon="5.84755">
        <ele>1246.01</ele>
        <time>2021-08-26T08:12:45Z</time>
      </trkpt>
      <trkpt lat="45.09175" lon="5.84754">
        <ele>1245.53</ele>
        <time>2021-08-26T08:12:47Z</time>
      </trkpt>
      <trkpt lat="45.0917" lon="5.84749">
        <ele>1245.53</ele>
        <time>2021-08-26T08:12:58Z</time>
      </trkpt>
      <trkpt lat="45.09167" lon="5.84746">
        <ele>1246.01</ele>
        <time>2021-08-26T08:13:12Z</time>
      </trkpt>
      <trkpt lat="45.09166" lon="5.84745">
        <ele>1237.35</ele>
        <time>2021-08-26T08:13:20Z</time>
      </trkpt>
      <trkpt lat="45.09166" lon="5.84745">
        <ele>1251.77</ele>
        <time>2021-08-26T08:13:21Z</time>
      </trkpt>
      <trkpt lat="45.09166" lon="5.84745">
        <ele>1246.01</ele>
        <time>2021-08-26T08:13:22Z</time>
      </trkpt>
      <trkpt lat="45.09167" lon="5.84744">
        <ele>1231.11</ele>
        <time>2021-08-26T08:13:33Z</time>
      </trkpt>
      <trkpt lat="45.09167" lon="5.84744">
        <ele>1249.37</ele>
        <time>2021-08-26T08:13:34Z</time>
      </trkpt>
      <trkpt lat="45.09167" lon="5.84744">
        <ele>1255.62</ele>
        <time>2021-08-26T08:13:35Z</time>
      </trkpt>
      <trkpt lat="45.09166" lon="5.84744">
        <ele>1246.97</ele>
        <time>2021-08-26T08:13:36Z</time>
      </trkpt>
      <trkpt lat="45.09166" lon="5.84744">
        <ele>1246.01</ele>
        <time>2021-08-26T08:13:38Z</time>
      </trkpt>
      <trkpt lat="45.09164" lon="5.84745">
        <ele>1246.01</ele>
        <time>2021-08-26T08:13:58Z</time>
      </trkpt>
      <trkpt lat="45.09163" lon="5.84743">
        <ele>1246.49</ele>
        <time>2021-08-26T08:14:07Z</time>
      </trkpt>
      <trkpt lat="45.09145" lon="5.84737">
        <ele>1245.53</ele>
        <time>2021-08-26T08:14:21Z</time>
      </trkpt>
      <trkpt lat="45.09143" lon="5.8474">
        <ele>1246.01</ele>
        <time>2021-08-26T08:14:54Z</time>
      </trkpt>
      <trkpt lat="45.09142" lon="5.84738">
        <ele>1246.01</ele>
        <time>2021-08-26T08:15:11Z</time>
      </trkpt>
      <trkpt lat="45.09147" lon="5.84736">
        <ele>1246.49</ele>
        <time>2021-08-26T08:15:25Z</time>
      </trkpt>
      <trkpt lat="45.09147" lon="5.84734">
        <ele>1246.97</ele>
        <time>2021-08-26T08:15:42Z</time>
      </trkpt>
      <trkpt lat="45.09147" lon="5.84734">
        <ele>1239.76</ele>
        <time>2021-08-26T08:15:54Z</time>
      </trkpt>
      <trkpt lat="45.09147" lon="5.84734">
        <ele>1254.66</ele>
        <time>2021-08-26T08:15:55Z</time>
      </trkpt>
      <trkpt lat="45.09148" lon="5.84734">
        <ele>1239.76</ele>
        <time>2021-08-26T08:15:56Z</time>
      </trkpt>
      <trkpt lat="45.09147" lon="5.84734">
        <ele>1253.7</ele>
        <time>2021-08-26T08:15:57Z</time>
      </trkpt>
      <trkpt lat="45.09147" lon="5.84734">
        <ele>1247.45</ele>
        <time>2021-08-26T08:15:58Z</time>
      </trkpt>
      <trkpt lat="45.09148" lon="5.84734">
        <ele>1246.97</ele>
        <time>2021-08-26T08:16:19Z</time>
      </trkpt>
      <trkpt lat="45.0915" lon="5.84738">
        <ele>1247.45</ele>
        <time>2021-08-26T08:16:34Z</time>
      </trkpt>
      <trkpt lat="45.0915" lon="5.84738">
        <ele>1247.45</ele>
        <time>2021-08-26T08:16:50Z</time>
      </trkpt>
      <trkpt lat="45.09153" lon="5.8474">
        <ele>1247.93</ele>
        <time>2021-08-26T08:17:13Z</time>
      </trkpt>
      <trkpt lat="45.09152" lon="5.84738">
        <ele>1249.37</ele>
        <time>2021-08-26T08:17:26Z</time>
      </trkpt>
      <trkpt lat="45.09151" lon="5.84735">
        <ele>1250.81</ele>
        <time>2021-08-26T08:17:40Z</time>
      </trkpt>
      <trkpt lat="45.09151" lon="5.84731">
        <ele>1253.22</ele>
        <time>2021-08-26T08:17:58Z</time>
      </trkpt>
      <trkpt lat="45.09148" lon="5.84728">
        <ele>1253.7</ele>
        <time>2021-08-26T08:18:09Z</time>
      </trkpt>
      <trkpt lat="45.09147" lon="5.84724">
        <ele>1256.58</ele>
        <time>2021-08-26T08:18:27Z</time>
      </trkpt>
      <trkpt lat="45.09143" lon="5.8472">
        <ele>1258.5</ele>
        <time>2021-08-26T08:18:44Z</time>
      </trkpt>
      <trkpt lat="45.09131" lon="5.84708">
        <ele>1259.46</ele>
        <time>2021-08-26T08:19:00Z</time>
      </trkpt>
      <trkpt lat="45.09127" lon="5.84703">
        <ele>1258.98</ele>
        <time>2021-08-26T08:19:25Z</time>
      </trkpt>
      <trkpt lat="45.09124" lon="5.84698">
        <ele>1260.43</ele>
        <time>2021-08-26T08:19:44Z</time>
      </trkpt>
      <trkpt lat="45.09125" lon="5.84694">
        <ele>1262.35</ele>
        <time>2021-08-26T08:19:58Z</time>
      </trkpt>
      <trkpt lat="45.09127" lon="5.84686">
        <ele>1264.75</ele>
        <time>2021-08-26T08:20:16Z</time>
      </trkpt>
      <trkpt lat="45.09129" lon="5.84677">
        <ele>1267.16</ele>
        <time>2021-08-26T08:20:35Z</time>
      </trkpt>
      <trkpt lat="45.09129" lon="5.84676">
        <ele>1264.75</ele>
        <time>2021-08-26T08:20:41Z</time>
      </trkpt>
      <trkpt lat="45.09129" lon="5.84676">
        <ele>1269.08</ele>
        <time>2021-08-26T08:20:42Z</time>
      </trkpt>
      <trkpt lat="45.09129" lon="5.84675">
        <ele>1268.12</ele>
        <time>2021-08-26T08:20:45Z</time>
      </trkpt>
      <trkpt lat="45.09129" lon="5.84675">
        <ele>1263.79</ele>
        <time>2021-08-26T08:20:48Z</time>
      </trkpt>
      <trkpt lat="45.09129" lon="5.84675">
        <ele>1273.4</ele>
        <time>2021-08-26T08:20:49Z</time>
      </trkpt>
      <trkpt lat="45.09129" lon="5.84675">
        <ele>1269.08</ele>
        <time>2021-08-26T08:20:50Z</time>
      </trkpt>
      <trkpt lat="45.09129" lon="5.84674">
        <ele>1264.27</ele>
        <time>2021-08-26T08:20:53Z</time>
      </trkpt>
      <trkpt lat="45.09129" lon="5.84674">
        <ele>1271.48</ele>
        <time>2021-08-26T08:20:54Z</time>
      </trkpt>
      <trkpt lat="45.09129" lon="5.84674">
        <ele>1261.39</ele>
        <time>2021-08-26T08:20:55Z</time>
      </trkpt>
      <trkpt lat="45.09129" lon="5.84674">
        <ele>1273.88</ele>
        <time>2021-08-26T08:20:56Z</time>
      </trkpt>
      <trkpt lat="45.09129" lon="5.84674">
        <ele>1227.74</ele>
        <time>2021-08-26T08:20:57Z</time>
      </trkpt>
      <trkpt lat="45.09129" lon="5.84673">
        <ele>1301.28</ele>
        <time>2021-08-26T08:20:58Z</time>
      </trkpt>
      <trkpt lat="45.09129" lon="5.84673">
        <ele>1245.04</ele>
        <time>2021-08-26T08:20:59Z</time>
      </trkpt>
      <trkpt lat="45.09129" lon="5.84673">
        <ele>1294.55</ele>
        <time>2021-08-26T08:21:00Z</time>
      </trkpt>
      <trkpt lat="45.09129" lon="5.84673">
        <ele>1258.98</ele>
        <time>2021-08-26T08:21:01Z</time>
      </trkpt>
      <trkpt lat="45.09129" lon="5.84673">
        <ele>1285.9</ele>
        <time>2021-08-26T08:21:02Z</time>
      </trkpt>
      <trkpt lat="45.09129" lon="5.84673">
        <ele>1269.08</ele>
        <time>2021-08-26T08:21:03Z</time>
      </trkpt>
      <trkpt lat="45.0913" lon="5.84668">
        <ele>1269.08</ele>
        <time>2021-08-26T08:21:15Z</time>
      </trkpt>
      <trkpt lat="45.09132" lon="5.84658">
        <ele>1269.56</ele>
        <time>2021-08-26T08:21:20Z</time>
      </trkpt>
      <trkpt lat="45.09133" lon="5.84636">
        <ele>1270.04</ele>
        <time>2021-08-26T08:21:30Z</time>
      </trkpt>
      <trkpt lat="45.09132" lon="5.84627">
        <ele>1263.79</ele>
        <time>2021-08-26T08:21:36Z</time>
      </trkpt>
      <trkpt lat="45.09132" lon="5.84623">
        <ele>1275.33</ele>
        <time>2021-08-26T08:21:37Z</time>
      </trkpt>
      <trkpt lat="45.09132" lon="5.84621">
        <ele>1271</ele>
        <time>2021-08-26T08:21:38Z</time>
      </trkpt>
      <trkpt lat="45.09133" lon="5.84612">
        <ele>1246.97</ele>
        <time>2021-08-26T08:21:46Z</time>
      </trkpt>
      <trkpt lat="45.09133" lon="5.84611">
        <ele>1246.97</ele>
        <time>2021-08-26T08:21:47Z</time>
      </trkpt>
      <trkpt lat="45.09133" lon="5.8461">
        <ele>1288.78</ele>
        <time>2021-08-26T08:21:48Z</time>
      </trkpt>
      <trkpt lat="45.09134" lon="5.84609">
        <ele>1272.92</ele>
        <time>2021-08-26T08:21:49Z</time>
      </trkpt>
      <trkpt lat="45.09134" lon="5.84606">
        <ele>1271.48</ele>
        <time>2021-08-26T08:21:51Z</time>
      </trkpt>
      <trkpt lat="45.09132" lon="5.84592">
        <ele>1271.96</ele>
        <time>2021-08-26T08:22:05Z</time>
      </trkpt>
      <trkpt lat="45.09125" lon="5.84566">
        <ele>1272.92</ele>
        <time>2021-08-26T08:22:19Z</time>
      </trkpt>
      <trkpt lat="45.09124" lon="5.84554">
        <ele>1273.4</ele>
        <time>2021-08-26T08:22:32Z</time>
      </trkpt>
      <trkpt lat="45.09123" lon="5.84545">
        <ele>1274.36</ele>
        <time>2021-08-26T08:22:47Z</time>
      </trkpt>
      <trkpt lat="45.09118" lon="5.84537">
        <ele>1275.33</ele>
        <time>2021-08-26T08:23:01Z</time>
      </trkpt>
      <trkpt lat="45.09115" lon="5.8453">
        <ele>1275.33</ele>
        <time>2021-08-26T08:23:20Z</time>
      </trkpt>
      <trkpt lat="45.09113" lon="5.84527">
        <ele>1267.64</ele>
        <time>2021-08-26T08:23:23Z</time>
      </trkpt>
      <trkpt lat="45.09113" lon="5.84526">
        <ele>1281.57</ele>
        <time>2021-08-26T08:23:24Z</time>
      </trkpt>
      <trkpt lat="45.09112" lon="5.84524">
        <ele>1275.81</ele>
        <time>2021-08-26T08:23:25Z</time>
      </trkpt>
      <trkpt lat="45.09108" lon="5.84518">
        <ele>1275.81</ele>
        <time>2021-08-26T08:23:31Z</time>
      </trkpt>
      <trkpt lat="45.09102" lon="5.84508">
        <ele>1276.29</ele>
        <time>2021-08-26T08:23:43Z</time>
      </trkpt>
      <trkpt lat="45.09097" lon="5.84502">
        <ele>1277.25</ele>
        <time>2021-08-26T08:23:55Z</time>
      </trkpt>
      <trkpt lat="45.09088" lon="5.84496">
        <ele>1277.73</ele>
        <time>2021-08-26T08:24:09Z</time>
      </trkpt>
      <trkpt lat="45.09082" lon="5.84491">
        <ele>1278.69</ele>
        <time>2021-08-26T08:24:24Z</time>
      </trkpt>
      <trkpt lat="45.09081" lon="5.84491">
        <ele>1269.08</ele>
        <time>2021-08-26T08:24:28Z</time>
      </trkpt>
      <trkpt lat="45.0908" lon="5.8449">
        <ele>1287.82</ele>
        <time>2021-08-26T08:24:29Z</time>
      </trkpt>
      <trkpt lat="45.09079" lon="5.8449">
        <ele>1279.65</ele>
        <time>2021-08-26T08:24:30Z</time>
      </trkpt>
      <trkpt lat="45.09076" lon="5.84487">
        <ele>1280.13</ele>
        <time>2021-08-26T08:24:50Z</time>
      </trkpt>
      <trkpt lat="45.09072" lon="5.84484">
        <ele>1281.09</ele>
        <time>2021-08-26T08:25:07Z</time>
      </trkpt>
      <trkpt lat="45.09069" lon="5.8448">
        <ele>1271</ele>
        <time>2021-08-26T08:25:17Z</time>
      </trkpt>
      <trkpt lat="45.09069" lon="5.8448">
        <ele>1290.23</ele>
        <time>2021-08-26T08:25:18Z</time>
      </trkpt>
      <trkpt lat="45.09069" lon="5.84479">
        <ele>1282.54</ele>
        <time>2021-08-26T08:25:19Z</time>
      </trkpt>
      <trkpt lat="45.09056" lon="5.84469">
        <ele>1283.02</ele>
        <time>2021-08-26T08:25:34Z</time>
      </trkpt>
      <trkpt lat="45.09043" lon="5.84458">
        <ele>1283.5</ele>
        <time>2021-08-26T08:25:47Z</time>
      </trkpt>
      <trkpt lat="45.09036" lon="5.84449">
        <ele>1283.98</ele>
        <time>2021-08-26T08:26:00Z</time>
      </trkpt>
      <trkpt lat="45.09022" lon="5.84432">
        <ele>1284.46</ele>
        <time>2021-08-26T08:26:11Z</time>
      </trkpt>
      <trkpt lat="45.09002" lon="5.84416">
        <ele>1284.94</ele>
        <time>2021-08-26T08:26:24Z</time>
      </trkpt>
      <trkpt lat="45.09001" lon="5.84415">
        <ele>1285.42</ele>
        <time>2021-08-26T08:26:25Z</time>
      </trkpt>
      <trkpt lat="45.08997" lon="5.8441">
        <ele>1283.02</ele>
        <time>2021-08-26T08:26:27Z</time>
      </trkpt>
      <trkpt lat="45.08996" lon="5.84408">
        <ele>1285.42</ele>
        <time>2021-08-26T08:26:29Z</time>
      </trkpt>
      <trkpt lat="45.08996" lon="5.84407">
        <ele>1286.86</ele>
        <time>2021-08-26T08:26:30Z</time>
      </trkpt>
      <trkpt lat="45.08993" lon="5.84405">
        <ele>1285.9</ele>
        <time>2021-08-26T08:26:32Z</time>
      </trkpt>
      <trkpt lat="45.08981" lon="5.84391">
        <ele>1285.9</ele>
        <time>2021-08-26T08:26:49Z</time>
      </trkpt>
      <trkpt lat="45.08964" lon="5.84374">
        <ele>1286.86</ele>
        <time>2021-08-26T08:27:06Z</time>
      </trkpt>
      <trkpt lat="45.0896" lon="5.84366">
        <ele>1288.3</ele>
        <time>2021-08-26T08:27:23Z</time>
      </trkpt>
      <trkpt lat="45.08953" lon="5.84353">
        <ele>1289.75</ele>
        <time>2021-08-26T08:27:37Z</time>
      </trkpt>
      <trkpt lat="45.08947" lon="5.84344">
        <ele>1291.19</ele>
        <time>2021-08-26T08:27:49Z</time>
      </trkpt>
      <trkpt lat="45.0895" lon="5.84342">
        <ele>1291.67</ele>
        <time>2021-08-26T08:28:05Z</time>
      </trkpt>
      <trkpt lat="45.08945" lon="5.84338">
        <ele>1292.15</ele>
        <time>2021-08-26T08:28:15Z</time>
      </trkpt>
      <trkpt lat="45.08943" lon="5.84337">
        <ele>1292.15</ele>
        <time>2021-08-26T08:28:18Z</time>
      </trkpt>
      <trkpt lat="45.08938" lon="5.8433">
        <ele>1292.63</ele>
        <time>2021-08-26T08:28:32Z</time>
      </trkpt>
      <trkpt lat="45.08938" lon="5.84326">
        <ele>1293.59</ele>
        <time>2021-08-26T08:28:38Z</time>
      </trkpt>
      <trkpt lat="45.08937" lon="5.84326">
        <ele>1293.59</ele>
        <time>2021-08-26T08:28:41Z</time>
      </trkpt>
      <trkpt lat="45.08937" lon="5.84326">
        <ele>1308.97</ele>
        <time>2021-08-26T08:28:42Z</time>
      </trkpt>
      <trkpt lat="45.08936" lon="5.84326">
        <ele>1308.97</ele>
        <time>2021-08-26T08:28:43Z</time>
      </trkpt>
      <trkpt lat="45.08935" lon="5.84326">
        <ele>1295.51</ele>
        <time>2021-08-26T08:28:44Z</time>
      </trkpt>
      <trkpt lat="45.08932" lon="5.84322">
        <ele>1292.63</ele>
        <time>2021-08-26T08:28:47Z</time>
      </trkpt>
      <trkpt lat="45.08911" lon="5.84295">
        <ele>1293.11</ele>
        <time>2021-08-26T08:29:02Z</time>
      </trkpt>
      <trkpt lat="45.08905" lon="5.84282">
        <ele>1293.59</ele>
        <time>2021-08-26T08:29:15Z</time>
      </trkpt>
      <trkpt lat="45.08902" lon="5.8427">
        <ele>1294.07</ele>
        <time>2021-08-26T08:29:25Z</time>
      </trkpt>
      <trkpt lat="45.08902" lon="5.84256">
        <ele>1294.55</ele>
        <time>2021-08-26T08:29:38Z</time>
      </trkpt>
      <trkpt lat="45.089" lon="5.84238">
        <ele>1295.03</ele>
        <time>2021-08-26T08:29:50Z</time>
      </trkpt>
      <trkpt lat="45.08893" lon="5.84222">
        <ele>1295.51</ele>
        <time>2021-08-26T08:30:02Z</time>
      </trkpt>
      <trkpt lat="45.0889" lon="5.84202">
        <ele>1295.99</ele>
        <time>2021-08-26T08:30:15Z</time>
      </trkpt>
      <trkpt lat="45.0889" lon="5.84185">
        <ele>1296.48</ele>
        <time>2021-08-26T08:30:30Z</time>
      </trkpt>
      <trkpt lat="45.0889" lon="5.84179">
        <ele>1296.48</ele>
        <time>2021-08-26T08:30:36Z</time>
      </trkpt>
      <trkpt lat="45.0889" lon="5.84161">
        <ele>1297.44</ele>
        <time>2021-08-26T08:30:49Z</time>
      </trkpt>
      <trkpt lat="45.08881" lon="5.84132">
        <ele>1297.92</ele>
        <time>2021-08-26T08:31:03Z</time>
      </trkpt>
      <trkpt lat="45.08879" lon="5.84121">
        <ele>1298.88</ele>
        <time>2021-08-26T08:31:16Z</time>
      </trkpt>
      <trkpt lat="45.08881" lon="5.84107">
        <ele>1299.84</ele>
        <time>2021-08-26T08:31:29Z</time>
      </trkpt>
      <trkpt lat="45.08884" lon="5.84095">
        <ele>1300.32</ele>
        <time>2021-08-26T08:31:40Z</time>
      </trkpt>
      <trkpt lat="45.08885" lon="5.8409">
        <ele>1300.8</ele>
        <time>2021-08-26T08:31:46Z</time>
      </trkpt>
      <trkpt lat="45.08892" lon="5.84077">
        <ele>1301.76</ele>
        <time>2021-08-26T08:32:00Z</time>
      </trkpt>
      <trkpt lat="45.08894" lon="5.84069">
        <ele>1302.72</ele>
        <time>2021-08-26T08:32:12Z</time>
      </trkpt>
      <trkpt lat="45.08903" lon="5.84057">
        <ele>1303.69</ele>
        <time>2021-08-26T08:32:26Z</time>
      </trkpt>
      <trkpt lat="45.0891" lon="5.84044">
        <ele>1304.17</ele>
        <time>2021-08-26T08:32:40Z</time>
      </trkpt>
      <trkpt lat="45.08913" lon="5.84035">
        <ele>1304.65</ele>
        <time>2021-08-26T08:32:48Z</time>
      </trkpt>
      <trkpt lat="45.08919" lon="5.84024">
        <ele>1305.61</ele>
        <time>2021-08-26T08:33:01Z</time>
      </trkpt>
      <trkpt lat="45.08922" lon="5.84019">
        <ele>1306.09</ele>
        <time>2021-08-26T08:33:06Z</time>
      </trkpt>
      <trkpt lat="45.08926" lon="5.84007">
        <ele>1306.57</ele>
        <time>2021-08-26T08:33:19Z</time>
      </trkpt>
      <trkpt lat="45.08933" lon="5.83999">
        <ele>1307.53</ele>
        <time>2021-08-26T08:33:32Z</time>
      </trkpt>
      <trkpt lat="45.08953" lon="5.83999">
        <ele>1308.01</ele>
        <time>2021-08-26T08:33:42Z</time>
      </trkpt>
      <trkpt lat="45.0896" lon="5.83991">
        <ele>1308.97</ele>
        <time>2021-08-26T08:33:50Z</time>
      </trkpt>
      <trkpt lat="45.08964" lon="5.83984">
        <ele>1310.41</ele>
        <time>2021-08-26T08:34:00Z</time>
      </trkpt>
      <trkpt lat="45.08974" lon="5.83976">
        <ele>1309.93</ele>
        <time>2021-08-26T08:34:14Z</time>
      </trkpt>
      <trkpt lat="45.08981" lon="5.83967">
        <ele>1311.38</ele>
        <time>2021-08-26T08:34:29Z</time>
      </trkpt>
      <trkpt lat="45.09001" lon="5.83966">
        <ele>1311.86</ele>
        <time>2021-08-26T08:34:40Z</time>
      </trkpt>
      <trkpt lat="45.09005" lon="5.83965">
        <ele>1316.66</ele>
        <time>2021-08-26T08:34:51Z</time>
      </trkpt>
      <trkpt lat="45.09005" lon="5.83965">
        <ele>1314.74</ele>
        <time>2021-08-26T08:34:52Z</time>
      </trkpt>
      <trkpt lat="45.09007" lon="5.83965">
        <ele>1313.3</ele>
        <time>2021-08-26T08:34:54Z</time>
      </trkpt>
      <trkpt lat="45.09016" lon="5.8396">
        <ele>1314.26</ele>
        <time>2021-08-26T08:35:08Z</time>
      </trkpt>
      <trkpt lat="45.09026" lon="5.83951">
        <ele>1310.9</ele>
        <time>2021-08-26T08:35:21Z</time>
      </trkpt>
      <trkpt lat="45.09027" lon="5.83951">
        <ele>1321.95</ele>
        <time>2021-08-26T08:35:22Z</time>
      </trkpt>
      <trkpt lat="45.09027" lon="5.8395">
        <ele>1296.96</ele>
        <time>2021-08-26T08:35:23Z</time>
      </trkpt>
      <trkpt lat="45.09028" lon="5.8395">
        <ele>1335.41</ele>
        <time>2021-08-26T08:35:24Z</time>
      </trkpt>
      <trkpt lat="45.09028" lon="5.8395">
        <ele>1318.59</ele>
        <time>2021-08-26T08:35:25Z</time>
      </trkpt>
      <trkpt lat="45.09028" lon="5.8395">
        <ele>1315.7</ele>
        <time>2021-08-26T08:35:26Z</time>
      </trkpt>
      <trkpt lat="45.09044" lon="5.83939">
        <ele>1316.66</ele>
        <time>2021-08-26T08:35:39Z</time>
      </trkpt>
      <trkpt lat="45.09051" lon="5.83933">
        <ele>1317.62</ele>
        <time>2021-08-26T08:35:52Z</time>
      </trkpt>
      <trkpt lat="45.09052" lon="5.83933">
        <ele>1308.01</ele>
        <time>2021-08-26T08:35:55Z</time>
      </trkpt>
      <trkpt lat="45.09052" lon="5.83932">
        <ele>1324.83</ele>
        <time>2021-08-26T08:35:56Z</time>
      </trkpt>
      <trkpt lat="45.09053" lon="5.83932">
        <ele>1318.1</ele>
        <time>2021-08-26T08:35:57Z</time>
      </trkpt>
      <trkpt lat="45.09063" lon="5.83922">
        <ele>1318.59</ele>
        <time>2021-08-26T08:36:09Z</time>
      </trkpt>
      <trkpt lat="45.09074" lon="5.83913">
        <ele>1319.55</ele>
        <time>2021-08-26T08:36:25Z</time>
      </trkpt>
      <trkpt lat="45.09081" lon="5.83908">
        <ele>1313.3</ele>
        <time>2021-08-26T08:36:34Z</time>
      </trkpt>
      <trkpt lat="45.09081" lon="5.83908">
        <ele>1325.8</ele>
        <time>2021-08-26T08:36:35Z</time>
      </trkpt>
      <trkpt lat="45.09081" lon="5.83907">
        <ele>1320.99</ele>
        <time>2021-08-26T08:36:36Z</time>
      </trkpt>
      <trkpt lat="45.09087" lon="5.83902">
        <ele>1321.95</ele>
        <time>2021-08-26T08:36:46Z</time>
      </trkpt>
      <trkpt lat="45.09097" lon="5.83896">
        <ele>1322.91</ele>
        <time>2021-08-26T08:36:58Z</time>
      </trkpt>
      <trkpt lat="45.09104" lon="5.8389">
        <ele>1311.38</ele>
        <time>2021-08-26T08:37:09Z</time>
      </trkpt>
      <trkpt lat="45.09105" lon="5.8389">
        <ele>1333.49</ele>
        <time>2021-08-26T08:37:10Z</time>
      </trkpt>
      <trkpt lat="45.09105" lon="5.8389">
        <ele>1324.35</ele>
        <time>2021-08-26T08:37:11Z</time>
      </trkpt>
      <trkpt lat="45.09117" lon="5.83881">
        <ele>1325.31</ele>
        <time>2021-08-26T08:37:26Z</time>
      </trkpt>
      <trkpt lat="45.09124" lon="5.83874">
        <ele>1326.28</ele>
        <time>2021-08-26T08:37:39Z</time>
      </trkpt>
      <trkpt lat="45.0913" lon="5.83866">
        <ele>1327.24</ele>
        <time>2021-08-26T08:37:46Z</time>
      </trkpt>
      <trkpt lat="45.09136" lon="5.83856">
        <ele>1317.14</ele>
        <time>2021-08-26T08:37:53Z</time>
      </trkpt>
      <trkpt lat="45.09137" lon="5.83853">
        <ele>1329.16</ele>
        <time>2021-08-26T08:37:55Z</time>
      </trkpt>
      <trkpt lat="45.09142" lon="5.83845">
        <ele>1329.16</ele>
        <time>2021-08-26T08:38:01Z</time>
      </trkpt>
      <trkpt lat="45.09144" lon="5.83835">
        <ele>1329.64</ele>
        <time>2021-08-26T08:38:11Z</time>
      </trkpt>
      <trkpt lat="45.09149" lon="5.83816">
        <ele>1321.95</ele>
        <time>2021-08-26T08:38:24Z</time>
      </trkpt>
      <trkpt lat="45.09148" lon="5.83815">
        <ele>1338.29</ele>
        <time>2021-08-26T08:38:25Z</time>
      </trkpt>
      <trkpt lat="45.09148" lon="5.83813">
        <ele>1331.56</ele>
        <time>2021-08-26T08:38:26Z</time>
      </trkpt>
      <trkpt lat="45.09148" lon="5.83796">
        <ele>1333.01</ele>
        <time>2021-08-26T08:38:40Z</time>
      </trkpt>
      <trkpt lat="45.09149" lon="5.83792">
        <ele>1328.2</ele>
        <time>2021-08-26T08:38:44Z</time>
      </trkpt>
      <trkpt lat="45.09149" lon="5.83791">
        <ele>1333.01</ele>
        <time>2021-08-26T08:38:45Z</time>
      </trkpt>
      <trkpt lat="45.09148" lon="5.83776">
        <ele>1333.97</ele>
        <time>2021-08-26T08:38:57Z</time>
      </trkpt>
      <trkpt lat="45.09149" lon="5.83771">
        <ele>1333.97</ele>
        <time>2021-08-26T08:39:00Z</time>
      </trkpt>
      <trkpt lat="45.09149" lon="5.83753">
        <ele>1335.41</ele>
        <time>2021-08-26T08:39:13Z</time>
      </trkpt>
      <trkpt lat="45.09149" lon="5.8374">
        <ele>1336.85</ele>
        <time>2021-08-26T08:39:26Z</time>
      </trkpt>
      <trkpt lat="45.09146" lon="5.8374">
        <ele>1330.12</ele>
        <time>2021-08-26T08:39:28Z</time>
      </trkpt>
      <trkpt lat="45.09146" lon="5.83739">
        <ele>1345.98</ele>
        <time>2021-08-26T08:39:29Z</time>
      </trkpt>
      <trkpt lat="45.09145" lon="5.8374">
        <ele>1338.77</ele>
        <time>2021-08-26T08:39:30Z</time>
      </trkpt>
      <trkpt lat="45.09144" lon="5.83739">
        <ele>1336.85</ele>
        <time>2021-08-26T08:39:32Z</time>
      </trkpt>
      <trkpt lat="45.09147" lon="5.83741">
        <ele>1336.85</ele>
        <time>2021-08-26T08:39:46Z</time>
      </trkpt>
      <trkpt lat="45.09148" lon="5.83738">
        <ele>1336.85</ele>
        <time>2021-08-26T08:40:05Z</time>
      </trkpt>
      <trkpt lat="45.09149" lon="5.83739">
        <ele>1336.85</ele>
        <time>2021-08-26T08:40:19Z</time>
      </trkpt>
      <trkpt lat="45.09149" lon="5.83738">
        <ele>1336.85</ele>
        <time>2021-08-26T08:40:42Z</time>
      </trkpt>
      <trkpt lat="45.09148" lon="5.8374">
        <ele>1336.85</ele>
        <time>2021-08-26T08:41:13Z</time>
      </trkpt>
      <trkpt lat="45.09147" lon="5.83739">
        <ele>1337.33</ele>
        <time>2021-08-26T08:41:40Z</time>
      </trkpt>
      <trkpt lat="45.09148" lon="5.8374">
        <ele>1337.33</ele>
        <time>2021-08-26T08:42:08Z</time>
      </trkpt>
      <trkpt lat="45.09146" lon="5.83738">
        <ele>1337.81</ele>
        <time>2021-08-26T08:42:32Z</time>
      </trkpt>
      <trkpt lat="45.09145" lon="5.83738">
        <ele>1337.81</ele>
        <time>2021-08-26T08:42:56Z</time>
      </trkpt>
      <trkpt lat="45.09145" lon="5.83737">
        <ele>1338.29</ele>
        <time>2021-08-26T08:43:18Z</time>
      </trkpt>
      <trkpt lat="45.09144" lon="5.83736">
        <ele>1338.29</ele>
        <time>2021-08-26T08:43:34Z</time>
      </trkpt>
      <trkpt lat="45.09144" lon="5.83736">
        <ele>1338.77</ele>
        <time>2021-08-26T08:43:53Z</time>
      </trkpt>
      <trkpt lat="45.09142" lon="5.83732">
        <ele>1339.25</ele>
        <time>2021-08-26T08:44:08Z</time>
      </trkpt>
      <trkpt lat="45.09141" lon="5.83727">
        <ele>1340.7</ele>
        <time>2021-08-26T08:44:19Z</time>
      </trkpt>
      <trkpt lat="45.09136" lon="5.83721">
        <ele>1341.66</ele>
        <time>2021-08-26T08:44:29Z</time>
      </trkpt>
      <trkpt lat="45.09135" lon="5.83721">
        <ele>1343.1</ele>
        <time>2021-08-26T08:44:42Z</time>
      </trkpt>
      <trkpt lat="45.09134" lon="5.83718">
        <ele>1345.02</ele>
        <time>2021-08-26T08:44:58Z</time>
      </trkpt>
      <trkpt lat="45.09133" lon="5.83718">
        <ele>1347.43</ele>
        <time>2021-08-26T08:45:16Z</time>
      </trkpt>
      <trkpt lat="45.09133" lon="5.83718">
        <ele>1349.83</ele>
        <time>2021-08-26T08:45:33Z</time>
      </trkpt>
      <trkpt lat="45.09132" lon="5.83717">
        <ele>1351.75</ele>
        <time>2021-08-26T08:45:51Z</time>
      </trkpt>
      <trkpt lat="45.09127" lon="5.83714">
        <ele>1353.19</ele>
        <time>2021-08-26T08:46:05Z</time>
      </trkpt>
      <trkpt lat="45.09116" lon="5.83694">
        <ele>1355.12</ele>
        <time>2021-08-26T08:46:23Z</time>
      </trkpt>
      <trkpt lat="45.09104" lon="5.83689">
        <ele>1356.08</ele>
        <time>2021-08-26T08:46:37Z</time>
      </trkpt>
      <trkpt lat="45.09084" lon="5.8367">
        <ele>1356.56</ele>
        <time>2021-08-26T08:46:42Z</time>
      </trkpt>
      <trkpt lat="45.09069" lon="5.83655">
        <ele>1357.52</ele>
        <time>2021-08-26T08:46:53Z</time>
      </trkpt>
      <trkpt lat="45.09066" lon="5.8365">
        <ele>1358.48</ele>
        <time>2021-08-26T08:47:07Z</time>
      </trkpt>
      <trkpt lat="45.09058" lon="5.83641">
        <ele>1359.92</ele>
        <time>2021-08-26T08:47:19Z</time>
      </trkpt>
      <trkpt lat="45.09043" lon="5.83628">
        <ele>1361.84</ele>
        <time>2021-08-26T08:47:33Z</time>
      </trkpt>
      <trkpt lat="45.09037" lon="5.8362">
        <ele>1363.77</ele>
        <time>2021-08-26T08:47:48Z</time>
      </trkpt>
      <trkpt lat="45.0903" lon="5.83608">
        <ele>1364.73</ele>
        <time>2021-08-26T08:48:00Z</time>
      </trkpt>
      <trkpt lat="45.09024" lon="5.83606">
        <ele>1365.69</ele>
        <time>2021-08-26T08:48:14Z</time>
      </trkpt>
      <trkpt lat="45.09013" lon="5.83596">
        <ele>1367.13</ele>
        <time>2021-08-26T08:48:27Z</time>
      </trkpt>
      <trkpt lat="45.09007" lon="5.83591">
        <ele>1369.05</ele>
        <time>2021-08-26T08:48:44Z</time>
      </trkpt>
      <trkpt lat="45.09003" lon="5.83582">
        <ele>1370.5</ele>
        <time>2021-08-26T08:49:01Z</time>
      </trkpt>
      <trkpt lat="45.08998" lon="5.83575">
        <ele>1371.46</ele>
        <time>2021-08-26T08:49:14Z</time>
      </trkpt>
      <trkpt lat="45.0899" lon="5.83564">
        <ele>1372.9</ele>
        <time>2021-08-26T08:49:25Z</time>
      </trkpt>
      <trkpt lat="45.08983" lon="5.83558">
        <ele>1374.34</ele>
        <time>2021-08-26T08:49:39Z</time>
      </trkpt>
      <trkpt lat="45.08978" lon="5.83546">
        <ele>1374.82</ele>
        <time>2021-08-26T08:49:52Z</time>
      </trkpt>
      <trkpt lat="45.08976" lon="5.83535">
        <ele>1375.78</ele>
        <time>2021-08-26T08:50:04Z</time>
      </trkpt>
      <trkpt lat="45.08967" lon="5.83522">
        <ele>1377.71</ele>
        <time>2021-08-26T08:50:19Z</time>
      </trkpt>
      <trkpt lat="45.08965" lon="5.83517">
        <ele>1379.63</ele>
        <time>2021-08-26T08:50:33Z</time>
      </trkpt>
      <trkpt lat="45.08954" lon="5.83508">
        <ele>1381.55</ele>
        <time>2021-08-26T08:50:50Z</time>
      </trkpt>
      <trkpt lat="45.08948" lon="5.83504">
        <ele>1382.99</ele>
        <time>2021-08-26T08:51:05Z</time>
      </trkpt>
      <trkpt lat="45.08945" lon="5.83504">
        <ele>1383.96</ele>
        <time>2021-08-26T08:51:17Z</time>
      </trkpt>
      <trkpt lat="45.08943" lon="5.83501">
        <ele>1384.92</ele>
        <time>2021-08-26T08:51:29Z</time>
      </trkpt>
      <trkpt lat="45.0894" lon="5.835">
        <ele>1386.36</ele>
        <time>2021-08-26T08:51:36Z</time>
      </trkpt>
      <trkpt lat="45.08924" lon="5.83478">
        <ele>1386.84</ele>
        <time>2021-08-26T08:51:54Z</time>
      </trkpt>
      <trkpt lat="45.08917" lon="5.8347">
        <ele>1388.28</ele>
        <time>2021-08-26T08:52:09Z</time>
      </trkpt>
      <trkpt lat="45.08904" lon="5.83463">
        <ele>1390.2</ele>
        <time>2021-08-26T08:52:25Z</time>
      </trkpt>
      <trkpt lat="45.08903" lon="5.83463">
        <ele>1384.44</ele>
        <time>2021-08-26T08:52:26Z</time>
      </trkpt>
      <trkpt lat="45.08903" lon="5.83463">
        <ele>1396.93</ele>
        <time>2021-08-26T08:52:27Z</time>
      </trkpt>
      <trkpt lat="45.08903" lon="5.83463">
        <ele>1390.68</ele>
        <time>2021-08-26T08:52:28Z</time>
      </trkpt>
      <trkpt lat="45.08892" lon="5.83461">
        <ele>1392.13</ele>
        <time>2021-08-26T08:52:42Z</time>
      </trkpt>
      <trkpt lat="45.08881" lon="5.83461">
        <ele>1393.09</ele>
        <time>2021-08-26T08:52:56Z</time>
      </trkpt>
      <trkpt lat="45.08881" lon="5.83459">
        <ele>1392.13</ele>
        <time>2021-08-26T08:53:08Z</time>
      </trkpt>
      <trkpt lat="45.08881" lon="5.83456">
        <ele>1392.61</ele>
        <time>2021-08-26T08:53:32Z</time>
      </trkpt>
      <trkpt lat="45.08877" lon="5.83457">
        <ele>1393.09</ele>
        <time>2021-08-26T08:54:06Z</time>
      </trkpt>
      <trkpt lat="45.08877" lon="5.83457">
        <ele>1393.57</ele>
        <time>2021-08-26T08:54:35Z</time>
      </trkpt>
      <trkpt lat="45.08875" lon="5.83457">
        <ele>1394.05</ele>
        <time>2021-08-26T08:55:05Z</time>
      </trkpt>
      <trkpt lat="45.08877" lon="5.8346">
        <ele>1395.49</ele>
        <time>2021-08-26T08:55:15Z</time>
      </trkpt>
      <trkpt lat="45.08874" lon="5.83461">
        <ele>1395.01</ele>
        <time>2021-08-26T08:55:32Z</time>
      </trkpt>
      <trkpt lat="45.08872" lon="5.83461">
        <ele>1396.93</ele>
        <time>2021-08-26T08:55:47Z</time>
      </trkpt>
      <trkpt lat="45.08868" lon="5.83461">
        <ele>1399.34</ele>
        <time>2021-08-26T08:56:00Z</time>
      </trkpt>
      <trkpt lat="45.08856" lon="5.83462">
        <ele>1401.74</ele>
        <time>2021-08-26T08:56:15Z</time>
      </trkpt>
      <trkpt lat="45.08848" lon="5.83459">
        <ele>1403.66</ele>
        <time>2021-08-26T08:56:28Z</time>
      </trkpt>
      <trkpt lat="45.08844" lon="5.83457">
        <ele>1404.62</ele>
        <time>2021-08-26T08:56:33Z</time>
      </trkpt>
      <trkpt lat="45.08835" lon="5.83452">
        <ele>1406.55</ele>
        <time>2021-08-26T08:56:45Z</time>
      </trkpt>
      <trkpt lat="45.08828" lon="5.83449">
        <ele>1407.99</ele>
        <time>2021-08-26T08:56:55Z</time>
      </trkpt>
      <trkpt lat="45.08813" lon="5.83441">
        <ele>1410.87</ele>
        <time>2021-08-26T08:57:09Z</time>
      </trkpt>
      <trkpt lat="45.08797" lon="5.83427">
        <ele>1412.79</ele>
        <time>2021-08-26T08:57:23Z</time>
      </trkpt>
      <trkpt lat="45.08783" lon="5.83423">
        <ele>1415.2</ele>
        <time>2021-08-26T08:57:35Z</time>
      </trkpt>
      <trkpt lat="45.08771" lon="5.83419">
        <ele>1417.6</ele>
        <time>2021-08-26T08:57:48Z</time>
      </trkpt>
      <trkpt lat="45.08762" lon="5.83415">
        <ele>1420</ele>
        <time>2021-08-26T08:58:02Z</time>
      </trkpt>
      <trkpt lat="45.0875" lon="5.83414">
        <ele>1421.93</ele>
        <time>2021-08-26T08:58:15Z</time>
      </trkpt>
      <trkpt lat="45.08735" lon="5.83414">
        <ele>1424.81</ele>
        <time>2021-08-26T08:58:31Z</time>
      </trkpt>
      <trkpt lat="45.08724" lon="5.83414">
        <ele>1427.7</ele>
        <time>2021-08-26T08:58:46Z</time>
      </trkpt>
      <trkpt lat="45.08709" lon="5.83419">
        <ele>1430.1</ele>
        <time>2021-08-26T08:58:59Z</time>
      </trkpt>
      <trkpt lat="45.08702" lon="5.83418">
        <ele>1432.98</ele>
        <time>2021-08-26T08:59:13Z</time>
      </trkpt>
      <trkpt lat="45.08697" lon="5.83416">
        <ele>1436.83</ele>
        <time>2021-08-26T08:59:20Z</time>
      </trkpt>
      <trkpt lat="45.08697" lon="5.83417">
        <ele>1435.39</ele>
        <time>2021-08-26T08:59:21Z</time>
      </trkpt>
      <trkpt lat="45.08695" lon="5.83418">
        <ele>1433.94</ele>
        <time>2021-08-26T08:59:23Z</time>
      </trkpt>
      <trkpt lat="45.08687" lon="5.83424">
        <ele>1435.39</ele>
        <time>2021-08-26T08:59:36Z</time>
      </trkpt>
      <trkpt lat="45.08685" lon="5.83425">
        <ele>1435.87</ele>
        <time>2021-08-26T08:59:42Z</time>
      </trkpt>
      <trkpt lat="45.08675" lon="5.83433">
        <ele>1438.75</ele>
        <time>2021-08-26T08:59:58Z</time>
      </trkpt>
      <trkpt lat="45.08673" lon="5.83435">
        <ele>1432.98</ele>
        <time>2021-08-26T09:00:01Z</time>
      </trkpt>
      <trkpt lat="45.08673" lon="5.83435">
        <ele>1447.4</ele>
        <time>2021-08-26T09:00:02Z</time>
      </trkpt>
      <trkpt lat="45.08673" lon="5.83435">
        <ele>1440.67</ele>
        <time>2021-08-26T09:00:03Z</time>
      </trkpt>
      <trkpt lat="45.08671" lon="5.83436">
        <ele>1439.71</ele>
        <time>2021-08-26T09:00:05Z</time>
      </trkpt>
      <trkpt lat="45.08661" lon="5.83444">
        <ele>1442.11</ele>
        <time>2021-08-26T09:00:19Z</time>
      </trkpt>
      <trkpt lat="45.08648" lon="5.83455">
        <ele>1451.25</ele>
        <time>2021-08-26T09:00:33Z</time>
      </trkpt>
      <trkpt lat="45.08648" lon="5.83455">
        <ele>1445.48</ele>
        <time>2021-08-26T09:00:34Z</time>
      </trkpt>
      <trkpt lat="45.08647" lon="5.83456">
        <ele>1444.52</ele>
        <time>2021-08-26T09:00:36Z</time>
      </trkpt>
      <trkpt lat="45.0864" lon="5.83464">
        <ele>1446.92</ele>
        <time>2021-08-26T09:00:52Z</time>
      </trkpt>
      <trkpt lat="45.08635" lon="5.83466">
        <ele>1448.36</ele>
        <time>2021-08-26T09:01:09Z</time>
      </trkpt>
      <trkpt lat="45.08631" lon="5.8347">
        <ele>1449.81</ele>
        <time>2021-08-26T09:01:22Z</time>
      </trkpt>
      <trkpt lat="45.0863" lon="5.8347">
        <ele>1444.52</ele>
        <time>2021-08-26T09:01:27Z</time>
      </trkpt>
      <trkpt lat="45.0863" lon="5.8347">
        <ele>1454.13</ele>
        <time>2021-08-26T09:01:28Z</time>
      </trkpt>
      <trkpt lat="45.0863" lon="5.8347">
        <ele>1450.29</ele>
        <time>2021-08-26T09:01:29Z</time>
      </trkpt>
      <trkpt lat="45.08619" lon="5.83477">
        <ele>1452.21</ele>
        <time>2021-08-26T09:01:44Z</time>
      </trkpt>
      <trkpt lat="45.08613" lon="5.83485">
        <ele>1453.17</ele>
        <time>2021-08-26T09:01:59Z</time>
      </trkpt>
      <trkpt lat="45.08607" lon="5.83488">
        <ele>1455.57</ele>
        <time>2021-08-26T09:02:08Z</time>
      </trkpt>
      <trkpt lat="45.08605" lon="5.83489">
        <ele>1454.61</ele>
        <time>2021-08-26T09:02:10Z</time>
      </trkpt>
      <trkpt lat="45.08594" lon="5.83493">
        <ele>1455.57</ele>
        <time>2021-08-26T09:02:22Z</time>
      </trkpt>
      <trkpt lat="45.08578" lon="5.83497">
        <ele>1456.53</ele>
        <time>2021-08-26T09:02:39Z</time>
      </trkpt>
      <trkpt lat="45.08567" lon="5.83499">
        <ele>1457.5</ele>
        <time>2021-08-26T09:02:58Z</time>
      </trkpt>
      <trkpt lat="45.08559" lon="5.83502">
        <ele>1462.3</ele>
        <time>2021-08-26T09:03:07Z</time>
      </trkpt>
      <trkpt lat="45.08558" lon="5.83502">
        <ele>1459.9</ele>
        <time>2021-08-26T09:03:08Z</time>
      </trkpt>
      <trkpt lat="45.08557" lon="5.83503">
        <ele>1458.46</ele>
        <time>2021-08-26T09:03:10Z</time>
      </trkpt>
      <trkpt lat="45.08546" lon="5.83506">
        <ele>1458.94</ele>
        <time>2021-08-26T09:03:27Z</time>
      </trkpt>
      <trkpt lat="45.08535" lon="5.83509">
        <ele>1459.42</ele>
        <time>2021-08-26T09:03:42Z</time>
      </trkpt>
      <trkpt lat="45.08526" lon="5.83511">
        <ele>1461.34</ele>
        <time>2021-08-26T09:03:54Z</time>
      </trkpt>
      <trkpt lat="45.08525" lon="5.83512">
        <ele>1459.9</ele>
        <time>2021-08-26T09:03:56Z</time>
      </trkpt>
      <trkpt lat="45.08515" lon="5.83517">
        <ele>1459.9</ele>
        <time>2021-08-26T09:04:11Z</time>
      </trkpt>
      <trkpt lat="45.08507" lon="5.83523">
        <ele>1460.86</ele>
        <time>2021-08-26T09:04:27Z</time>
      </trkpt>
      <trkpt lat="45.08501" lon="5.83517">
        <ele>1461.34</ele>
        <time>2021-08-26T09:04:51Z</time>
      </trkpt>
      <trkpt lat="45.08499" lon="5.83518">
        <ele>1460.86</ele>
        <time>2021-08-26T09:05:16Z</time>
      </trkpt>
      <trkpt lat="45.08498" lon="5.8352">
        <ele>1461.34</ele>
        <time>2021-08-26T09:05:48Z</time>
      </trkpt>
      <trkpt lat="45.085" lon="5.83521">
        <ele>1461.34</ele>
        <time>2021-08-26T09:06:14Z</time>
      </trkpt>
      <trkpt lat="45.08499" lon="5.83523">
        <ele>1461.82</ele>
        <time>2021-08-26T09:06:35Z</time>
      </trkpt>
      <trkpt lat="45.08506" lon="5.83528">
        <ele>1464.23</ele>
        <time>2021-08-26T09:06:50Z</time>
      </trkpt>
      <trkpt lat="45.08515" lon="5.83528">
        <ele>1466.63</ele>
        <time>2021-08-26T09:07:08Z</time>
      </trkpt>
      <trkpt lat="45.08517" lon="5.83528">
        <ele>1467.11</ele>
        <time>2021-08-26T09:07:12Z</time>
      </trkpt>
      <trkpt lat="45.08523" lon="5.83525">
        <ele>1468.07</ele>
        <time>2021-08-26T09:07:23Z</time>
      </trkpt>
      <trkpt lat="45.08528" lon="5.83529">
        <ele>1469.99</ele>
        <time>2021-08-26T09:07:39Z</time>
      </trkpt>
      <trkpt lat="45.08532" lon="5.8353">
        <ele>1471.92</ele>
        <time>2021-08-26T09:07:56Z</time>
      </trkpt>
      <trkpt lat="45.08536" lon="5.83535">
        <ele>1472.88</ele>
        <time>2021-08-26T09:08:10Z</time>
      </trkpt>
      <trkpt lat="45.0855" lon="5.83542">
        <ele>1474.32</ele>
        <time>2021-08-26T09:08:24Z</time>
      </trkpt>
      <trkpt lat="45.0856" lon="5.83547">
        <ele>1475.76</ele>
        <time>2021-08-26T09:08:39Z</time>
      </trkpt>
      <trkpt lat="45.08572" lon="5.83553">
        <ele>1477.68</ele>
        <time>2021-08-26T09:08:52Z</time>
      </trkpt>
      <trkpt lat="45.08583" lon="5.83559">
        <ele>1478.65</ele>
        <time>2021-08-26T09:09:05Z</time>
      </trkpt>
      <trkpt lat="45.08594" lon="5.83565">
        <ele>1480.09</ele>
        <time>2021-08-26T09:09:18Z</time>
      </trkpt>
      <trkpt lat="45.08602" lon="5.83571">
        <ele>1482.01</ele>
        <time>2021-08-26T09:09:33Z</time>
      </trkpt>
      <trkpt lat="45.08607" lon="5.83574">
        <ele>1482.49</ele>
        <time>2021-08-26T09:09:47Z</time>
      </trkpt>
      <trkpt lat="45.08611" lon="5.83575">
        <ele>1483.45</ele>
        <time>2021-08-26T09:10:01Z</time>
      </trkpt>
      <trkpt lat="45.08616" lon="5.83575">
        <ele>1483.93</ele>
        <time>2021-08-26T09:10:13Z</time>
      </trkpt>
      <trkpt lat="45.08617" lon="5.83575">
        <ele>1482.49</ele>
        <time>2021-08-26T09:10:22Z</time>
      </trkpt>
      <trkpt lat="45.08617" lon="5.83575">
        <ele>1486.34</ele>
        <time>2021-08-26T09:10:23Z</time>
      </trkpt>
      <trkpt lat="45.08617" lon="5.83575">
        <ele>1484.89</ele>
        <time>2021-08-26T09:10:24Z</time>
      </trkpt>
      <trkpt lat="45.08617" lon="5.83575">
        <ele>1475.28</ele>
        <time>2021-08-26T09:10:26Z</time>
      </trkpt>
      <trkpt lat="45.08617" lon="5.83575">
        <ele>1495.47</ele>
        <time>2021-08-26T09:10:27Z</time>
      </trkpt>
      <trkpt lat="45.08617" lon="5.83575">
        <ele>1486.34</ele>
        <time>2021-08-26T09:10:28Z</time>
      </trkpt>
      <trkpt lat="45.08622" lon="5.83578">
        <ele>1486.34</ele>
        <time>2021-08-26T09:10:40Z</time>
      </trkpt>
      <trkpt lat="45.0863" lon="5.83577">
        <ele>1487.78</ele>
        <time>2021-08-26T09:10:54Z</time>
      </trkpt>
      <trkpt lat="45.08645" lon="5.83579">
        <ele>1488.26</ele>
        <time>2021-08-26T09:11:07Z</time>
      </trkpt>
      <trkpt lat="45.08656" lon="5.83577">
        <ele>1490.18</ele>
        <time>2021-08-26T09:11:24Z</time>
      </trkpt>
      <trkpt lat="45.08678" lon="5.83581">
        <ele>1491.62</ele>
        <time>2021-08-26T09:11:41Z</time>
      </trkpt>
      <trkpt lat="45.08681" lon="5.83583">
        <ele>1481.05</ele>
        <time>2021-08-26T09:11:45Z</time>
      </trkpt>
      <trkpt lat="45.08682" lon="5.83583">
        <ele>1503.64</ele>
        <time>2021-08-26T09:11:46Z</time>
      </trkpt>
      <trkpt lat="45.08682" lon="5.83583">
        <ele>1493.55</ele>
        <time>2021-08-26T09:11:47Z</time>
      </trkpt>
      <trkpt lat="45.08684" lon="5.83585">
        <ele>1492.58</ele>
        <time>2021-08-26T09:11:49Z</time>
      </trkpt>
      <trkpt lat="45.08693" lon="5.83595">
        <ele>1495.47</ele>
        <time>2021-08-26T09:12:07Z</time>
      </trkpt>
      <trkpt lat="45.08702" lon="5.83602">
        <ele>1496.91</ele>
        <time>2021-08-26T09:12:24Z</time>
      </trkpt>
      <trkpt lat="45.08705" lon="5.83605">
        <ele>1498.35</ele>
        <time>2021-08-26T09:12:42Z</time>
      </trkpt>
      <trkpt lat="45.08708" lon="5.83608">
        <ele>1489.22</ele>
        <time>2021-08-26T09:12:46Z</time>
      </trkpt>
      <trkpt lat="45.08709" lon="5.83608">
        <ele>1508.45</ele>
        <time>2021-08-26T09:12:47Z</time>
      </trkpt>
      <trkpt lat="45.08709" lon="5.83608">
        <ele>1486.34</ele>
        <time>2021-08-26T09:12:48Z</time>
      </trkpt>
      <trkpt lat="45.08709" lon="5.83608">
        <ele>1511.33</ele>
        <time>2021-08-26T09:12:49Z</time>
      </trkpt>
      <trkpt lat="45.0871" lon="5.8361">
        <ele>1500.76</ele>
        <time>2021-08-26T09:12:50Z</time>
      </trkpt>
      <trkpt lat="45.08711" lon="5.83613">
        <ele>1499.31</ele>
        <time>2021-08-26T09:12:52Z</time>
      </trkpt>
      <trkpt lat="45.08719" lon="5.83623">
        <ele>1494.03</ele>
        <time>2021-08-26T09:13:04Z</time>
      </trkpt>
      <trkpt lat="45.08721" lon="5.83624">
        <ele>1506.04</ele>
        <time>2021-08-26T09:13:05Z</time>
      </trkpt>
      <trkpt lat="45.08721" lon="5.83624">
        <ele>1503.64</ele>
        <time>2021-08-26T09:13:06Z</time>
      </trkpt>
      <trkpt lat="45.08721" lon="5.83626">
        <ele>1500.76</ele>
        <time>2021-08-26T09:13:08Z</time>
      </trkpt>
      <trkpt lat="45.08726" lon="5.8363">
        <ele>1502.68</ele>
        <time>2021-08-26T09:13:24Z</time>
      </trkpt>
      <trkpt lat="45.08734" lon="5.83637">
        <ele>1504.6</ele>
        <time>2021-08-26T09:13:42Z</time>
      </trkpt>
      <trkpt lat="45.08738" lon="5.83644">
        <ele>1506.52</ele>
        <time>2021-08-26T09:14:01Z</time>
      </trkpt>
      <trkpt lat="45.0875" lon="5.83659">
        <ele>1508.45</ele>
        <time>2021-08-26T09:14:18Z</time>
      </trkpt>
      <trkpt lat="45.08756" lon="5.83668">
        <ele>1509.89</ele>
        <time>2021-08-26T09:14:30Z</time>
      </trkpt>
      <trkpt lat="45.08764" lon="5.83675">
        <ele>1511.33</ele>
        <time>2021-08-26T09:14:46Z</time>
      </trkpt>
      <trkpt lat="45.08775" lon="5.83686">
        <ele>1513.25</ele>
        <time>2021-08-26T09:15:02Z</time>
      </trkpt>
      <trkpt lat="45.08781" lon="5.837">
        <ele>1514.69</ele>
        <time>2021-08-26T09:15:16Z</time>
      </trkpt>
      <trkpt lat="45.08787" lon="5.83707">
        <ele>1516.14</ele>
        <time>2021-08-26T09:15:29Z</time>
      </trkpt>
      <trkpt lat="45.08792" lon="5.83717">
        <ele>1517.58</ele>
        <time>2021-08-26T09:15:43Z</time>
      </trkpt>
      <trkpt lat="45.08793" lon="5.83723">
        <ele>1519.02</ele>
        <time>2021-08-26T09:15:57Z</time>
      </trkpt>
      <trkpt lat="45.08793" lon="5.83725">
        <ele>1519.98</ele>
        <time>2021-08-26T09:16:10Z</time>
      </trkpt>
      <trkpt lat="45.08793" lon="5.83729">
        <ele>1521.9</ele>
        <time>2021-08-26T09:16:25Z</time>
      </trkpt>
      <trkpt lat="45.08793" lon="5.8373">
        <ele>1522.39</ele>
        <time>2021-08-26T09:16:31Z</time>
      </trkpt>
      <trkpt lat="45.0879" lon="5.83739">
        <ele>1517.58</ele>
        <time>2021-08-26T09:16:43Z</time>
      </trkpt>
      <trkpt lat="45.0879" lon="5.8374">
        <ele>1528.15</ele>
        <time>2021-08-26T09:16:44Z</time>
      </trkpt>
      <trkpt lat="45.0879" lon="5.8374">
        <ele>1520.46</ele>
        <time>2021-08-26T09:16:45Z</time>
      </trkpt>
      <trkpt lat="45.08789" lon="5.8374">
        <ele>1513.25</ele>
        <time>2021-08-26T09:16:47Z</time>
      </trkpt>
      <trkpt lat="45.08788" lon="5.83741">
        <ele>1541.61</ele>
        <time>2021-08-26T09:16:48Z</time>
      </trkpt>
      <trkpt lat="45.08788" lon="5.83741">
        <ele>1510.85</ele>
        <time>2021-08-26T09:16:49Z</time>
      </trkpt>
      <trkpt lat="45.08788" lon="5.83742">
        <ele>1538.25</ele>
        <time>2021-08-26T09:16:50Z</time>
      </trkpt>
      <trkpt lat="45.08788" lon="5.83742">
        <ele>1519.98</ele>
        <time>2021-08-26T09:16:51Z</time>
      </trkpt>
      <trkpt lat="45.08788" lon="5.83742">
        <ele>1524.79</ele>
        <time>2021-08-26T09:16:52Z</time>
      </trkpt>
      <trkpt lat="45.08788" lon="5.83742">
        <ele>1530.08</ele>
        <time>2021-08-26T09:16:53Z</time>
      </trkpt>
      <trkpt lat="45.08787" lon="5.83742">
        <ele>1525.27</ele>
        <time>2021-08-26T09:16:54Z</time>
      </trkpt>
      <trkpt lat="45.08784" lon="5.83746">
        <ele>1514.69</ele>
        <time>2021-08-26T09:16:59Z</time>
      </trkpt>
      <trkpt lat="45.08784" lon="5.83747">
        <ele>1532.96</ele>
        <time>2021-08-26T09:17:00Z</time>
      </trkpt>
      <trkpt lat="45.08784" lon="5.83747">
        <ele>1516.62</ele>
        <time>2021-08-26T09:17:01Z</time>
      </trkpt>
      <trkpt lat="45.08784" lon="5.83747">
        <ele>1533.44</ele>
        <time>2021-08-26T09:17:02Z</time>
      </trkpt>
      <trkpt lat="45.08783" lon="5.83748">
        <ele>1525.75</ele>
        <time>2021-08-26T09:17:03Z</time>
      </trkpt>
      <trkpt lat="45.08782" lon="5.83749">
        <ele>1525.27</ele>
        <time>2021-08-26T09:17:05Z</time>
      </trkpt>
      <trkpt lat="45.08782" lon="5.83749">
        <ele>1504.6</ele>
        <time>2021-08-26T09:17:06Z</time>
      </trkpt>
      <trkpt lat="45.08781" lon="5.83749">
        <ele>1542.09</ele>
        <time>2021-08-26T09:17:07Z</time>
      </trkpt>
      <trkpt lat="45.0878" lon="5.8375">
        <ele>1527.19</ele>
        <time>2021-08-26T09:17:08Z</time>
      </trkpt>
      <trkpt lat="45.0878" lon="5.83751">
        <ele>1525.75</ele>
        <time>2021-08-26T09:17:10Z</time>
      </trkpt>
      <trkpt lat="45.08776" lon="5.83757">
        <ele>1514.69</ele>
        <time>2021-08-26T09:17:19Z</time>
      </trkpt>
      <trkpt lat="45.08776" lon="5.83758">
        <ele>1535.84</ele>
        <time>2021-08-26T09:17:20Z</time>
      </trkpt>
      <trkpt lat="45.08776" lon="5.83758">
        <ele>1527.19</ele>
        <time>2021-08-26T09:17:21Z</time>
      </trkpt>
      <trkpt lat="45.0877" lon="5.83769">
        <ele>1527.67</ele>
        <time>2021-08-26T09:17:35Z</time>
      </trkpt>
      <trkpt lat="45.08762" lon="5.83777">
        <ele>1528.63</ele>
        <time>2021-08-26T09:17:48Z</time>
      </trkpt>
      <trkpt lat="45.08759" lon="5.83781">
        <ele>1522.39</ele>
        <time>2021-08-26T09:17:54Z</time>
      </trkpt>
      <trkpt lat="45.08758" lon="5.83781">
        <ele>1533.44</ele>
        <time>2021-08-26T09:17:55Z</time>
      </trkpt>
      <trkpt lat="45.08757" lon="5.83782">
        <ele>1529.11</ele>
        <time>2021-08-26T09:17:56Z</time>
      </trkpt>
      <trkpt lat="45.08747" lon="5.83793">
        <ele>1530.08</ele>
        <time>2021-08-26T09:18:11Z</time>
      </trkpt>
      <trkpt lat="45.08746" lon="5.83793">
        <ele>1530.08</ele>
        <time>2021-08-26T09:18:12Z</time>
      </trkpt>
      <trkpt lat="45.08737" lon="5.83806">
        <ele>1520.46</ele>
        <time>2021-08-26T09:18:24Z</time>
      </trkpt>
      <trkpt lat="45.08736" lon="5.83807">
        <ele>1538.25</ele>
        <time>2021-08-26T09:18:25Z</time>
      </trkpt>
      <trkpt lat="45.08736" lon="5.83807">
        <ele>1531.52</ele>
        <time>2021-08-26T09:18:26Z</time>
      </trkpt>
      <trkpt lat="45.08734" lon="5.8381">
        <ele>1520.94</ele>
        <time>2021-08-26T09:18:32Z</time>
      </trkpt>
      <trkpt lat="45.08734" lon="5.8381">
        <ele>1540.17</ele>
        <time>2021-08-26T09:18:33Z</time>
      </trkpt>
      <trkpt lat="45.08734" lon="5.8381">
        <ele>1510.37</ele>
        <time>2021-08-26T09:18:34Z</time>
      </trkpt>
      <trkpt lat="45.08734" lon="5.8381">
        <ele>1549.3</ele>
        <time>2021-08-26T09:18:35Z</time>
      </trkpt>
      <trkpt lat="45.08734" lon="5.8381">
        <ele>1532</ele>
        <time>2021-08-26T09:18:36Z</time>
      </trkpt>
      <trkpt lat="45.08734" lon="5.83811">
        <ele>1530.56</ele>
        <time>2021-08-26T09:18:38Z</time>
      </trkpt>
      <trkpt lat="45.08728" lon="5.83819">
        <ele>1530.56</ele>
        <time>2021-08-26T09:18:52Z</time>
      </trkpt>
      <trkpt lat="45.08722" lon="5.83825">
        <ele>1530.56</ele>
        <time>2021-08-26T09:18:59Z</time>
      </trkpt>
      <trkpt lat="45.08714" lon="5.83837">
        <ele>1530.08</ele>
        <time>2021-08-26T09:19:09Z</time>
      </trkpt>
      <trkpt lat="45.08713" lon="5.8384">
        <ele>1521.9</ele>
        <time>2021-08-26T09:19:11Z</time>
      </trkpt>
      <trkpt lat="45.08712" lon="5.8384">
        <ele>1535.36</ele>
        <time>2021-08-26T09:19:12Z</time>
      </trkpt>
      <trkpt lat="45.08711" lon="5.83841">
        <ele>1530.08</ele>
        <time>2021-08-26T09:19:13Z</time>
      </trkpt>
      <trkpt lat="45.08703" lon="5.83849">
        <ele>1524.31</ele>
        <time>2021-08-26T09:19:25Z</time>
      </trkpt>
      <trkpt lat="45.08702" lon="5.8385">
        <ele>1530.08</ele>
        <time>2021-08-26T09:19:26Z</time>
      </trkpt>
      <trkpt lat="45.087" lon="5.83851">
        <ele>1510.85</ele>
        <time>2021-08-26T09:19:29Z</time>
      </trkpt>
      <trkpt lat="45.08699" lon="5.83852">
        <ele>1530.08</ele>
        <time>2021-08-26T09:19:30Z</time>
      </trkpt>
      <trkpt lat="45.08699" lon="5.83853">
        <ele>1533.44</ele>
        <time>2021-08-26T09:19:31Z</time>
      </trkpt>
      <trkpt lat="45.08699" lon="5.83854">
        <ele>1529.11</ele>
        <time>2021-08-26T09:19:32Z</time>
      </trkpt>
      <trkpt lat="45.08698" lon="5.83855">
        <ele>1537.29</ele>
        <time>2021-08-26T09:19:33Z</time>
      </trkpt>
      <trkpt lat="45.08698" lon="5.83855">
        <ele>1534.88</ele>
        <time>2021-08-26T09:19:34Z</time>
      </trkpt>
      <trkpt lat="45.08697" lon="5.83856">
        <ele>1528.15</ele>
        <time>2021-08-26T09:19:35Z</time>
      </trkpt>
      <trkpt lat="45.08697" lon="5.83856">
        <ele>1520.94</ele>
        <time>2021-08-26T09:19:36Z</time>
      </trkpt>
      <trkpt lat="45.08697" lon="5.83856">
        <ele>1527.67</ele>
        <time>2021-08-26T09:19:37Z</time>
      </trkpt>
      <trkpt lat="45.08695" lon="5.83858">
        <ele>1526.23</ele>
        <time>2021-08-26T09:19:51Z</time>
      </trkpt>
      <trkpt lat="45.08693" lon="5.83862">
        <ele>1522.39</ele>
        <time>2021-08-26T09:20:08Z</time>
      </trkpt>
      <trkpt lat="45.08693" lon="5.83862">
        <ele>1526.71</ele>
        <time>2021-08-26T09:20:09Z</time>
      </trkpt>
      <trkpt lat="45.08688" lon="5.83864">
        <ele>1523.83</ele>
        <time>2021-08-26T09:20:16Z</time>
      </trkpt>
      <trkpt lat="45.08681" lon="5.83863">
        <ele>1523.35</ele>
        <time>2021-08-26T09:20:20Z</time>
      </trkpt>
      <trkpt lat="45.08667" lon="5.83863">
        <ele>1523.35</ele>
        <time>2021-08-26T09:20:34Z</time>
      </trkpt>
      <trkpt lat="45.08661" lon="5.83861">
        <ele>1515.66</ele>
        <time>2021-08-26T09:20:43Z</time>
      </trkpt>
      <trkpt lat="45.0866" lon="5.8386">
        <ele>1529.11</ele>
        <time>2021-08-26T09:20:44Z</time>
      </trkpt>
      <trkpt lat="45.0866" lon="5.8386">
        <ele>1511.33</ele>
        <time>2021-08-26T09:20:45Z</time>
      </trkpt>
      <trkpt lat="45.0866" lon="5.8386">
        <ele>1534.88</ele>
        <time>2021-08-26T09:20:46Z</time>
      </trkpt>
      <trkpt lat="45.08659" lon="5.83859">
        <ele>1524.79</ele>
        <time>2021-08-26T09:20:47Z</time>
      </trkpt>
      <trkpt lat="45.08658" lon="5.83859">
        <ele>1523.83</ele>
        <time>2021-08-26T09:20:49Z</time>
      </trkpt>
      <trkpt lat="45.08657" lon="5.83858">
        <ele>1507.48</ele>
        <time>2021-08-26T09:20:51Z</time>
      </trkpt>
      <trkpt lat="45.08657" lon="5.83858">
        <ele>1538.25</ele>
        <time>2021-08-26T09:20:52Z</time>
      </trkpt>
      <trkpt lat="45.08657" lon="5.83858">
        <ele>1520.46</ele>
        <time>2021-08-26T09:20:53Z</time>
      </trkpt>
      <trkpt lat="45.08657" lon="5.83858">
        <ele>1528.63</ele>
        <time>2021-08-26T09:20:54Z</time>
      </trkpt>
      <trkpt lat="45.08656" lon="5.83858">
        <ele>1523.83</ele>
        <time>2021-08-26T09:20:55Z</time>
      </trkpt>
      <trkpt lat="45.08655" lon="5.83857">
        <ele>1523.35</ele>
        <time>2021-08-26T09:20:57Z</time>
      </trkpt>
      <trkpt lat="45.08651" lon="5.8386">
        <ele>1519.98</ele>
        <time>2021-08-26T09:21:15Z</time>
      </trkpt>
      <trkpt lat="45.08645" lon="5.83861">
        <ele>1517.1</ele>
        <time>2021-08-26T09:21:28Z</time>
      </trkpt>
      <trkpt lat="45.08635" lon="5.83858">
        <ele>1515.66</ele>
        <time>2021-08-26T09:21:43Z</time>
      </trkpt>
      <trkpt lat="45.08621" lon="5.83854">
        <ele>1513.25</ele>
        <time>2021-08-26T09:21:58Z</time>
      </trkpt>
      <trkpt lat="45.08605" lon="5.83844">
        <ele>1511.81</ele>
        <time>2021-08-26T09:22:10Z</time>
      </trkpt>
      <trkpt lat="45.08588" lon="5.83839">
        <ele>1511.33</ele>
        <time>2021-08-26T09:22:27Z</time>
      </trkpt>
      <trkpt lat="45.08561" lon="5.83812">
        <ele>1510.37</ele>
        <time>2021-08-26T09:22:42Z</time>
      </trkpt>
      <trkpt lat="45.08554" lon="5.83803">
        <ele>1509.89</ele>
        <time>2021-08-26T09:22:58Z</time>
      </trkpt>
      <trkpt lat="45.08549" lon="5.83797">
        <ele>1509.41</ele>
        <time>2021-08-26T09:23:12Z</time>
      </trkpt>
      <trkpt lat="45.08549" lon="5.83796">
        <ele>1505.56</ele>
        <time>2021-08-26T09:23:17Z</time>
      </trkpt>
      <trkpt lat="45.08549" lon="5.83796">
        <ele>1518.06</ele>
        <time>2021-08-26T09:23:18Z</time>
      </trkpt>
      <trkpt lat="45.08549" lon="5.83796">
        <ele>1510.37</ele>
        <time>2021-08-26T09:23:19Z</time>
      </trkpt>
      <trkpt lat="45.08548" lon="5.83795">
        <ele>1508.93</ele>
        <time>2021-08-26T09:23:21Z</time>
      </trkpt>
      <trkpt lat="45.08545" lon="5.83787">
        <ele>1508.45</ele>
        <time>2021-08-26T09:23:34Z</time>
      </trkpt>
      <trkpt lat="45.08535" lon="5.83771">
        <ele>1507.97</ele>
        <time>2021-08-26T09:23:47Z</time>
      </trkpt>
      <trkpt lat="45.08525" lon="5.83759">
        <ele>1507.48</ele>
        <time>2021-08-26T09:24:00Z</time>
      </trkpt>
      <trkpt lat="45.08509" lon="5.8374">
        <ele>1506.04</ele>
        <time>2021-08-26T09:24:13Z</time>
      </trkpt>
      <trkpt lat="45.08496" lon="5.83727">
        <ele>1504.12</ele>
        <time>2021-08-26T09:24:26Z</time>
      </trkpt>
      <trkpt lat="45.08485" lon="5.83714">
        <ele>1500.76</ele>
        <time>2021-08-26T09:24:39Z</time>
      </trkpt>
      <trkpt lat="45.08476" lon="5.83706">
        <ele>1499.31</ele>
        <time>2021-08-26T09:24:50Z</time>
      </trkpt>
      <trkpt lat="45.08475" lon="5.83705">
        <ele>1498.35</ele>
        <time>2021-08-26T09:24:56Z</time>
      </trkpt>
      <trkpt lat="45.08472" lon="5.83695">
        <ele>1496.43</ele>
        <time>2021-08-26T09:25:09Z</time>
      </trkpt>
      <trkpt lat="45.08471" lon="5.83693">
        <ele>1496.43</ele>
        <time>2021-08-26T09:25:13Z</time>
      </trkpt>
      <trkpt lat="45.08458" lon="5.83674">
        <ele>1495.95</ele>
        <time>2021-08-26T09:25:22Z</time>
      </trkpt>
      <trkpt lat="45.08447" lon="5.83661">
        <ele>1494.99</ele>
        <time>2021-08-26T09:25:33Z</time>
      </trkpt>
      <trkpt lat="45.08438" lon="5.83651">
        <ele>1493.06</ele>
        <time>2021-08-26T09:25:44Z</time>
      </trkpt>
      <trkpt lat="45.08437" lon="5.8365">
        <ele>1492.58</ele>
        <time>2021-08-26T09:25:45Z</time>
      </trkpt>
      <trkpt lat="45.08429" lon="5.83638">
        <ele>1490.18</ele>
        <time>2021-08-26T09:25:59Z</time>
      </trkpt>
      <trkpt lat="45.08426" lon="5.83634">
        <ele>1487.3</ele>
        <time>2021-08-26T09:26:12Z</time>
      </trkpt>
      <trkpt lat="45.08422" lon="5.83628">
        <ele>1484.41</ele>
        <time>2021-08-26T09:26:23Z</time>
      </trkpt>
      <trkpt lat="45.08418" lon="5.8362">
        <ele>1481.05</ele>
        <time>2021-08-26T09:26:37Z</time>
      </trkpt>
      <trkpt lat="45.08414" lon="5.83615">
        <ele>1478.65</ele>
        <time>2021-08-26T09:26:51Z</time>
      </trkpt>
      <trkpt lat="45.08403" lon="5.83599">
        <ele>1475.28</ele>
        <time>2021-08-26T09:27:04Z</time>
      </trkpt>
      <trkpt lat="45.08397" lon="5.83593">
        <ele>1472.4</ele>
        <time>2021-08-26T09:27:15Z</time>
      </trkpt>
      <trkpt lat="45.08394" lon="5.83589">
        <ele>1469.99</ele>
        <time>2021-08-26T09:27:26Z</time>
      </trkpt>
      <trkpt lat="45.08382" lon="5.83575">
        <ele>1465.67</ele>
        <time>2021-08-26T09:27:40Z</time>
      </trkpt>
      <trkpt lat="45.08381" lon="5.83572">
        <ele>1469.03</ele>
        <time>2021-08-26T09:27:45Z</time>
      </trkpt>
      <trkpt lat="45.0838" lon="5.83569">
        <ele>1466.63</ele>
        <time>2021-08-26T09:27:48Z</time>
      </trkpt>
      <trkpt lat="45.08375" lon="5.83562">
        <ele>1466.15</ele>
        <time>2021-08-26T09:27:56Z</time>
      </trkpt>
      <trkpt lat="45.08364" lon="5.83547">
        <ele>1464.71</ele>
        <time>2021-08-26T09:28:10Z</time>
      </trkpt>
      <trkpt lat="45.08362" lon="5.83543">
        <ele>1450.77</ele>
        <time>2021-08-26T09:28:21Z</time>
      </trkpt>
      <trkpt lat="45.08362" lon="5.83542">
        <ele>1482.49</ele>
        <time>2021-08-26T09:28:22Z</time>
      </trkpt>
      <trkpt lat="45.08362" lon="5.83542">
        <ele>1448.84</ele>
        <time>2021-08-26T09:28:23Z</time>
      </trkpt>
      <trkpt lat="45.08362" lon="5.83541">
        <ele>1479.61</ele>
        <time>2021-08-26T09:28:24Z</time>
      </trkpt>
      <trkpt lat="45.08362" lon="5.8354">
        <ele>1471.44</ele>
        <time>2021-08-26T09:28:25Z</time>
      </trkpt>
      <trkpt lat="45.08362" lon="5.8354">
        <ele>1465.19</ele>
        <time>2021-08-26T09:28:26Z</time>
      </trkpt>
      <trkpt lat="45.08362" lon="5.83541">
        <ele>1446.44</ele>
        <time>2021-08-26T09:28:28Z</time>
      </trkpt>
      <trkpt lat="45.08362" lon="5.83541">
        <ele>1477.68</ele>
        <time>2021-08-26T09:28:29Z</time>
      </trkpt>
      <trkpt lat="45.08362" lon="5.83541">
        <ele>1466.15</ele>
        <time>2021-08-26T09:28:30Z</time>
      </trkpt>
      <trkpt lat="45.08362" lon="5.83541">
        <ele>1457.02</ele>
        <time>2021-08-26T09:28:31Z</time>
      </trkpt>
      <trkpt lat="45.08362" lon="5.83542">
        <ele>1470.47</ele>
        <time>2021-08-26T09:28:32Z</time>
      </trkpt>
      <trkpt lat="45.08362" lon="5.83542">
        <ele>1465.67</ele>
        <time>2021-08-26T09:28:33Z</time>
      </trkpt>
      <trkpt lat="45.08348" lon="5.83527">
        <ele>1464.71</ele>
        <time>2021-08-26T09:28:58Z</time>
      </trkpt>
      <trkpt lat="45.08347" lon="5.83526">
        <ele>1460.86</ele>
        <time>2021-08-26T09:29:02Z</time>
      </trkpt>
      <trkpt lat="45.08346" lon="5.83526">
        <ele>1472.4</ele>
        <time>2021-08-26T09:29:03Z</time>
      </trkpt>
      <trkpt lat="45.08346" lon="5.83525">
        <ele>1466.63</ele>
        <time>2021-08-26T09:29:04Z</time>
      </trkpt>
      <trkpt lat="45.08346" lon="5.83525">
        <ele>1448.84</ele>
        <time>2021-08-26T09:29:05Z</time>
      </trkpt>
      <trkpt lat="45.08345" lon="5.83525">
        <ele>1480.57</ele>
        <time>2021-08-26T09:29:06Z</time>
      </trkpt>
      <trkpt lat="45.08345" lon="5.83524">
        <ele>1466.63</ele>
        <time>2021-08-26T09:29:07Z</time>
      </trkpt>
      <trkpt lat="45.08345" lon="5.83524">
        <ele>1464.71</ele>
        <time>2021-08-26T09:29:09Z</time>
      </trkpt>
      <trkpt lat="45.08344" lon="5.83522">
        <ele>1464.71</ele>
        <time>2021-08-26T09:29:28Z</time>
      </trkpt>
      <trkpt lat="45.08344" lon="5.83521">
        <ele>1464.71</ele>
        <time>2021-08-26T09:29:53Z</time>
      </trkpt>
      <trkpt lat="45.08344" lon="5.8352">
        <ele>1464.71</ele>
        <time>2021-08-26T09:30:21Z</time>
      </trkpt>
      <trkpt lat="45.08343" lon="5.83519">
        <ele>1464.71</ele>
        <time>2021-08-26T09:30:49Z</time>
      </trkpt>
      <trkpt lat="45.08342" lon="5.83517">
        <ele>1464.71</ele>
        <time>2021-08-26T09:31:14Z</time>
      </trkpt>
      <trkpt lat="45.08339" lon="5.83506">
        <ele>1464.23</ele>
        <time>2021-08-26T09:31:27Z</time>
      </trkpt>
      <trkpt lat="45.08334" lon="5.83487">
        <ele>1463.26</ele>
        <time>2021-08-26T09:31:42Z</time>
      </trkpt>
      <trkpt lat="45.08333" lon="5.83482">
        <ele>1463.74</ele>
        <time>2021-08-26T09:31:49Z</time>
      </trkpt>
      <trkpt lat="45.08331" lon="5.83478">
        <ele>1443.56</ele>
        <time>2021-08-26T09:31:53Z</time>
      </trkpt>
      <trkpt lat="45.08331" lon="5.83478">
        <ele>1478.65</ele>
        <time>2021-08-26T09:31:54Z</time>
      </trkpt>
      <trkpt lat="45.08331" lon="5.83477">
        <ele>1455.57</ele>
        <time>2021-08-26T09:31:55Z</time>
      </trkpt>
      <trkpt lat="45.0833" lon="5.83475">
        <ele>1474.32</ele>
        <time>2021-08-26T09:31:56Z</time>
      </trkpt>
      <trkpt lat="45.0833" lon="5.83473">
        <ele>1466.15</ele>
        <time>2021-08-26T09:31:57Z</time>
      </trkpt>
      <trkpt lat="45.08321" lon="5.83453">
        <ele>1463.26</ele>
        <time>2021-08-26T09:32:13Z</time>
      </trkpt>
      <trkpt lat="45.08323" lon="5.83448">
        <ele>1465.19</ele>
        <time>2021-08-26T09:32:27Z</time>
      </trkpt>
      <trkpt lat="45.08322" lon="5.83443">
        <ele>1461.34</ele>
        <time>2021-08-26T09:32:35Z</time>
      </trkpt>
      <trkpt lat="45.08322" lon="5.83442">
        <ele>1473.84</ele>
        <time>2021-08-26T09:32:36Z</time>
      </trkpt>
      <trkpt lat="45.08321" lon="5.83441">
        <ele>1466.63</ele>
        <time>2021-08-26T09:32:37Z</time>
      </trkpt>
      <trkpt lat="45.08321" lon="5.83439">
        <ele>1465.67</ele>
        <time>2021-08-26T09:32:39Z</time>
      </trkpt>
      <trkpt lat="45.08317" lon="5.83423">
        <ele>1465.19</ele>
        <time>2021-08-26T09:32:54Z</time>
      </trkpt>
      <trkpt lat="45.08317" lon="5.83408">
        <ele>1464.71</ele>
        <time>2021-08-26T09:33:08Z</time>
      </trkpt>
      <trkpt lat="45.08315" lon="5.83399">
        <ele>1452.69</ele>
        <time>2021-08-26T09:33:15Z</time>
      </trkpt>
      <trkpt lat="45.08315" lon="5.83398">
        <ele>1475.76</ele>
        <time>2021-08-26T09:33:16Z</time>
      </trkpt>
      <trkpt lat="45.08314" lon="5.83397">
        <ele>1465.67</ele>
        <time>2021-08-26T09:33:17Z</time>
      </trkpt>
      <trkpt lat="45.08313" lon="5.83394">
        <ele>1464.23</ele>
        <time>2021-08-26T09:33:19Z</time>
      </trkpt>
      <trkpt lat="45.08303" lon="5.83371">
        <ele>1463.26</ele>
        <time>2021-08-26T09:33:33Z</time>
      </trkpt>
      <trkpt lat="45.08298" lon="5.83362">
        <ele>1462.3</ele>
        <time>2021-08-26T09:33:37Z</time>
      </trkpt>
      <trkpt lat="45.08276" lon="5.83333">
        <ele>1459.9</ele>
        <time>2021-08-26T09:33:51Z</time>
      </trkpt>
      <trkpt lat="45.08266" lon="5.83318">
        <ele>1457.5</ele>
        <time>2021-08-26T09:34:09Z</time>
      </trkpt>
      <trkpt lat="45.08261" lon="5.83311">
        <ele>1456.05</ele>
        <time>2021-08-26T09:34:24Z</time>
      </trkpt>
      <trkpt lat="45.08255" lon="5.8331">
        <ele>1453.65</ele>
        <time>2021-08-26T09:34:40Z</time>
      </trkpt>
      <trkpt lat="45.08244" lon="5.83309">
        <ele>1451.25</ele>
        <time>2021-08-26T09:34:54Z</time>
      </trkpt>
      <trkpt lat="45.08234" lon="5.83306">
        <ele>1447.4</ele>
        <time>2021-08-26T09:35:02Z</time>
      </trkpt>
      <trkpt lat="45.08232" lon="5.83306">
        <ele>1451.25</ele>
        <time>2021-08-26T09:35:03Z</time>
      </trkpt>
      <trkpt lat="45.08226" lon="5.83304">
        <ele>1448.36</ele>
        <time>2021-08-26T09:35:10Z</time>
      </trkpt>
      <trkpt lat="45.08213" lon="5.83297">
        <ele>1447.4</ele>
        <time>2021-08-26T09:35:22Z</time>
      </trkpt>
      <trkpt lat="45.08208" lon="5.83293">
        <ele>1447.4</ele>
        <time>2021-08-26T09:35:36Z</time>
      </trkpt>
      <trkpt lat="45.08206" lon="5.83291">
        <ele>1447.4</ele>
        <time>2021-08-26T09:35:53Z</time>
      </trkpt>
      <trkpt lat="45.08204" lon="5.83293">
        <ele>1447.4</ele>
        <time>2021-08-26T09:36:14Z</time>
      </trkpt>
      <trkpt lat="45.082" lon="5.83298">
        <ele>1447.4</ele>
        <time>2021-08-26T09:36:29Z</time>
      </trkpt>
      <trkpt lat="45.08199" lon="5.83301">
        <ele>1447.4</ele>
        <time>2021-08-26T09:36:31Z</time>
      </trkpt>
      <trkpt lat="45.08193" lon="5.83318">
        <ele>1446.44</ele>
        <time>2021-08-26T09:36:44Z</time>
      </trkpt>
      <trkpt lat="45.08192" lon="5.83319">
        <ele>1445.96</ele>
        <time>2021-08-26T09:36:45Z</time>
      </trkpt>
      <trkpt lat="45.08192" lon="5.83336">
        <ele>1445</ele>
        <time>2021-08-26T09:36:58Z</time>
      </trkpt>
      <trkpt lat="45.08192" lon="5.83347">
        <ele>1442.6</ele>
        <time>2021-08-26T09:37:12Z</time>
      </trkpt>
      <trkpt lat="45.08191" lon="5.83356">
        <ele>1429.62</ele>
        <time>2021-08-26T09:37:25Z</time>
      </trkpt>
      <trkpt lat="45.08191" lon="5.83356">
        <ele>1452.69</ele>
        <time>2021-08-26T09:37:26Z</time>
      </trkpt>
      <trkpt lat="45.08191" lon="5.83356">
        <ele>1442.11</ele>
        <time>2021-08-26T09:37:27Z</time>
      </trkpt>
      <trkpt lat="45.08191" lon="5.83356">
        <ele>1441.63</ele>
        <time>2021-08-26T09:37:29Z</time>
      </trkpt>
      <trkpt lat="45.08194" lon="5.83351">
        <ele>1443.08</ele>
        <time>2021-08-26T09:37:44Z</time>
      </trkpt>
      <trkpt lat="45.08191" lon="5.83333">
        <ele>1445</ele>
        <time>2021-08-26T09:38:00Z</time>
      </trkpt>
      <trkpt lat="45.08192" lon="5.83328">
        <ele>1430.58</ele>
        <time>2021-08-26T09:38:05Z</time>
      </trkpt>
      <trkpt lat="45.08192" lon="5.83328">
        <ele>1457.5</ele>
        <time>2021-08-26T09:38:06Z</time>
      </trkpt>
      <trkpt lat="45.08192" lon="5.83327">
        <ele>1446.44</ele>
        <time>2021-08-26T09:38:07Z</time>
      </trkpt>
      <trkpt lat="45.08194" lon="5.83314">
        <ele>1446.92</ele>
        <time>2021-08-26T09:38:20Z</time>
      </trkpt>
      <trkpt lat="45.08198" lon="5.83302">
        <ele>1447.88</ele>
        <time>2021-08-26T09:38:33Z</time>
      </trkpt>
      <trkpt lat="45.08205" lon="5.83293">
        <ele>1448.84</ele>
        <time>2021-08-26T09:38:48Z</time>
      </trkpt>
      <trkpt lat="45.08205" lon="5.83293">
        <ele>1445</ele>
        <time>2021-08-26T09:38:49Z</time>
      </trkpt>
      <trkpt lat="45.08205" lon="5.83293">
        <ele>1450.77</ele>
        <time>2021-08-26T09:38:50Z</time>
      </trkpt>
      <trkpt lat="45.08205" lon="5.83293">
        <ele>1463.26</ele>
        <time>2021-08-26T09:38:52Z</time>
      </trkpt>
      <trkpt lat="45.08204" lon="5.83293">
        <ele>1449.81</ele>
        <time>2021-08-26T09:38:53Z</time>
      </trkpt>
      <trkpt lat="45.08204" lon="5.83293">
        <ele>1448.36</ele>
        <time>2021-08-26T09:38:55Z</time>
      </trkpt>
      <trkpt lat="45.08204" lon="5.83292">
        <ele>1448.36</ele>
        <time>2021-08-26T09:39:18Z</time>
      </trkpt>
      <trkpt lat="45.08204" lon="5.83291">
        <ele>1448.36</ele>
        <time>2021-08-26T09:39:43Z</time>
      </trkpt>
      <trkpt lat="45.08204" lon="5.83292">
        <ele>1448.36</ele>
        <time>2021-08-26T09:40:08Z</time>
      </trkpt>
      <trkpt lat="45.08204" lon="5.83291">
        <ele>1448.84</ele>
        <time>2021-08-26T09:40:29Z</time>
      </trkpt>
      <trkpt lat="45.08204" lon="5.83291">
        <ele>1449.32</ele>
        <time>2021-08-26T09:40:56Z</time>
      </trkpt>
      <trkpt lat="45.08208" lon="5.83283">
        <ele>1448.84</ele>
        <time>2021-08-26T09:41:10Z</time>
      </trkpt>
      <trkpt lat="45.08213" lon="5.83274">
        <ele>1448.36</ele>
        <time>2021-08-26T09:41:20Z</time>
      </trkpt>
      <trkpt lat="45.0822" lon="5.83256">
        <ele>1447.88</ele>
        <time>2021-08-26T09:41:32Z</time>
      </trkpt>
      <trkpt lat="45.08232" lon="5.83236">
        <ele>1446.92</ele>
        <time>2021-08-26T09:41:49Z</time>
      </trkpt>
      <trkpt lat="45.08235" lon="5.83222">
        <ele>1445</ele>
        <time>2021-08-26T09:42:00Z</time>
      </trkpt>
      <trkpt lat="45.08238" lon="5.83207">
        <ele>1443.08</ele>
        <time>2021-08-26T09:42:12Z</time>
      </trkpt>
      <trkpt lat="45.08241" lon="5.83199">
        <ele>1441.63</ele>
        <time>2021-08-26T09:42:23Z</time>
      </trkpt>
      <trkpt lat="45.08248" lon="5.83195">
        <ele>1440.19</ele>
        <time>2021-08-26T09:42:34Z</time>
      </trkpt>
      <trkpt lat="45.08255" lon="5.83187">
        <ele>1437.31</ele>
        <time>2021-08-26T09:42:46Z</time>
      </trkpt>
      <trkpt lat="45.0826" lon="5.83184">
        <ele>1436.83</ele>
        <time>2021-08-26T09:42:49Z</time>
      </trkpt>
      <trkpt lat="45.08269" lon="5.83177">
        <ele>1433.46</ele>
        <time>2021-08-26T09:43:03Z</time>
      </trkpt>
      <trkpt lat="45.08277" lon="5.83174">
        <ele>1430.58</ele>
        <time>2021-08-26T09:43:17Z</time>
      </trkpt>
      <trkpt lat="45.08284" lon="5.83168">
        <ele>1428.18</ele>
        <time>2021-08-26T09:43:30Z</time>
      </trkpt>
      <trkpt lat="45.08287" lon="5.83159">
        <ele>1425.29</ele>
        <time>2021-08-26T09:43:42Z</time>
      </trkpt>
      <trkpt lat="45.08296" lon="5.83148">
        <ele>1422.41</ele>
        <time>2021-08-26T09:43:54Z</time>
      </trkpt>
      <trkpt lat="45.08303" lon="5.83138">
        <ele>1420</ele>
        <time>2021-08-26T09:44:07Z</time>
      </trkpt>
      <trkpt lat="45.08311" lon="5.83121">
        <ele>1417.6</ele>
        <time>2021-08-26T09:44:21Z</time>
      </trkpt>
      <trkpt lat="45.08318" lon="5.83112">
        <ele>1415.2</ele>
        <time>2021-08-26T09:44:33Z</time>
      </trkpt>
      <trkpt lat="45.08326" lon="5.83103">
        <ele>1413.76</ele>
        <time>2021-08-26T09:44:49Z</time>
      </trkpt>
      <trkpt lat="45.08333" lon="5.83091">
        <ele>1411.83</ele>
        <time>2021-08-26T09:45:01Z</time>
      </trkpt>
      <trkpt lat="45.08336" lon="5.83083">
        <ele>1410.39</ele>
        <time>2021-08-26T09:45:09Z</time>
      </trkpt>
      <trkpt lat="45.0834" lon="5.8307">
        <ele>1408.95</ele>
        <time>2021-08-26T09:45:19Z</time>
      </trkpt>
      <trkpt lat="45.08342" lon="5.83057">
        <ele>1406.07</ele>
        <time>2021-08-26T09:45:34Z</time>
      </trkpt>
      <trkpt lat="45.0835" lon="5.83041">
        <ele>1403.66</ele>
        <time>2021-08-26T09:45:49Z</time>
      </trkpt>
      <trkpt lat="45.08353" lon="5.83029">
        <ele>1402.7</ele>
        <time>2021-08-26T09:45:58Z</time>
      </trkpt>
      <trkpt lat="45.08359" lon="5.83014">
        <ele>1401.26</ele>
        <time>2021-08-26T09:46:11Z</time>
      </trkpt>
      <trkpt lat="45.08364" lon="5.82999">
        <ele>1399.82</ele>
        <time>2021-08-26T09:46:23Z</time>
      </trkpt>
      <trkpt lat="45.0837" lon="5.82987">
        <ele>1397.89</ele>
        <time>2021-08-26T09:46:37Z</time>
      </trkpt>
      <trkpt lat="45.08375" lon="5.82968">
        <ele>1396.45</ele>
        <time>2021-08-26T09:46:51Z</time>
      </trkpt>
      <trkpt lat="45.08377" lon="5.8295">
        <ele>1395.01</ele>
        <time>2021-08-26T09:47:03Z</time>
      </trkpt>
      <trkpt lat="45.08377" lon="5.82942">
        <ele>1394.53</ele>
        <time>2021-08-26T09:47:09Z</time>
      </trkpt>
      <trkpt lat="45.08382" lon="5.82925">
        <ele>1393.09</ele>
        <time>2021-08-26T09:47:22Z</time>
      </trkpt>
      <trkpt lat="45.08389" lon="5.82914">
        <ele>1392.61</ele>
        <time>2021-08-26T09:47:33Z</time>
      </trkpt>
      <trkpt lat="45.08394" lon="5.82908">
        <ele>1391.65</ele>
        <time>2021-08-26T09:47:41Z</time>
      </trkpt>
      <trkpt lat="45.08404" lon="5.82893">
        <ele>1391.17</ele>
        <time>2021-08-26T09:47:57Z</time>
      </trkpt>
      <trkpt lat="45.08413" lon="5.82874">
        <ele>1390.2</ele>
        <time>2021-08-26T09:48:12Z</time>
      </trkpt>
      <trkpt lat="45.08417" lon="5.82867">
        <ele>1390.2</ele>
        <time>2021-08-26T09:48:26Z</time>
      </trkpt>
      <trkpt lat="45.08419" lon="5.82865">
        <ele>1390.2</ele>
        <time>2021-08-26T09:48:46Z</time>
      </trkpt>
      <trkpt lat="45.08421" lon="5.82852">
        <ele>1389.72</ele>
        <time>2021-08-26T09:48:58Z</time>
      </trkpt>
      <trkpt lat="45.08427" lon="5.82857">
        <ele>1389.24</ele>
        <time>2021-08-26T09:49:11Z</time>
      </trkpt>
      <trkpt lat="45.08433" lon="5.8286">
        <ele>1388.76</ele>
        <time>2021-08-26T09:49:27Z</time>
      </trkpt>
      <trkpt lat="45.08432" lon="5.82862">
        <ele>1388.76</ele>
        <time>2021-08-26T09:49:44Z</time>
      </trkpt>
      <trkpt lat="45.08431" lon="5.82863">
        <ele>1389.24</ele>
        <time>2021-08-26T09:49:50Z</time>
      </trkpt>
      <trkpt lat="45.08433" lon="5.82867">
        <ele>1388.76</ele>
        <time>2021-08-26T09:49:54Z</time>
      </trkpt>
      <trkpt lat="45.08433" lon="5.82869">
        <ele>1388.76</ele>
        <time>2021-08-26T09:50:08Z</time>
      </trkpt>
      <trkpt lat="45.08433" lon="5.82869">
        <ele>1388.76</ele>
        <time>2021-08-26T09:50:31Z</time>
      </trkpt>
      <trkpt lat="45.08433" lon="5.82869">
        <ele>1388.76</ele>
        <time>2021-08-26T09:50:50Z</time>
      </trkpt>
      <trkpt lat="45.08431" lon="5.82869">
        <ele>1388.76</ele>
        <time>2021-08-26T09:51:17Z</time>
      </trkpt>
      <trkpt lat="45.08432" lon="5.82869">
        <ele>1388.76</ele>
        <time>2021-08-26T09:51:33Z</time>
      </trkpt>
      <trkpt lat="45.08433" lon="5.82867">
        <ele>1389.24</ele>
        <time>2021-08-26T09:51:46Z</time>
      </trkpt>
      <trkpt lat="45.08434" lon="5.82862">
        <ele>1388.76</ele>
        <time>2021-08-26T09:52:06Z</time>
      </trkpt>
      <trkpt lat="45.08433" lon="5.82859">
        <ele>1389.24</ele>
        <time>2021-08-26T09:52:21Z</time>
      </trkpt>
      <trkpt lat="45.08433" lon="5.82859">
        <ele>1389.24</ele>
        <time>2021-08-26T09:52:40Z</time>
      </trkpt>
      <trkpt lat="45.08427" lon="5.82857">
        <ele>1388.76</ele>
        <time>2021-08-26T09:52:58Z</time>
      </trkpt>
      <trkpt lat="45.08422" lon="5.82842">
        <ele>1389.24</ele>
        <time>2021-08-26T09:53:14Z</time>
      </trkpt>
      <trkpt lat="45.08417" lon="5.82824">
        <ele>1389.24</ele>
        <time>2021-08-26T09:53:29Z</time>
      </trkpt>
      <trkpt lat="45.0841" lon="5.82814">
        <ele>1387.32</ele>
        <time>2021-08-26T09:53:46Z</time>
      </trkpt>
      <trkpt lat="45.08407" lon="5.82804">
        <ele>1386.36</ele>
        <time>2021-08-26T09:54:03Z</time>
      </trkpt>
      <trkpt lat="45.08399" lon="5.82793">
        <ele>1385.4</ele>
        <time>2021-08-26T09:54:18Z</time>
      </trkpt>
      <trkpt lat="45.08393" lon="5.82786">
        <ele>1383.96</ele>
        <time>2021-08-26T09:54:33Z</time>
      </trkpt>
      <trkpt lat="45.08387" lon="5.8278">
        <ele>1382.99</ele>
        <time>2021-08-26T09:54:49Z</time>
      </trkpt>
      <trkpt lat="45.08379" lon="5.82768">
        <ele>1381.07</ele>
        <time>2021-08-26T09:55:04Z</time>
      </trkpt>
      <trkpt lat="45.08373" lon="5.82754">
        <ele>1380.59</ele>
        <time>2021-08-26T09:55:17Z</time>
      </trkpt>
      <trkpt lat="45.08375" lon="5.82741">
        <ele>1379.63</ele>
        <time>2021-08-26T09:55:29Z</time>
      </trkpt>
      <trkpt lat="45.08376" lon="5.82739">
        <ele>1379.15</ele>
        <time>2021-08-26T09:55:32Z</time>
      </trkpt>
      <trkpt lat="45.0838" lon="5.82719">
        <ele>1378.19</ele>
        <time>2021-08-26T09:55:46Z</time>
      </trkpt>
      <trkpt lat="45.08377" lon="5.82705">
        <ele>1376.75</ele>
        <time>2021-08-26T09:55:57Z</time>
      </trkpt>
      <trkpt lat="45.08375" lon="5.82698">
        <ele>1376.26</ele>
        <time>2021-08-26T09:56:14Z</time>
      </trkpt>
      <trkpt lat="45.08376" lon="5.82688">
        <ele>1375.3</ele>
        <time>2021-08-26T09:56:28Z</time>
      </trkpt>
      <trkpt lat="45.08373" lon="5.82671">
        <ele>1374.34</ele>
        <time>2021-08-26T09:56:40Z</time>
      </trkpt>
      <trkpt lat="45.08372" lon="5.82656">
        <ele>1373.38</ele>
        <time>2021-08-26T09:56:54Z</time>
      </trkpt>
      <trkpt lat="45.0837" lon="5.82643">
        <ele>1371.46</ele>
        <time>2021-08-26T09:57:08Z</time>
      </trkpt>
      <trkpt lat="45.08366" lon="5.82627">
        <ele>1369.05</ele>
        <time>2021-08-26T09:57:24Z</time>
      </trkpt>
      <trkpt lat="45.08363" lon="5.82615">
        <ele>1367.61</ele>
        <time>2021-08-26T09:57:37Z</time>
      </trkpt>
      <trkpt lat="45.08361" lon="5.82606">
        <ele>1367.13</ele>
        <time>2021-08-26T09:57:43Z</time>
      </trkpt>
      <trkpt lat="45.08358" lon="5.82592">
        <ele>1365.69</ele>
        <time>2021-08-26T09:57:55Z</time>
      </trkpt>
      <trkpt lat="45.08354" lon="5.82572">
        <ele>1363.77</ele>
        <time>2021-08-26T09:58:11Z</time>
      </trkpt>
      <trkpt lat="45.08353" lon="5.82559">
        <ele>1362.33</ele>
        <time>2021-08-26T09:58:21Z</time>
      </trkpt>
      <trkpt lat="45.08355" lon="5.82548">
        <ele>1360.88</ele>
        <time>2021-08-26T09:58:28Z</time>
      </trkpt>
      <trkpt lat="45.08353" lon="5.82539">
        <ele>1359.44</ele>
        <time>2021-08-26T09:58:37Z</time>
      </trkpt>
      <trkpt lat="45.08351" lon="5.82519">
        <ele>1357.04</ele>
        <time>2021-08-26T09:58:51Z</time>
      </trkpt>
      <trkpt lat="45.08351" lon="5.82517">
        <ele>1357.04</ele>
        <time>2021-08-26T09:58:52Z</time>
      </trkpt>
      <trkpt lat="45.08346" lon="5.82499">
        <ele>1355.12</ele>
        <time>2021-08-26T09:59:04Z</time>
      </trkpt>
      <trkpt lat="45.0834" lon="5.82485">
        <ele>1353.19</ele>
        <time>2021-08-26T09:59:17Z</time>
      </trkpt>
      <trkpt lat="45.08337" lon="5.82467">
        <ele>1351.75</ele>
        <time>2021-08-26T09:59:32Z</time>
      </trkpt>
      <trkpt lat="45.08333" lon="5.82458">
        <ele>1350.79</ele>
        <time>2021-08-26T09:59:39Z</time>
      </trkpt>
      <trkpt lat="45.08334" lon="5.82451">
        <ele>1350.31</ele>
        <time>2021-08-26T09:59:43Z</time>
      </trkpt>
      <trkpt lat="45.08333" lon="5.82432">
        <ele>1337.33</ele>
        <time>2021-08-26T09:59:55Z</time>
      </trkpt>
      <trkpt lat="45.08333" lon="5.82432">
        <ele>1358</ele>
        <time>2021-08-26T09:59:56Z</time>
      </trkpt>
      <trkpt lat="45.08333" lon="5.82431">
        <ele>1346.46</ele>
        <time>2021-08-26T09:59:57Z</time>
      </trkpt>
      <trkpt lat="45.08333" lon="5.8243">
        <ele>1354.15</ele>
        <time>2021-08-26T09:59:59Z</time>
      </trkpt>
      <trkpt lat="45.08333" lon="5.8243">
        <ele>1334.93</ele>
        <time>2021-08-26T10:00:00Z</time>
      </trkpt>
      <trkpt lat="45.08333" lon="5.8243">
        <ele>1358.48</ele>
        <time>2021-08-26T10:00:01Z</time>
      </trkpt>
      <trkpt lat="45.08333" lon="5.8243">
        <ele>1352.23</ele>
        <time>2021-08-26T10:00:02Z</time>
      </trkpt>
      <trkpt lat="45.08333" lon="5.8243">
        <ele>1348.87</ele>
        <time>2021-08-26T10:00:03Z</time>
      </trkpt>
      <trkpt lat="45.08334" lon="5.82431">
        <ele>1348.39</ele>
        <time>2021-08-26T10:00:19Z</time>
      </trkpt>
      <trkpt lat="45.08334" lon="5.82431">
        <ele>1331.08</ele>
        <time>2021-08-26T10:00:26Z</time>
      </trkpt>
      <trkpt lat="45.08334" lon="5.82431">
        <ele>1359.92</ele>
        <time>2021-08-26T10:00:27Z</time>
      </trkpt>
      <trkpt lat="45.08334" lon="5.82431">
        <ele>1353.19</ele>
        <time>2021-08-26T10:00:28Z</time>
      </trkpt>
      <trkpt lat="45.08334" lon="5.82431">
        <ele>1332.04</ele>
        <time>2021-08-26T10:00:29Z</time>
      </trkpt>
      <trkpt lat="45.08333" lon="5.82431">
        <ele>1363.77</ele>
        <time>2021-08-26T10:00:30Z</time>
      </trkpt>
      <trkpt lat="45.08333" lon="5.82431">
        <ele>1350.79</ele>
        <time>2021-08-26T10:00:31Z</time>
      </trkpt>
      <trkpt lat="45.08332" lon="5.82424">
        <ele>1347.43</ele>
        <time>2021-08-26T10:00:42Z</time>
      </trkpt>
      <trkpt lat="45.08331" lon="5.82418">
        <ele>1346.94</ele>
        <time>2021-08-26T10:00:53Z</time>
      </trkpt>
      <trkpt lat="45.08328" lon="5.82414">
        <ele>1346.46</ele>
        <time>2021-08-26T10:01:16Z</time>
      </trkpt>
      <trkpt lat="45.08322" lon="5.824">
        <ele>1345.02</ele>
        <time>2021-08-26T10:01:30Z</time>
      </trkpt>
      <trkpt lat="45.08322" lon="5.82396">
        <ele>1339.73</ele>
        <time>2021-08-26T10:01:33Z</time>
      </trkpt>
      <trkpt lat="45.08321" lon="5.82395">
        <ele>1347.91</ele>
        <time>2021-08-26T10:01:34Z</time>
      </trkpt>
      <trkpt lat="45.08321" lon="5.82394">
        <ele>1344.54</ele>
        <time>2021-08-26T10:01:35Z</time>
      </trkpt>
      <trkpt lat="45.08322" lon="5.82388">
        <ele>1343.1</ele>
        <time>2021-08-26T10:01:44Z</time>
      </trkpt>
      <trkpt lat="45.08315" lon="5.82368">
        <ele>1340.7</ele>
        <time>2021-08-26T10:01:59Z</time>
      </trkpt>
      <trkpt lat="45.08313" lon="5.8236">
        <ele>1335.89</ele>
        <time>2021-08-26T10:02:06Z</time>
      </trkpt>
      <trkpt lat="45.08312" lon="5.82359">
        <ele>1345.98</ele>
        <time>2021-08-26T10:02:07Z</time>
      </trkpt>
      <trkpt lat="45.08312" lon="5.82359">
        <ele>1340.7</ele>
        <time>2021-08-26T10:02:08Z</time>
      </trkpt>
      <trkpt lat="45.08311" lon="5.82356">
        <ele>1339.25</ele>
        <time>2021-08-26T10:02:10Z</time>
      </trkpt>
      <trkpt lat="45.08306" lon="5.82339">
        <ele>1336.85</ele>
        <time>2021-08-26T10:02:24Z</time>
      </trkpt>
      <trkpt lat="45.08306" lon="5.82338">
        <ele>1336.85</ele>
        <time>2021-08-26T10:02:25Z</time>
      </trkpt>
      <trkpt lat="45.08304" lon="5.82334">
        <ele>1336.37</ele>
        <time>2021-08-26T10:02:29Z</time>
      </trkpt>
      <trkpt lat="45.08297" lon="5.82319">
        <ele>1334.45</ele>
        <time>2021-08-26T10:02:45Z</time>
      </trkpt>
      <trkpt lat="45.08289" lon="5.82304">
        <ele>1332.52</ele>
        <time>2021-08-26T10:03:01Z</time>
      </trkpt>
      <trkpt lat="45.08285" lon="5.82294">
        <ele>1331.08</ele>
        <time>2021-08-26T10:03:10Z</time>
      </trkpt>
      <trkpt lat="45.08278" lon="5.82278">
        <ele>1328.68</ele>
        <time>2021-08-26T10:03:26Z</time>
      </trkpt>
      <trkpt lat="45.08273" lon="5.82266">
        <ele>1320.03</ele>
        <time>2021-08-26T10:03:38Z</time>
      </trkpt>
      <trkpt lat="45.08273" lon="5.82265">
        <ele>1332.04</ele>
        <time>2021-08-26T10:03:39Z</time>
      </trkpt>
      <trkpt lat="45.08273" lon="5.82263">
        <ele>1327.24</ele>
        <time>2021-08-26T10:03:40Z</time>
      </trkpt>
      <trkpt lat="45.08272" lon="5.82261">
        <ele>1326.28</ele>
        <time>2021-08-26T10:03:42Z</time>
      </trkpt>
      <trkpt lat="45.08268" lon="5.82248">
        <ele>1324.35</ele>
        <time>2021-08-26T10:03:55Z</time>
      </trkpt>
      <trkpt lat="45.08259" lon="5.82246">
        <ele>1322.91</ele>
        <time>2021-08-26T10:04:10Z</time>
      </trkpt>
      <trkpt lat="45.08259" lon="5.82247">
        <ele>1318.1</ele>
        <time>2021-08-26T10:04:17Z</time>
      </trkpt>
      <trkpt lat="45.08259" lon="5.82247">
        <ele>1326.76</ele>
        <time>2021-08-26T10:04:18Z</time>
      </trkpt>
      <trkpt lat="45.08259" lon="5.82247">
        <ele>1322.91</ele>
        <time>2021-08-26T10:04:19Z</time>
      </trkpt>
      <trkpt lat="45.08258" lon="5.82247">
        <ele>1322.43</ele>
        <time>2021-08-26T10:04:45Z</time>
      </trkpt>
      <trkpt lat="45.08259" lon="5.82246">
        <ele>1322.43</ele>
        <time>2021-08-26T10:04:58Z</time>
      </trkpt>
      <trkpt lat="45.0826" lon="5.82246">
        <ele>1322.43</ele>
        <time>2021-08-26T10:05:17Z</time>
      </trkpt>
      <trkpt lat="45.08259" lon="5.82247">
        <ele>1322.43</ele>
        <time>2021-08-26T10:05:36Z</time>
      </trkpt>
      <trkpt lat="45.08259" lon="5.82247">
        <ele>1318.59</ele>
        <time>2021-08-26T10:05:51Z</time>
      </trkpt>
      <trkpt lat="45.08259" lon="5.82247">
        <ele>1326.76</ele>
        <time>2021-08-26T10:05:52Z</time>
      </trkpt>
      <trkpt lat="45.08259" lon="5.82247">
        <ele>1322.43</ele>
        <time>2021-08-26T10:05:53Z</time>
      </trkpt>
      <trkpt lat="45.08257" lon="5.82249">
        <ele>1317.62</ele>
        <time>2021-08-26T10:06:07Z</time>
      </trkpt>
      <trkpt lat="45.08257" lon="5.82249">
        <ele>1326.28</ele>
        <time>2021-08-26T10:06:08Z</time>
      </trkpt>
      <trkpt lat="45.08256" lon="5.82249">
        <ele>1326.28</ele>
        <time>2021-08-26T10:06:09Z</time>
      </trkpt>
      <trkpt lat="45.08255" lon="5.8225">
        <ele>1322.91</ele>
        <time>2021-08-26T10:06:10Z</time>
      </trkpt>
      <trkpt lat="45.08255" lon="5.8225">
        <ele>1322.91</ele>
        <time>2021-08-26T10:06:11Z</time>
      </trkpt>
      <trkpt lat="45.08246" lon="5.82257">
        <ele>1322.91</ele>
        <time>2021-08-26T10:06:26Z</time>
      </trkpt>
      <trkpt lat="45.08237" lon="5.82265">
        <ele>1323.87</ele>
        <time>2021-08-26T10:06:40Z</time>
      </trkpt>
      <trkpt lat="45.08225" lon="5.82276">
        <ele>1323.87</ele>
        <time>2021-08-26T10:06:56Z</time>
      </trkpt>
      <trkpt lat="45.08211" lon="5.82286">
        <ele>1323.87</ele>
        <time>2021-08-26T10:07:09Z</time>
      </trkpt>
      <trkpt lat="45.08203" lon="5.82293">
        <ele>1324.83</ele>
        <time>2021-08-26T10:07:22Z</time>
      </trkpt>
      <trkpt lat="45.08191" lon="5.82294">
        <ele>1325.31</ele>
        <time>2021-08-26T10:07:33Z</time>
      </trkpt>
      <trkpt lat="45.08183" lon="5.82305">
        <ele>1325.8</ele>
        <time>2021-08-26T10:07:47Z</time>
      </trkpt>
      <trkpt lat="45.08167" lon="5.82311">
        <ele>1326.76</ele>
        <time>2021-08-26T10:08:01Z</time>
      </trkpt>
      <trkpt lat="45.08161" lon="5.82321">
        <ele>1327.24</ele>
        <time>2021-08-26T10:08:15Z</time>
      </trkpt>
      <trkpt lat="45.08149" lon="5.82327">
        <ele>1327.72</ele>
        <time>2021-08-26T10:08:28Z</time>
      </trkpt>
      <trkpt lat="45.08137" lon="5.82335">
        <ele>1328.2</ele>
        <time>2021-08-26T10:08:40Z</time>
      </trkpt>
      <trkpt lat="45.08128" lon="5.82343">
        <ele>1328.2</ele>
        <time>2021-08-26T10:08:54Z</time>
      </trkpt>
      <trkpt lat="45.08113" lon="5.82348">
        <ele>1329.64</ele>
        <time>2021-08-26T10:09:09Z</time>
      </trkpt>
      <trkpt lat="45.08104" lon="5.82351">
        <ele>1330.6</ele>
        <time>2021-08-26T10:09:21Z</time>
      </trkpt>
      <trkpt lat="45.08089" lon="5.8236">
        <ele>1330.6</ele>
        <time>2021-08-26T10:09:38Z</time>
      </trkpt>
      <trkpt lat="45.08079" lon="5.82365">
        <ele>1331.08</ele>
        <time>2021-08-26T10:09:56Z</time>
      </trkpt>
      <trkpt lat="45.08067" lon="5.82369">
        <ele>1331.56</ele>
        <time>2021-08-26T10:10:09Z</time>
      </trkpt>
      <trkpt lat="45.08054" lon="5.82373">
        <ele>1332.52</ele>
        <time>2021-08-26T10:10:22Z</time>
      </trkpt>
      <trkpt lat="45.08051" lon="5.82374">
        <ele>1332.52</ele>
        <time>2021-08-26T10:10:25Z</time>
      </trkpt>
      <trkpt lat="45.08036" lon="5.82374">
        <ele>1333.49</ele>
        <time>2021-08-26T10:10:39Z</time>
      </trkpt>
      <trkpt lat="45.08029" lon="5.82379">
        <ele>1333.97</ele>
        <time>2021-08-26T10:10:48Z</time>
      </trkpt>
      <trkpt lat="45.08018" lon="5.8238">
        <ele>1333.97</ele>
        <time>2021-08-26T10:11:00Z</time>
      </trkpt>
      <trkpt lat="45.08006" lon="5.82384">
        <ele>1334.45</ele>
        <time>2021-08-26T10:11:14Z</time>
      </trkpt>
      <trkpt lat="45.08" lon="5.82387">
        <ele>1334.45</ele>
        <time>2021-08-26T10:11:25Z</time>
      </trkpt>
      <trkpt lat="45.07999" lon="5.82387">
        <ele>1334.45</ele>
        <time>2021-08-26T10:11:46Z</time>
      </trkpt>
      <trkpt lat="45.07993" lon="5.82385">
        <ele>1334.45</ele>
        <time>2021-08-26T10:11:57Z</time>
      </trkpt>
      <trkpt lat="45.0799" lon="5.82386">
        <ele>1334.45</ele>
        <time>2021-08-26T10:12:02Z</time>
      </trkpt>
      <trkpt lat="45.07978" lon="5.82385">
        <ele>1333.97</ele>
        <time>2021-08-26T10:12:15Z</time>
      </trkpt>
      <trkpt lat="45.07969" lon="5.8238">
        <ele>1333.97</ele>
        <time>2021-08-26T10:12:27Z</time>
      </trkpt>
      <trkpt lat="45.07959" lon="5.82373">
        <ele>1333.97</ele>
        <time>2021-08-26T10:12:40Z</time>
      </trkpt>
      <trkpt lat="45.07946" lon="5.82369">
        <ele>1333.97</ele>
        <time>2021-08-26T10:12:55Z</time>
      </trkpt>
      <trkpt lat="45.07936" lon="5.82365">
        <ele>1334.45</ele>
        <time>2021-08-26T10:13:07Z</time>
      </trkpt>
      <trkpt lat="45.0793" lon="5.8236">
        <ele>1334.93</ele>
        <time>2021-08-26T10:13:19Z</time>
      </trkpt>
      <trkpt lat="45.07923" lon="5.82355">
        <ele>1334.93</ele>
        <time>2021-08-26T10:13:31Z</time>
      </trkpt>
      <trkpt lat="45.07914" lon="5.82347">
        <ele>1335.89</ele>
        <time>2021-08-26T10:13:43Z</time>
      </trkpt>
      <trkpt lat="45.07911" lon="5.82345">
        <ele>1335.89</ele>
        <time>2021-08-26T10:13:46Z</time>
      </trkpt>
      <trkpt lat="45.07909" lon="5.82344">
        <ele>1336.37</ele>
        <time>2021-08-26T10:13:48Z</time>
      </trkpt>
      <trkpt lat="45.07901" lon="5.82335">
        <ele>1336.85</ele>
        <time>2021-08-26T10:14:00Z</time>
      </trkpt>
      <trkpt lat="45.07892" lon="5.82329">
        <ele>1337.81</ele>
        <time>2021-08-26T10:14:12Z</time>
      </trkpt>
      <trkpt lat="45.07882" lon="5.82326">
        <ele>1338.77</ele>
        <time>2021-08-26T10:14:24Z</time>
      </trkpt>
      <trkpt lat="45.07876" lon="5.82324">
        <ele>1339.25</ele>
        <time>2021-08-26T10:14:33Z</time>
      </trkpt>
      <trkpt lat="45.07865" lon="5.82318">
        <ele>1339.73</ele>
        <time>2021-08-26T10:14:47Z</time>
      </trkpt>
      <trkpt lat="45.07854" lon="5.82316">
        <ele>1340.22</ele>
        <time>2021-08-26T10:15:01Z</time>
      </trkpt>
      <trkpt lat="45.07842" lon="5.82313">
        <ele>1340.22</ele>
        <time>2021-08-26T10:15:14Z</time>
      </trkpt>
      <trkpt lat="45.07839" lon="5.82311">
        <ele>1340.22</ele>
        <time>2021-08-26T10:15:18Z</time>
      </trkpt>
      <trkpt lat="45.07834" lon="5.8231">
        <ele>1339.73</ele>
        <time>2021-08-26T10:15:23Z</time>
      </trkpt>
      <trkpt lat="45.07827" lon="5.82306">
        <ele>1339.73</ele>
        <time>2021-08-26T10:15:38Z</time>
      </trkpt>
      <trkpt lat="45.07823" lon="5.82305">
        <ele>1339.73</ele>
        <time>2021-08-26T10:15:51Z</time>
      </trkpt>
      <trkpt lat="45.07822" lon="5.82302">
        <ele>1330.6</ele>
        <time>2021-08-26T10:15:54Z</time>
      </trkpt>
      <trkpt lat="45.07822" lon="5.82301">
        <ele>1346.46</ele>
        <time>2021-08-26T10:15:55Z</time>
      </trkpt>
      <trkpt lat="45.07822" lon="5.823">
        <ele>1339.73</ele>
        <time>2021-08-26T10:15:56Z</time>
      </trkpt>
      <trkpt lat="45.07811" lon="5.82289">
        <ele>1337.81</ele>
        <time>2021-08-26T10:16:14Z</time>
      </trkpt>
      <trkpt lat="45.07804" lon="5.82285">
        <ele>1337.33</ele>
        <time>2021-08-26T10:16:30Z</time>
      </trkpt>
      <trkpt lat="45.07803" lon="5.82285">
        <ele>1327.24</ele>
        <time>2021-08-26T10:16:31Z</time>
      </trkpt>
      <trkpt lat="45.07803" lon="5.82285">
        <ele>1345.5</ele>
        <time>2021-08-26T10:16:32Z</time>
      </trkpt>
      <trkpt lat="45.07802" lon="5.82285">
        <ele>1337.81</ele>
        <time>2021-08-26T10:16:33Z</time>
      </trkpt>
      <trkpt lat="45.07796" lon="5.82281">
        <ele>1336.85</ele>
        <time>2021-08-26T10:16:48Z</time>
      </trkpt>
      <trkpt lat="45.07783" lon="5.8227">
        <ele>1335.41</ele>
        <time>2021-08-26T10:17:03Z</time>
      </trkpt>
      <trkpt lat="45.07775" lon="5.82264">
        <ele>1334.93</ele>
        <time>2021-08-26T10:17:20Z</time>
      </trkpt>
      <trkpt lat="45.07773" lon="5.82263">
        <ele>1334.93</ele>
        <time>2021-08-26T10:17:36Z</time>
      </trkpt>
      <trkpt lat="45.07773" lon="5.82259">
        <ele>1326.76</ele>
        <time>2021-08-26T10:17:44Z</time>
      </trkpt>
      <trkpt lat="45.07773" lon="5.82259">
        <ele>1340.7</ele>
        <time>2021-08-26T10:17:45Z</time>
      </trkpt>
      <trkpt lat="45.07773" lon="5.82257">
        <ele>1334.93</ele>
        <time>2021-08-26T10:17:46Z</time>
      </trkpt>
      <trkpt lat="45.07768" lon="5.82243">
        <ele>1332.52</ele>
        <time>2021-08-26T10:18:01Z</time>
      </trkpt>
      <trkpt lat="45.07761" lon="5.82235">
        <ele>1329.16</ele>
        <time>2021-08-26T10:18:15Z</time>
      </trkpt>
      <trkpt lat="45.07754" lon="5.82229">
        <ele>1326.28</ele>
        <time>2021-08-26T10:18:28Z</time>
      </trkpt>
      <trkpt lat="45.07744" lon="5.82218">
        <ele>1323.87</ele>
        <time>2021-08-26T10:18:41Z</time>
      </trkpt>
      <trkpt lat="45.07737" lon="5.82201">
        <ele>1322.43</ele>
        <time>2021-08-26T10:18:55Z</time>
      </trkpt>
      <trkpt lat="45.07726" lon="5.822">
        <ele>1320.99</ele>
        <time>2021-08-26T10:19:11Z</time>
      </trkpt>
      <trkpt lat="45.07723" lon="5.82196">
        <ele>1320.99</ele>
        <time>2021-08-26T10:19:26Z</time>
      </trkpt>
      <trkpt lat="45.07723" lon="5.82195">
        <ele>1320.99</ele>
        <time>2021-08-26T10:19:40Z</time>
      </trkpt>
      <trkpt lat="45.07724" lon="5.82193">
        <ele>1320.51</ele>
        <time>2021-08-26T10:20:02Z</time>
      </trkpt>
      <trkpt lat="45.07719" lon="5.82187">
        <ele>1320.51</ele>
        <time>2021-08-26T10:20:18Z</time>
      </trkpt>
      <trkpt lat="45.07715" lon="5.82185">
        <ele>1320.03</ele>
        <time>2021-08-26T10:20:32Z</time>
      </trkpt>
      <trkpt lat="45.07713" lon="5.82181">
        <ele>1320.03</ele>
        <time>2021-08-26T10:20:45Z</time>
      </trkpt>
      <trkpt lat="45.07709" lon="5.82175">
        <ele>1320.03</ele>
        <time>2021-08-26T10:21:04Z</time>
      </trkpt>
      <trkpt lat="45.07702" lon="5.82165">
        <ele>1320.03</ele>
        <time>2021-08-26T10:21:14Z</time>
      </trkpt>
      <trkpt lat="45.07695" lon="5.82159">
        <ele>1320.99</ele>
        <time>2021-08-26T10:21:24Z</time>
      </trkpt>
      <trkpt lat="45.07685" lon="5.82147">
        <ele>1321.47</ele>
        <time>2021-08-26T10:21:35Z</time>
      </trkpt>
      <trkpt lat="45.07678" lon="5.82127">
        <ele>1320.51</ele>
        <time>2021-08-26T10:21:51Z</time>
      </trkpt>
      <trkpt lat="45.07672" lon="5.82112">
        <ele>1319.55</ele>
        <time>2021-08-26T10:22:05Z</time>
      </trkpt>
      <trkpt lat="45.07659" lon="5.82089">
        <ele>1319.55</ele>
        <time>2021-08-26T10:22:16Z</time>
      </trkpt>
      <trkpt lat="45.07657" lon="5.82075">
        <ele>1320.03</ele>
        <time>2021-08-26T10:22:29Z</time>
      </trkpt>
      <trkpt lat="45.07659" lon="5.8207">
        <ele>1319.55</ele>
        <time>2021-08-26T10:22:48Z</time>
      </trkpt>
      <trkpt lat="45.07658" lon="5.82066">
        <ele>1319.55</ele>
        <time>2021-08-26T10:22:54Z</time>
      </trkpt>
      <trkpt lat="45.07658" lon="5.8206">
        <ele>1319.07</ele>
        <time>2021-08-26T10:22:58Z</time>
      </trkpt>
      <trkpt lat="45.07659" lon="5.82042">
        <ele>1318.1</ele>
        <time>2021-08-26T10:23:11Z</time>
      </trkpt>
      <trkpt lat="45.07653" lon="5.82022">
        <ele>1316.18</ele>
        <time>2021-08-26T10:23:24Z</time>
      </trkpt>
      <trkpt lat="45.07651" lon="5.82019">
        <ele>1315.22</ele>
        <time>2021-08-26T10:23:34Z</time>
      </trkpt>
      <trkpt lat="45.0765" lon="5.82016">
        <ele>1314.26</ele>
        <time>2021-08-26T10:23:48Z</time>
      </trkpt>
      <trkpt lat="45.07649" lon="5.82015">
        <ele>1312.82</ele>
        <time>2021-08-26T10:24:06Z</time>
      </trkpt>
      <trkpt lat="45.07647" lon="5.82012">
        <ele>1311.38</ele>
        <time>2021-08-26T10:24:22Z</time>
      </trkpt>
      <trkpt lat="45.07641" lon="5.82007">
        <ele>1309.45</ele>
        <time>2021-08-26T10:24:36Z</time>
      </trkpt>
      <trkpt lat="45.07637" lon="5.82003">
        <ele>1308.01</ele>
        <time>2021-08-26T10:24:53Z</time>
      </trkpt>
      <trkpt lat="45.07632" lon="5.81998">
        <ele>1306.09</ele>
        <time>2021-08-26T10:25:09Z</time>
      </trkpt>
      <trkpt lat="45.07627" lon="5.81996">
        <ele>1304.17</ele>
        <time>2021-08-26T10:25:23Z</time>
      </trkpt>
      <trkpt lat="45.07625" lon="5.81994">
        <ele>1302.72</ele>
        <time>2021-08-26T10:25:40Z</time>
      </trkpt>
      <trkpt lat="45.07623" lon="5.81987">
        <ele>1301.28</ele>
        <time>2021-08-26T10:25:54Z</time>
      </trkpt>
      <trkpt lat="45.07621" lon="5.81983">
        <ele>1299.84</ele>
        <time>2021-08-26T10:26:07Z</time>
      </trkpt>
      <trkpt lat="45.07617" lon="5.81975">
        <ele>1298.4</ele>
        <time>2021-08-26T10:26:20Z</time>
      </trkpt>
      <trkpt lat="45.07613" lon="5.81967">
        <ele>1296.96</ele>
        <time>2021-08-26T10:26:37Z</time>
      </trkpt>
      <trkpt lat="45.07611" lon="5.81965">
        <ele>1295.03</ele>
        <time>2021-08-26T10:26:51Z</time>
      </trkpt>
      <trkpt lat="45.07609" lon="5.81963">
        <ele>1293.59</ele>
        <time>2021-08-26T10:27:08Z</time>
      </trkpt>
      <trkpt lat="45.076" lon="5.81956">
        <ele>1292.15</ele>
        <time>2021-08-26T10:27:24Z</time>
      </trkpt>
      <trkpt lat="45.07589" lon="5.81949">
        <ele>1290.71</ele>
        <time>2021-08-26T10:27:39Z</time>
      </trkpt>
      <trkpt lat="45.07574" lon="5.81934">
        <ele>1289.27</ele>
        <time>2021-08-26T10:27:54Z</time>
      </trkpt>
      <trkpt lat="45.07567" lon="5.81926">
        <ele>1288.3</ele>
        <time>2021-08-26T10:28:07Z</time>
      </trkpt>
      <trkpt lat="45.07565" lon="5.81922">
        <ele>1286.86</ele>
        <time>2021-08-26T10:28:22Z</time>
      </trkpt>
      <trkpt lat="45.07562" lon="5.81919">
        <ele>1285.42</ele>
        <time>2021-08-26T10:28:39Z</time>
      </trkpt>
      <trkpt lat="45.07554" lon="5.81912">
        <ele>1283.98</ele>
        <time>2021-08-26T10:28:54Z</time>
      </trkpt>
      <trkpt lat="45.07542" lon="5.81899">
        <ele>1283.02</ele>
        <time>2021-08-26T10:29:11Z</time>
      </trkpt>
      <trkpt lat="45.07536" lon="5.81895">
        <ele>1281.57</ele>
        <time>2021-08-26T10:29:27Z</time>
      </trkpt>
      <trkpt lat="45.0753" lon="5.81888">
        <ele>1280.61</ele>
        <time>2021-08-26T10:29:41Z</time>
      </trkpt>
      <trkpt lat="45.07525" lon="5.81882">
        <ele>1278.69</ele>
        <time>2021-08-26T10:29:57Z</time>
      </trkpt>
      <trkpt lat="45.07524" lon="5.81881">
        <ele>1277.25</ele>
        <time>2021-08-26T10:30:14Z</time>
      </trkpt>
      <trkpt lat="45.07519" lon="5.81874">
        <ele>1275.81</ele>
        <time>2021-08-26T10:30:30Z</time>
      </trkpt>
      <trkpt lat="45.07514" lon="5.81869">
        <ele>1274.85</ele>
        <time>2021-08-26T10:30:41Z</time>
      </trkpt>
      <trkpt lat="45.07509" lon="5.8186">
        <ele>1273.4</ele>
        <time>2021-08-26T10:30:54Z</time>
      </trkpt>
      <trkpt lat="45.07505" lon="5.81856">
        <ele>1271.48</ele>
        <time>2021-08-26T10:31:09Z</time>
      </trkpt>
      <trkpt lat="45.07503" lon="5.81853">
        <ele>1271</ele>
        <time>2021-08-26T10:31:27Z</time>
      </trkpt>
      <trkpt lat="45.07502" lon="5.81853">
        <ele>1255.62</ele>
        <time>2021-08-26T10:31:40Z</time>
      </trkpt>
      <trkpt lat="45.07502" lon="5.81853">
        <ele>1282.06</ele>
        <time>2021-08-26T10:31:41Z</time>
      </trkpt>
      <trkpt lat="45.07502" lon="5.81853">
        <ele>1271.48</ele>
        <time>2021-08-26T10:31:42Z</time>
      </trkpt>
      <trkpt lat="45.07502" lon="5.81853">
        <ele>1271</ele>
        <time>2021-08-26T10:31:44Z</time>
      </trkpt>
      <trkpt lat="45.07502" lon="5.81852">
        <ele>1259.94</ele>
        <time>2021-08-26T10:31:47Z</time>
      </trkpt>
      <trkpt lat="45.07502" lon="5.81852">
        <ele>1279.17</ele>
        <time>2021-08-26T10:31:48Z</time>
      </trkpt>
      <trkpt lat="45.07502" lon="5.81852">
        <ele>1269.08</ele>
        <time>2021-08-26T10:31:49Z</time>
      </trkpt>
      <trkpt lat="45.07502" lon="5.81852">
        <ele>1274.85</ele>
        <time>2021-08-26T10:31:50Z</time>
      </trkpt>
      <trkpt lat="45.07502" lon="5.81852">
        <ele>1271.48</ele>
        <time>2021-08-26T10:31:51Z</time>
      </trkpt>
      <trkpt lat="45.07502" lon="5.81852">
        <ele>1271</ele>
        <time>2021-08-26T10:31:53Z</time>
      </trkpt>
      <trkpt lat="45.07501" lon="5.8185">
        <ele>1257.06</ele>
        <time>2021-08-26T10:32:05Z</time>
      </trkpt>
      <trkpt lat="45.07501" lon="5.8185">
        <ele>1278.69</ele>
        <time>2021-08-26T10:32:06Z</time>
      </trkpt>
      <trkpt lat="45.07501" lon="5.8185">
        <ele>1271.96</ele>
        <time>2021-08-26T10:32:07Z</time>
      </trkpt>
      <trkpt lat="45.075" lon="5.8185">
        <ele>1261.39</ele>
        <time>2021-08-26T10:32:08Z</time>
      </trkpt>
      <trkpt lat="45.075" lon="5.8185">
        <ele>1279.17</ele>
        <time>2021-08-26T10:32:09Z</time>
      </trkpt>
      <trkpt lat="45.075" lon="5.8185">
        <ele>1262.35</ele>
        <time>2021-08-26T10:32:10Z</time>
      </trkpt>
      <trkpt lat="45.075" lon="5.81849">
        <ele>1284.46</ele>
        <time>2021-08-26T10:32:11Z</time>
      </trkpt>
      <trkpt lat="45.075" lon="5.81849">
        <ele>1273.88</ele>
        <time>2021-08-26T10:32:12Z</time>
      </trkpt>
      <trkpt lat="45.075" lon="5.81849">
        <ele>1271</ele>
        <time>2021-08-26T10:32:14Z</time>
      </trkpt>
      <trkpt lat="45.07499" lon="5.81846">
        <ele>1269.56</ele>
        <time>2021-08-26T10:32:30Z</time>
      </trkpt>
      <trkpt lat="45.07496" lon="5.81841">
        <ele>1267.64</ele>
        <time>2021-08-26T10:32:46Z</time>
      </trkpt>
      <trkpt lat="45.07494" lon="5.81839">
        <ele>1266.19</ele>
        <time>2021-08-26T10:32:58Z</time>
      </trkpt>
      <trkpt lat="45.07492" lon="5.81836">
        <ele>1264.75</ele>
        <time>2021-08-26T10:33:13Z</time>
      </trkpt>
      <trkpt lat="45.07483" lon="5.8182">
        <ele>1262.83</ele>
        <time>2021-08-26T10:33:28Z</time>
      </trkpt>
      <trkpt lat="45.07476" lon="5.81807">
        <ele>1261.87</ele>
        <time>2021-08-26T10:33:40Z</time>
      </trkpt>
      <trkpt lat="45.07471" lon="5.81801">
        <ele>1260.43</ele>
        <time>2021-08-26T10:33:51Z</time>
      </trkpt>
      <trkpt lat="45.07466" lon="5.81799">
        <ele>1258.98</ele>
        <time>2021-08-26T10:34:04Z</time>
      </trkpt>
      <trkpt lat="45.07461" lon="5.81795">
        <ele>1257.54</ele>
        <time>2021-08-26T10:34:17Z</time>
      </trkpt>
      <trkpt lat="45.07456" lon="5.81792">
        <ele>1256.1</ele>
        <time>2021-08-26T10:34:30Z</time>
      </trkpt>
      <trkpt lat="45.0745" lon="5.81792">
        <ele>1255.14</ele>
        <time>2021-08-26T10:34:47Z</time>
      </trkpt>
      <trkpt lat="45.07445" lon="5.81788">
        <ele>1253.22</ele>
        <time>2021-08-26T10:35:01Z</time>
      </trkpt>
      <trkpt lat="45.07442" lon="5.81786">
        <ele>1252.74</ele>
        <time>2021-08-26T10:35:13Z</time>
      </trkpt>
      <trkpt lat="45.0744" lon="5.81786">
        <ele>1251.77</ele>
        <time>2021-08-26T10:35:19Z</time>
      </trkpt>
      <trkpt lat="45.07432" lon="5.81783">
        <ele>1250.81</ele>
        <time>2021-08-26T10:35:34Z</time>
      </trkpt>
      <trkpt lat="45.07424" lon="5.81777">
        <ele>1249.85</ele>
        <time>2021-08-26T10:35:51Z</time>
      </trkpt>
      <trkpt lat="45.07419" lon="5.81774">
        <ele>1248.41</ele>
        <time>2021-08-26T10:36:09Z</time>
      </trkpt>
      <trkpt lat="45.07415" lon="5.81772">
        <ele>1246.97</ele>
        <time>2021-08-26T10:36:24Z</time>
      </trkpt>
      <trkpt lat="45.07404" lon="5.8176">
        <ele>1245.04</ele>
        <time>2021-08-26T10:36:41Z</time>
      </trkpt>
      <trkpt lat="45.07399" lon="5.81755">
        <ele>1244.08</ele>
        <time>2021-08-26T10:36:59Z</time>
      </trkpt>
      <trkpt lat="45.07397" lon="5.81753">
        <ele>1243.6</ele>
        <time>2021-08-26T10:37:11Z</time>
      </trkpt>
      <trkpt lat="45.07395" lon="5.81752">
        <ele>1242.64</ele>
        <time>2021-08-26T10:37:23Z</time>
      </trkpt>
      <trkpt lat="45.07395" lon="5.8175">
        <ele>1241.68</ele>
        <time>2021-08-26T10:37:28Z</time>
      </trkpt>
      <trkpt lat="45.07392" lon="5.81743">
        <ele>1240.72</ele>
        <time>2021-08-26T10:37:41Z</time>
      </trkpt>
      <trkpt lat="45.0739" lon="5.81738">
        <ele>1239.76</ele>
        <time>2021-08-26T10:37:55Z</time>
      </trkpt>
      <trkpt lat="45.07387" lon="5.81732">
        <ele>1238.8</ele>
        <time>2021-08-26T10:38:06Z</time>
      </trkpt>
      <trkpt lat="45.07381" lon="5.81723">
        <ele>1237.35</ele>
        <time>2021-08-26T10:38:20Z</time>
      </trkpt>
      <trkpt lat="45.07379" lon="5.81718">
        <ele>1236.39</ele>
        <time>2021-08-26T10:38:34Z</time>
      </trkpt>
      <trkpt lat="45.07376" lon="5.81715">
        <ele>1235.91</ele>
        <time>2021-08-26T10:38:56Z</time>
      </trkpt>
      <trkpt lat="45.07372" lon="5.8171">
        <ele>1234.47</ele>
        <time>2021-08-26T10:39:12Z</time>
      </trkpt>
      <trkpt lat="45.07371" lon="5.81707">
        <ele>1233.03</ele>
        <time>2021-08-26T10:39:28Z</time>
      </trkpt>
      <trkpt lat="45.07369" lon="5.81704">
        <ele>1232.07</ele>
        <time>2021-08-26T10:39:41Z</time>
      </trkpt>
      <trkpt lat="45.07366" lon="5.81699">
        <ele>1231.11</ele>
        <time>2021-08-26T10:39:53Z</time>
      </trkpt>
      <trkpt lat="45.07364" lon="5.81697">
        <ele>1229.66</ele>
        <time>2021-08-26T10:40:08Z</time>
      </trkpt>
      <trkpt lat="45.07363" lon="5.81694">
        <ele>1228.22</ele>
        <time>2021-08-26T10:40:24Z</time>
      </trkpt>
      <trkpt lat="45.07363" lon="5.81694">
        <ele>1228.7</ele>
        <time>2021-08-26T10:40:40Z</time>
      </trkpt>
      <trkpt lat="45.07352" lon="5.81682">
        <ele>1228.7</ele>
        <time>2021-08-26T10:41:14Z</time>
      </trkpt>
      <trkpt lat="45.07351" lon="5.8168">
        <ele>1228.7</ele>
        <time>2021-08-26T10:41:44Z</time>
      </trkpt>
      <trkpt lat="45.07352" lon="5.81679">
        <ele>1226.78</ele>
        <time>2021-08-26T10:42:00Z</time>
      </trkpt>
      <trkpt lat="45.07349" lon="5.81672">
        <ele>1225.34</ele>
        <time>2021-08-26T10:42:12Z</time>
      </trkpt>
      <trkpt lat="45.07348" lon="5.81668">
        <ele>1223.9</ele>
        <time>2021-08-26T10:42:24Z</time>
      </trkpt>
      <trkpt lat="45.07344" lon="5.81655">
        <ele>1221.97</ele>
        <time>2021-08-26T10:42:40Z</time>
      </trkpt>
      <trkpt lat="45.07341" lon="5.8165">
        <ele>1222.45</ele>
        <time>2021-08-26T10:42:54Z</time>
      </trkpt>
      <trkpt lat="45.07338" lon="5.81641">
        <ele>1221.49</ele>
        <time>2021-08-26T10:43:04Z</time>
      </trkpt>
      <trkpt lat="45.07338" lon="5.81636">
        <ele>1220.53</ele>
        <time>2021-08-26T10:43:18Z</time>
      </trkpt>
      <trkpt lat="45.07342" lon="5.81636">
        <ele>1221.01</ele>
        <time>2021-08-26T10:43:32Z</time>
      </trkpt>
      <trkpt lat="45.07344" lon="5.81632">
        <ele>1221.01</ele>
        <time>2021-08-26T10:43:50Z</time>
      </trkpt>
      <trkpt lat="45.07344" lon="5.81631">
        <ele>1220.53</ele>
        <time>2021-08-26T10:43:53Z</time>
      </trkpt>
      <trkpt lat="45.07343" lon="5.81625">
        <ele>1219.57</ele>
        <time>2021-08-26T10:44:06Z</time>
      </trkpt>
      <trkpt lat="45.07343" lon="5.81624">
        <ele>1220.05</ele>
        <time>2021-08-26T10:44:34Z</time>
      </trkpt>
      <trkpt lat="45.07343" lon="5.81623">
        <ele>1219.57</ele>
        <time>2021-08-26T10:45:02Z</time>
      </trkpt>
      <trkpt lat="45.07343" lon="5.81623">
        <ele>1219.57</ele>
        <time>2021-08-26T10:45:27Z</time>
      </trkpt>
      <trkpt lat="45.07343" lon="5.81622">
        <ele>1219.57</ele>
        <time>2021-08-26T10:45:50Z</time>
      </trkpt>
      <trkpt lat="45.07343" lon="5.81622">
        <ele>1219.09</ele>
        <time>2021-08-26T10:46:24Z</time>
      </trkpt>
      <trkpt lat="45.07343" lon="5.81622">
        <ele>1219.09</ele>
        <time>2021-08-26T10:46:59Z</time>
      </trkpt>
      <trkpt lat="45.07343" lon="5.81622">
        <ele>1219.09</ele>
        <time>2021-08-26T10:47:30Z</time>
      </trkpt>
      <trkpt lat="45.07343" lon="5.81622">
        <ele>1218.61</ele>
        <time>2021-08-26T10:48:02Z</time>
      </trkpt>
      <trkpt lat="45.07343" lon="5.81622">
        <ele>1218.61</ele>
        <time>2021-08-26T10:48:34Z</time>
      </trkpt>
      <trkpt lat="45.07343" lon="5.81622">
        <ele>1218.61</ele>
        <time>2021-08-26T10:49:08Z</time>
      </trkpt>
      <trkpt lat="45.07343" lon="5.81623">
        <ele>1215.24</ele>
        <time>2021-08-26T10:49:13Z</time>
      </trkpt>
      <trkpt lat="45.07343" lon="5.81623">
        <ele>1222.45</ele>
        <time>2021-08-26T10:49:14Z</time>
      </trkpt>
      <trkpt lat="45.07343" lon="5.81623">
        <ele>1219.09</ele>
        <time>2021-08-26T10:49:15Z</time>
      </trkpt>
      <trkpt lat="45.07343" lon="5.81623">
        <ele>1211.88</ele>
        <time>2021-08-26T10:49:18Z</time>
      </trkpt>
      <trkpt lat="45.07343" lon="5.81623">
        <ele>1224.38</ele>
        <time>2021-08-26T10:49:19Z</time>
      </trkpt>
      <trkpt lat="45.07343" lon="5.81623">
        <ele>1216.69</ele>
        <time>2021-08-26T10:49:20Z</time>
      </trkpt>
      <trkpt lat="45.07343" lon="5.81623">
        <ele>1219.57</ele>
        <time>2021-08-26T10:49:21Z</time>
      </trkpt>
      <trkpt lat="45.07336" lon="5.81618">
        <ele>1217.17</ele>
        <time>2021-08-26T11:51:46Z</time>
      </trkpt>
      <trkpt lat="45.07336" lon="5.8162">
        <ele>1217.17</ele>
        <time>2021-08-26T11:51:47Z</time>
      </trkpt>
      <trkpt lat="45.07345" lon="5.8162">
        <ele>1213.32</ele>
        <time>2021-08-26T11:51:59Z</time>
      </trkpt>
      <trkpt lat="45.07345" lon="5.8162">
        <ele>1220.05</ele>
        <time>2021-08-26T11:52:00Z</time>
      </trkpt>
      <trkpt lat="45.07346" lon="5.81619">
        <ele>1217.17</ele>
        <time>2021-08-26T11:52:04Z</time>
      </trkpt>
      <trkpt lat="45.07341" lon="5.81618">
        <ele>1217.17</ele>
        <time>2021-08-26T11:52:35Z</time>
      </trkpt>
      <trkpt lat="45.07343" lon="5.81621">
        <ele>1217.17</ele>
        <time>2021-08-26T11:53:06Z</time>
      </trkpt>
      <trkpt lat="45.07344" lon="5.81625">
        <ele>1217.17</ele>
        <time>2021-08-26T11:53:37Z</time>
      </trkpt>
      <trkpt lat="45.07343" lon="5.81623">
        <ele>1217.65</ele>
        <time>2021-08-26T11:54:07Z</time>
      </trkpt>
      <trkpt lat="45.07343" lon="5.81622">
        <ele>1217.65</ele>
        <time>2021-08-26T11:54:39Z</time>
      </trkpt>
      <trkpt lat="45.07342" lon="5.81622">
        <ele>1217.65</ele>
        <time>2021-08-26T11:55:09Z</time>
      </trkpt>
      <trkpt lat="45.07341" lon="5.81622">
        <ele>1217.65</ele>
        <time>2021-08-26T11:55:40Z</time>
      </trkpt>
      <trkpt lat="45.07342" lon="5.81621">
        <ele>1218.13</ele>
        <time>2021-08-26T11:56:11Z</time>
      </trkpt>
      <trkpt lat="45.07342" lon="5.8162">
        <ele>1199.38</ele>
        <time>2021-08-26T11:56:29Z</time>
      </trkpt>
      <trkpt lat="45.07342" lon="5.8162">
        <ele>1237.83</ele>
        <time>2021-08-26T11:56:30Z</time>
      </trkpt>
      <trkpt lat="45.07342" lon="5.8162">
        <ele>1219.57</ele>
        <time>2021-08-26T11:56:31Z</time>
      </trkpt>
      <trkpt lat="45.07342" lon="5.8162">
        <ele>1211.88</ele>
        <time>2021-08-26T11:56:32Z</time>
      </trkpt>
      <trkpt lat="45.07342" lon="5.8162">
        <ele>1225.82</ele>
        <time>2021-08-26T11:56:33Z</time>
      </trkpt>
      <trkpt lat="45.07342" lon="5.8162">
        <ele>1212.84</ele>
        <time>2021-08-26T11:56:34Z</time>
      </trkpt>
      <trkpt lat="45.07342" lon="5.8162">
        <ele>1218.13</ele>
        <time>2021-08-26T11:56:35Z</time>
      </trkpt>
      <trkpt lat="45.07342" lon="5.8162">
        <ele>1217.17</ele>
        <time>2021-08-26T11:56:58Z</time>
      </trkpt>
      <trkpt lat="45.07342" lon="5.81619">
        <ele>1217.65</ele>
        <time>2021-08-26T11:57:17Z</time>
      </trkpt>
      <trkpt lat="45.07342" lon="5.81619">
        <ele>1218.61</ele>
        <time>2021-08-26T11:57:31Z</time>
      </trkpt>
      <trkpt lat="45.07343" lon="5.8162">
        <ele>1218.61</ele>
        <time>2021-08-26T11:57:47Z</time>
      </trkpt>
      <trkpt lat="45.07343" lon="5.81619">
        <ele>1219.09</ele>
        <time>2021-08-26T11:58:09Z</time>
      </trkpt>
      <trkpt lat="45.07338" lon="5.81622">
        <ele>1218.61</ele>
        <time>2021-08-26T11:58:25Z</time>
      </trkpt>
      <trkpt lat="45.07332" lon="5.81623">
        <ele>1217.65</ele>
        <time>2021-08-26T11:58:39Z</time>
      </trkpt>
      <trkpt lat="45.07322" lon="5.81616">
        <ele>1216.21</ele>
        <time>2021-08-26T11:58:58Z</time>
      </trkpt>
      <trkpt lat="45.07315" lon="5.81617">
        <ele>1215.24</ele>
        <time>2021-08-26T11:59:13Z</time>
      </trkpt>
      <trkpt lat="45.07311" lon="5.8161">
        <ele>1213.32</ele>
        <time>2021-08-26T11:59:29Z</time>
      </trkpt>
      <trkpt lat="45.07307" lon="5.81608">
        <ele>1212.84</ele>
        <time>2021-08-26T11:59:46Z</time>
      </trkpt>
      <trkpt lat="45.07303" lon="5.81605">
        <ele>1210.92</ele>
        <time>2021-08-26T12:00:04Z</time>
      </trkpt>
      <trkpt lat="45.07301" lon="5.81601">
        <ele>1209</ele>
        <time>2021-08-26T12:00:20Z</time>
      </trkpt>
      <trkpt lat="45.07291" lon="5.81588">
        <ele>1206.59</ele>
        <time>2021-08-26T12:00:40Z</time>
      </trkpt>
      <trkpt lat="45.07284" lon="5.81582">
        <ele>1204.67</ele>
        <time>2021-08-26T12:01:00Z</time>
      </trkpt>
      <trkpt lat="45.07282" lon="5.81579">
        <ele>1202.75</ele>
        <time>2021-08-26T12:01:18Z</time>
      </trkpt>
      <trkpt lat="45.07279" lon="5.81578">
        <ele>1200.34</ele>
        <time>2021-08-26T12:01:36Z</time>
      </trkpt>
      <trkpt lat="45.07272" lon="5.81565">
        <ele>1197.94</ele>
        <time>2021-08-26T12:01:55Z</time>
      </trkpt>
      <trkpt lat="45.07269" lon="5.81559">
        <ele>1195.54</ele>
        <time>2021-08-26T12:02:13Z</time>
      </trkpt>
      <trkpt lat="45.07264" lon="5.81553">
        <ele>1192.65</ele>
        <time>2021-08-26T12:02:34Z</time>
      </trkpt>
      <trkpt lat="45.07256" lon="5.81539">
        <ele>1189.77</ele>
        <time>2021-08-26T12:02:52Z</time>
      </trkpt>
      <trkpt lat="45.07252" lon="5.81528">
        <ele>1187.37</ele>
        <time>2021-08-26T12:03:08Z</time>
      </trkpt>
      <trkpt lat="45.07249" lon="5.81509">
        <ele>1187.37</ele>
        <time>2021-08-26T12:03:22Z</time>
      </trkpt>
      <trkpt lat="45.07245" lon="5.81499">
        <ele>1185.44</ele>
        <time>2021-08-26T12:03:36Z</time>
      </trkpt>
      <trkpt lat="45.07239" lon="5.81492">
        <ele>1183.04</ele>
        <time>2021-08-26T12:03:52Z</time>
      </trkpt>
      <trkpt lat="45.07232" lon="5.81484">
        <ele>1180.16</ele>
        <time>2021-08-26T12:04:08Z</time>
      </trkpt>
      <trkpt lat="45.07226" lon="5.81481">
        <ele>1178.23</ele>
        <time>2021-08-26T12:04:29Z</time>
      </trkpt>
      <trkpt lat="45.07211" lon="5.81473">
        <ele>1174.87</ele>
        <time>2021-08-26T12:04:46Z</time>
      </trkpt>
      <trkpt lat="45.07205" lon="5.81464">
        <ele>1173.91</ele>
        <time>2021-08-26T12:04:56Z</time>
      </trkpt>
      <trkpt lat="45.07191" lon="5.8145">
        <ele>1173.91</ele>
        <time>2021-08-26T12:05:14Z</time>
      </trkpt>
      <trkpt lat="45.07183" lon="5.81445">
        <ele>1174.39</ele>
        <time>2021-08-26T12:05:23Z</time>
      </trkpt>
      <trkpt lat="45.07172" lon="5.81435">
        <ele>1175.83</ele>
        <time>2021-08-26T12:05:37Z</time>
      </trkpt>
      <trkpt lat="45.07165" lon="5.81424">
        <ele>1177.75</ele>
        <time>2021-08-26T12:05:51Z</time>
      </trkpt>
      <trkpt lat="45.07163" lon="5.81423">
        <ele>1177.75</ele>
        <time>2021-08-26T12:06:13Z</time>
      </trkpt>
      <trkpt lat="45.07163" lon="5.81423">
        <ele>1177.27</ele>
        <time>2021-08-26T12:06:38Z</time>
      </trkpt>
      <trkpt lat="45.07164" lon="5.81423">
        <ele>1177.75</ele>
        <time>2021-08-26T12:07:07Z</time>
      </trkpt>
      <trkpt lat="45.07164" lon="5.81422">
        <ele>1177.27</ele>
        <time>2021-08-26T12:07:34Z</time>
      </trkpt>
      <trkpt lat="45.07164" lon="5.81421">
        <ele>1176.79</ele>
        <time>2021-08-26T12:07:56Z</time>
      </trkpt>
      <trkpt lat="45.07169" lon="5.81426">
        <ele>1175.35</ele>
        <time>2021-08-26T12:08:13Z</time>
      </trkpt>
      <trkpt lat="45.07176" lon="5.81434">
        <ele>1173.43</ele>
        <time>2021-08-26T12:08:27Z</time>
      </trkpt>
      <trkpt lat="45.07181" lon="5.81438">
        <ele>1173.43</ele>
        <time>2021-08-26T12:08:42Z</time>
      </trkpt>
      <trkpt lat="45.07187" lon="5.81439">
        <ele>1173.43</ele>
        <time>2021-08-26T12:09:01Z</time>
      </trkpt>
      <trkpt lat="45.07189" lon="5.81436">
        <ele>1169.1</ele>
        <time>2021-08-26T12:09:14Z</time>
      </trkpt>
      <trkpt lat="45.07189" lon="5.81436">
        <ele>1176.31</ele>
        <time>2021-08-26T12:09:15Z</time>
      </trkpt>
      <trkpt lat="45.07189" lon="5.81437">
        <ele>1173.43</ele>
        <time>2021-08-26T12:09:18Z</time>
      </trkpt>
      <trkpt lat="45.07189" lon="5.81438">
        <ele>1172.95</ele>
        <time>2021-08-26T12:09:42Z</time>
      </trkpt>
      <trkpt lat="45.07192" lon="5.81446">
        <ele>1171.98</ele>
        <time>2021-08-26T12:09:49Z</time>
      </trkpt>
      <trkpt lat="45.07202" lon="5.81457">
        <ele>1171.98</ele>
        <time>2021-08-26T12:10:01Z</time>
      </trkpt>
      <trkpt lat="45.07212" lon="5.81469">
        <ele>1173.43</ele>
        <time>2021-08-26T12:10:15Z</time>
      </trkpt>
      <trkpt lat="45.07218" lon="5.81475">
        <ele>1175.35</ele>
        <time>2021-08-26T12:10:29Z</time>
      </trkpt>
      <trkpt lat="45.07227" lon="5.81483">
        <ele>1176.79</ele>
        <time>2021-08-26T12:10:46Z</time>
      </trkpt>
      <trkpt lat="45.07235" lon="5.81497">
        <ele>1178.23</ele>
        <time>2021-08-26T12:11:04Z</time>
      </trkpt>
      <trkpt lat="45.07234" lon="5.81507">
        <ele>1178.71</ele>
        <time>2021-08-26T12:11:19Z</time>
      </trkpt>
      <trkpt lat="45.07234" lon="5.81494">
        <ele>1178.71</ele>
        <time>2021-08-26T12:11:33Z</time>
      </trkpt>
      <trkpt lat="45.07234" lon="5.81493">
        <ele>1178.23</ele>
        <time>2021-08-26T12:11:53Z</time>
      </trkpt>
      <trkpt lat="45.07233" lon="5.81493">
        <ele>1178.23</ele>
        <time>2021-08-26T12:12:26Z</time>
      </trkpt>
      <trkpt lat="45.07234" lon="5.81494">
        <ele>1178.23</ele>
        <time>2021-08-26T12:12:59Z</time>
      </trkpt>
      <trkpt lat="45.07234" lon="5.81506">
        <ele>1178.71</ele>
        <time>2021-08-26T12:13:13Z</time>
      </trkpt>
      <trkpt lat="45.07234" lon="5.81523">
        <ele>1179.67</ele>
        <time>2021-08-26T12:13:28Z</time>
      </trkpt>
      <trkpt lat="45.07238" lon="5.81548">
        <ele>1180.16</ele>
        <time>2021-08-26T12:13:46Z</time>
      </trkpt>
      <trkpt lat="45.07242" lon="5.81564">
        <ele>1179.67</ele>
        <time>2021-08-26T12:14:00Z</time>
      </trkpt>
      <trkpt lat="45.07247" lon="5.81582">
        <ele>1180.16</ele>
        <time>2021-08-26T12:14:12Z</time>
      </trkpt>
      <trkpt lat="45.07254" lon="5.81605">
        <ele>1180.16</ele>
        <time>2021-08-26T12:14:25Z</time>
      </trkpt>
      <trkpt lat="45.07255" lon="5.81616">
        <ele>1180.16</ele>
        <time>2021-08-26T12:14:31Z</time>
      </trkpt>
      <trkpt lat="45.07253" lon="5.8163">
        <ele>1179.67</ele>
        <time>2021-08-26T12:14:45Z</time>
      </trkpt>
      <trkpt lat="45.07253" lon="5.81632">
        <ele>1179.67</ele>
        <time>2021-08-26T12:15:01Z</time>
      </trkpt>
      <trkpt lat="45.07252" lon="5.81644">
        <ele>1179.67</ele>
        <time>2021-08-26T12:15:15Z</time>
      </trkpt>
      <trkpt lat="45.07252" lon="5.81646">
        <ele>1179.67</ele>
        <time>2021-08-26T12:15:17Z</time>
      </trkpt>
      <trkpt lat="45.07248" lon="5.81665">
        <ele>1180.16</ele>
        <time>2021-08-26T12:15:31Z</time>
      </trkpt>
      <trkpt lat="45.07247" lon="5.81688">
        <ele>1181.12</ele>
        <time>2021-08-26T12:15:46Z</time>
      </trkpt>
      <trkpt lat="45.07244" lon="5.81701">
        <ele>1182.08</ele>
        <time>2021-08-26T12:15:59Z</time>
      </trkpt>
      <trkpt lat="45.07239" lon="5.81721">
        <ele>1183.52</ele>
        <time>2021-08-26T12:16:15Z</time>
      </trkpt>
      <trkpt lat="45.07239" lon="5.81726">
        <ele>1184.48</ele>
        <time>2021-08-26T12:16:21Z</time>
      </trkpt>
      <trkpt lat="45.07237" lon="5.81744">
        <ele>1185.44</ele>
        <time>2021-08-26T12:16:35Z</time>
      </trkpt>
      <trkpt lat="45.07236" lon="5.81763">
        <ele>1186.88</ele>
        <time>2021-08-26T12:16:51Z</time>
      </trkpt>
      <trkpt lat="45.07227" lon="5.81784">
        <ele>1188.33</ele>
        <time>2021-08-26T12:17:09Z</time>
      </trkpt>
      <trkpt lat="45.07217" lon="5.81794">
        <ele>1189.77</ele>
        <time>2021-08-26T12:17:25Z</time>
      </trkpt>
      <trkpt lat="45.07214" lon="5.81809">
        <ele>1191.21</ele>
        <time>2021-08-26T12:17:42Z</time>
      </trkpt>
      <trkpt lat="45.07206" lon="5.81821">
        <ele>1192.17</ele>
        <time>2021-08-26T12:17:56Z</time>
      </trkpt>
      <trkpt lat="45.07205" lon="5.81832">
        <ele>1192.65</ele>
        <time>2021-08-26T12:18:13Z</time>
      </trkpt>
      <trkpt lat="45.07207" lon="5.81841">
        <ele>1193.61</ele>
        <time>2021-08-26T12:18:26Z</time>
      </trkpt>
      <trkpt lat="45.07214" lon="5.81845">
        <ele>1194.58</ele>
        <time>2021-08-26T12:18:42Z</time>
      </trkpt>
      <trkpt lat="45.07225" lon="5.81854">
        <ele>1195.06</ele>
        <time>2021-08-26T12:18:54Z</time>
      </trkpt>
      <trkpt lat="45.07236" lon="5.81864">
        <ele>1195.06</ele>
        <time>2021-08-26T12:19:08Z</time>
      </trkpt>
      <trkpt lat="45.07244" lon="5.81875">
        <ele>1196.02</ele>
        <time>2021-08-26T12:19:21Z</time>
      </trkpt>
      <trkpt lat="45.07251" lon="5.81884">
        <ele>1196.5</ele>
        <time>2021-08-26T12:19:36Z</time>
      </trkpt>
      <trkpt lat="45.07259" lon="5.81898">
        <ele>1196.5</ele>
        <time>2021-08-26T12:19:49Z</time>
      </trkpt>
      <trkpt lat="45.07266" lon="5.81908">
        <ele>1196.5</ele>
        <time>2021-08-26T12:20:02Z</time>
      </trkpt>
      <trkpt lat="45.07271" lon="5.81919">
        <ele>1196.98</ele>
        <time>2021-08-26T12:20:13Z</time>
      </trkpt>
      <trkpt lat="45.07278" lon="5.81936">
        <ele>1197.46</ele>
        <time>2021-08-26T12:20:27Z</time>
      </trkpt>
      <trkpt lat="45.07284" lon="5.81945">
        <ele>1198.9</ele>
        <time>2021-08-26T12:20:40Z</time>
      </trkpt>
      <trkpt lat="45.07287" lon="5.81953">
        <ele>1199.86</ele>
        <time>2021-08-26T12:20:52Z</time>
      </trkpt>
      <trkpt lat="45.07296" lon="5.8197">
        <ele>1201.3</ele>
        <time>2021-08-26T12:21:08Z</time>
      </trkpt>
      <trkpt lat="45.073" lon="5.81984">
        <ele>1202.27</ele>
        <time>2021-08-26T12:21:22Z</time>
      </trkpt>
      <trkpt lat="45.07306" lon="5.81998">
        <ele>1202.75</ele>
        <time>2021-08-26T12:21:37Z</time>
      </trkpt>
      <trkpt lat="45.07306" lon="5.82013">
        <ele>1203.23</ele>
        <time>2021-08-26T12:21:51Z</time>
      </trkpt>
      <trkpt lat="45.07307" lon="5.82033">
        <ele>1202.27</ele>
        <time>2021-08-26T12:22:06Z</time>
      </trkpt>
      <trkpt lat="45.07315" lon="5.82055">
        <ele>1201.79</ele>
        <time>2021-08-26T12:22:22Z</time>
      </trkpt>
      <trkpt lat="45.07326" lon="5.82074">
        <ele>1202.27</ele>
        <time>2021-08-26T12:22:38Z</time>
      </trkpt>
      <trkpt lat="45.07331" lon="5.82086">
        <ele>1203.23</ele>
        <time>2021-08-26T12:22:52Z</time>
      </trkpt>
      <trkpt lat="45.07332" lon="5.82089">
        <ele>1203.23</ele>
        <time>2021-08-26T12:22:54Z</time>
      </trkpt>
      <trkpt lat="45.07339" lon="5.82108">
        <ele>1203.23</ele>
        <time>2021-08-26T12:23:10Z</time>
      </trkpt>
      <trkpt lat="45.07341" lon="5.82118">
        <ele>1203.71</ele>
        <time>2021-08-26T12:23:23Z</time>
      </trkpt>
      <trkpt lat="45.07348" lon="5.82139">
        <ele>1204.19</ele>
        <time>2021-08-26T12:23:39Z</time>
      </trkpt>
      <trkpt lat="45.07352" lon="5.82155">
        <ele>1204.67</ele>
        <time>2021-08-26T12:23:53Z</time>
      </trkpt>
      <trkpt lat="45.07354" lon="5.82172">
        <ele>1205.15</ele>
        <time>2021-08-26T12:24:08Z</time>
      </trkpt>
      <trkpt lat="45.07347" lon="5.82177">
        <ele>1205.63</ele>
        <time>2021-08-26T12:24:23Z</time>
      </trkpt>
      <trkpt lat="45.07348" lon="5.8218">
        <ele>1206.59</ele>
        <time>2021-08-26T12:24:37Z</time>
      </trkpt>
      <trkpt lat="45.07351" lon="5.82181">
        <ele>1207.55</ele>
        <time>2021-08-26T12:24:49Z</time>
      </trkpt>
      <trkpt lat="45.07355" lon="5.8218">
        <ele>1209</ele>
        <time>2021-08-26T12:25:05Z</time>
      </trkpt>
      <trkpt lat="45.0736" lon="5.82179">
        <ele>1210.44</ele>
        <time>2021-08-26T12:25:21Z</time>
      </trkpt>
      <trkpt lat="45.07371" lon="5.82179">
        <ele>1212.36</ele>
        <time>2021-08-26T12:25:39Z</time>
      </trkpt>
      <trkpt lat="45.07373" lon="5.82178">
        <ele>1214.76</ele>
        <time>2021-08-26T12:25:57Z</time>
      </trkpt>
      <trkpt lat="45.07376" lon="5.82176">
        <ele>1215.24</ele>
        <time>2021-08-26T12:26:13Z</time>
      </trkpt>
      <trkpt lat="45.07377" lon="5.82175">
        <ele>1215.24</ele>
        <time>2021-08-26T12:26:35Z</time>
      </trkpt>
      <trkpt lat="45.07376" lon="5.82185">
        <ele>1215.24</ele>
        <time>2021-08-26T12:27:03Z</time>
      </trkpt>
      <trkpt lat="45.07383" lon="5.8218">
        <ele>1215.72</ele>
        <time>2021-08-26T12:27:27Z</time>
      </trkpt>
      <trkpt lat="45.07393" lon="5.8218">
        <ele>1218.61</ele>
        <time>2021-08-26T12:27:46Z</time>
      </trkpt>
      <trkpt lat="45.07403" lon="5.82181">
        <ele>1220.05</ele>
        <time>2021-08-26T12:28:03Z</time>
      </trkpt>
      <trkpt lat="45.07409" lon="5.8218">
        <ele>1222.45</ele>
        <time>2021-08-26T12:28:21Z</time>
      </trkpt>
      <trkpt lat="45.07415" lon="5.8218">
        <ele>1224.86</ele>
        <time>2021-08-26T12:28:37Z</time>
      </trkpt>
      <trkpt lat="45.07423" lon="5.82181">
        <ele>1226.78</ele>
        <time>2021-08-26T12:28:53Z</time>
      </trkpt>
      <trkpt lat="45.07432" lon="5.82182">
        <ele>1229.18</ele>
        <time>2021-08-26T12:29:12Z</time>
      </trkpt>
      <trkpt lat="45.0744" lon="5.82187">
        <ele>1231.11</ele>
        <time>2021-08-26T12:29:33Z</time>
      </trkpt>
      <trkpt lat="45.0745" lon="5.82188">
        <ele>1233.03</ele>
        <time>2021-08-26T12:29:51Z</time>
      </trkpt>
      <trkpt lat="45.07452" lon="5.82192">
        <ele>1234.47</ele>
        <time>2021-08-26T12:30:09Z</time>
      </trkpt>
      <trkpt lat="45.07454" lon="5.82192">
        <ele>1235.43</ele>
        <time>2021-08-26T12:30:29Z</time>
      </trkpt>
      <trkpt lat="45.07461" lon="5.82201">
        <ele>1236.39</ele>
        <time>2021-08-26T12:30:50Z</time>
      </trkpt>
      <trkpt lat="45.07465" lon="5.82209">
        <ele>1238.8</ele>
        <time>2021-08-26T12:31:03Z</time>
      </trkpt>
      <trkpt lat="45.0747" lon="5.82214">
        <ele>1241.2</ele>
        <time>2021-08-26T12:31:21Z</time>
      </trkpt>
      <trkpt lat="45.07476" lon="5.82225">
        <ele>1242.16</ele>
        <time>2021-08-26T12:31:35Z</time>
      </trkpt>
      <trkpt lat="45.07476" lon="5.82226">
        <ele>1242.16</ele>
        <time>2021-08-26T12:32:02Z</time>
      </trkpt>
      <trkpt lat="45.07474" lon="5.82224">
        <ele>1241.68</ele>
        <time>2021-08-26T12:32:30Z</time>
      </trkpt>
      <trkpt lat="45.07469" lon="5.82221">
        <ele>1242.16</ele>
        <time>2021-08-26T12:32:55Z</time>
      </trkpt>
      <trkpt lat="45.07467" lon="5.82226">
        <ele>1242.64</ele>
        <time>2021-08-26T12:33:10Z</time>
      </trkpt>
      <trkpt lat="45.07469" lon="5.82243">
        <ele>1243.6</ele>
        <time>2021-08-26T12:33:24Z</time>
      </trkpt>
      <trkpt lat="45.07465" lon="5.8225">
        <ele>1244.56</ele>
        <time>2021-08-26T12:33:40Z</time>
      </trkpt>
      <trkpt lat="45.07462" lon="5.8226">
        <ele>1246.01</ele>
        <time>2021-08-26T12:33:55Z</time>
      </trkpt>
      <trkpt lat="45.07462" lon="5.82276">
        <ele>1246.49</ele>
        <time>2021-08-26T12:34:07Z</time>
      </trkpt>
      <trkpt lat="45.07462" lon="5.82278">
        <ele>1247.93</ele>
        <time>2021-08-26T12:34:25Z</time>
      </trkpt>
      <trkpt lat="45.0746" lon="5.82283">
        <ele>1248.41</ele>
        <time>2021-08-26T12:34:43Z</time>
      </trkpt>
      <trkpt lat="45.0746" lon="5.8229">
        <ele>1249.37</ele>
        <time>2021-08-26T12:35:04Z</time>
      </trkpt>
      <trkpt lat="45.0746" lon="5.82308">
        <ele>1249.85</ele>
        <time>2021-08-26T12:35:18Z</time>
      </trkpt>
      <trkpt lat="45.07456" lon="5.82325">
        <ele>1250.33</ele>
        <time>2021-08-26T12:35:34Z</time>
      </trkpt>
      <trkpt lat="45.07451" lon="5.82342">
        <ele>1245.53</ele>
        <time>2021-08-26T12:35:50Z</time>
      </trkpt>
      <trkpt lat="45.07451" lon="5.82344">
        <ele>1251.29</ele>
        <time>2021-08-26T12:35:51Z</time>
      </trkpt>
      <trkpt lat="45.07451" lon="5.82346">
        <ele>1251.77</ele>
        <time>2021-08-26T12:36:09Z</time>
      </trkpt>
      <trkpt lat="45.07444" lon="5.82361">
        <ele>1253.22</ele>
        <time>2021-08-26T12:36:24Z</time>
      </trkpt>
      <trkpt lat="45.07441" lon="5.82366">
        <ele>1248.89</ele>
        <time>2021-08-26T12:36:29Z</time>
      </trkpt>
      <trkpt lat="45.07441" lon="5.82367">
        <ele>1259.46</ele>
        <time>2021-08-26T12:36:30Z</time>
      </trkpt>
      <trkpt lat="45.07441" lon="5.82367">
        <ele>1254.66</ele>
        <time>2021-08-26T12:36:31Z</time>
      </trkpt>
      <trkpt lat="45.07442" lon="5.82377">
        <ele>1256.58</ele>
        <time>2021-08-26T12:36:45Z</time>
      </trkpt>
      <trkpt lat="45.07436" lon="5.82388">
        <ele>1253.22</ele>
        <time>2021-08-26T12:37:00Z</time>
      </trkpt>
      <trkpt lat="45.07436" lon="5.82389">
        <ele>1262.83</ele>
        <time>2021-08-26T12:37:01Z</time>
      </trkpt>
      <trkpt lat="45.07435" lon="5.8239">
        <ele>1258.02</ele>
        <time>2021-08-26T12:37:02Z</time>
      </trkpt>
      <trkpt lat="45.07434" lon="5.82392">
        <ele>1258.02</ele>
        <time>2021-08-26T12:37:17Z</time>
      </trkpt>
      <trkpt lat="45.0743" lon="5.82397">
        <ele>1257.06</ele>
        <time>2021-08-26T12:37:35Z</time>
      </trkpt>
      <trkpt lat="45.07417" lon="5.8242">
        <ele>1256.1</ele>
        <time>2021-08-26T12:37:56Z</time>
      </trkpt>
      <trkpt lat="45.07409" lon="5.8244">
        <ele>1253.7</ele>
        <time>2021-08-26T12:38:12Z</time>
      </trkpt>
      <trkpt lat="45.07409" lon="5.82454">
        <ele>1254.18</ele>
        <time>2021-08-26T12:38:26Z</time>
      </trkpt>
      <trkpt lat="45.0741" lon="5.82476">
        <ele>1254.18</ele>
        <time>2021-08-26T12:38:43Z</time>
      </trkpt>
      <trkpt lat="45.07414" lon="5.82502">
        <ele>1255.14</ele>
        <time>2021-08-26T12:39:02Z</time>
      </trkpt>
      <trkpt lat="45.07411" lon="5.82518">
        <ele>1255.62</ele>
        <time>2021-08-26T12:39:17Z</time>
      </trkpt>
      <trkpt lat="45.0741" lon="5.82529">
        <ele>1256.1</ele>
        <time>2021-08-26T12:39:33Z</time>
      </trkpt>
      <trkpt lat="45.07409" lon="5.82536">
        <ele>1259.46</ele>
        <time>2021-08-26T12:39:47Z</time>
      </trkpt>
      <trkpt lat="45.07407" lon="5.82551">
        <ele>1258.5</ele>
        <time>2021-08-26T12:40:01Z</time>
      </trkpt>
      <trkpt lat="45.07402" lon="5.82568">
        <ele>1257.54</ele>
        <time>2021-08-26T12:40:14Z</time>
      </trkpt>
      <trkpt lat="45.07402" lon="5.82584">
        <ele>1254.66</ele>
        <time>2021-08-26T12:40:28Z</time>
      </trkpt>
      <trkpt lat="45.07412" lon="5.82602">
        <ele>1253.7</ele>
        <time>2021-08-26T12:40:44Z</time>
      </trkpt>
      <trkpt lat="45.07417" lon="5.82609">
        <ele>1252.74</ele>
        <time>2021-08-26T12:41:01Z</time>
      </trkpt>
      <trkpt lat="45.07422" lon="5.82615">
        <ele>1251.29</ele>
        <time>2021-08-26T12:41:15Z</time>
      </trkpt>
      <trkpt lat="45.07427" lon="5.82621">
        <ele>1249.37</ele>
        <time>2021-08-26T12:41:31Z</time>
      </trkpt>
      <trkpt lat="45.07428" lon="5.82623">
        <ele>1253.7</ele>
        <time>2021-08-26T12:41:36Z</time>
      </trkpt>
      <trkpt lat="45.07427" lon="5.82623">
        <ele>1250.33</ele>
        <time>2021-08-26T12:41:37Z</time>
      </trkpt>
      <trkpt lat="45.07428" lon="5.82629">
        <ele>1248.89</ele>
        <time>2021-08-26T12:41:51Z</time>
      </trkpt>
      <trkpt lat="45.07429" lon="5.82631">
        <ele>1253.22</ele>
        <time>2021-08-26T12:42:07Z</time>
      </trkpt>
      <trkpt lat="45.07429" lon="5.82633">
        <ele>1248.89</ele>
        <time>2021-08-26T12:42:09Z</time>
      </trkpt>
      <trkpt lat="45.0743" lon="5.82634">
        <ele>1248.89</ele>
        <time>2021-08-26T12:42:10Z</time>
      </trkpt>
      <trkpt lat="45.07431" lon="5.82635">
        <ele>1235.43</ele>
        <time>2021-08-26T12:42:11Z</time>
      </trkpt>
      <trkpt lat="45.07431" lon="5.82637">
        <ele>1265.71</ele>
        <time>2021-08-26T12:42:12Z</time>
      </trkpt>
      <trkpt lat="45.07432" lon="5.82637">
        <ele>1243.6</ele>
        <time>2021-08-26T12:42:13Z</time>
      </trkpt>
      <trkpt lat="45.07433" lon="5.82637">
        <ele>1254.66</ele>
        <time>2021-08-26T12:42:14Z</time>
      </trkpt>
      <trkpt lat="45.07433" lon="5.82638">
        <ele>1249.37</ele>
        <time>2021-08-26T12:42:15Z</time>
      </trkpt>
      <trkpt lat="45.07429" lon="5.82634">
        <ele>1248.89</ele>
        <time>2021-08-26T12:42:28Z</time>
      </trkpt>
      <trkpt lat="45.07422" lon="5.82637">
        <ele>1252.25</ele>
        <time>2021-08-26T12:42:39Z</time>
      </trkpt>
      <trkpt lat="45.07421" lon="5.82639">
        <ele>1248.89</ele>
        <time>2021-08-26T12:42:41Z</time>
      </trkpt>
      <trkpt lat="45.07429" lon="5.82647">
        <ele>1247.93</ele>
        <time>2021-08-26T12:42:55Z</time>
      </trkpt>
      <trkpt lat="45.0743" lon="5.82648">
        <ele>1234.95</ele>
        <time>2021-08-26T12:43:08Z</time>
      </trkpt>
      <trkpt lat="45.0743" lon="5.82648">
        <ele>1259.46</ele>
        <time>2021-08-26T12:43:09Z</time>
      </trkpt>
      <trkpt lat="45.0743" lon="5.82648">
        <ele>1248.89</ele>
        <time>2021-08-26T12:43:10Z</time>
      </trkpt>
      <trkpt lat="45.0743" lon="5.82648">
        <ele>1247.45</ele>
        <time>2021-08-26T12:43:12Z</time>
      </trkpt>
      <trkpt lat="45.0743" lon="5.82647">
        <ele>1247.45</ele>
        <time>2021-08-26T12:43:29Z</time>
      </trkpt>
      <trkpt lat="45.07435" lon="5.82652">
        <ele>1236.87</ele>
        <time>2021-08-26T12:43:40Z</time>
      </trkpt>
      <trkpt lat="45.07435" lon="5.82652">
        <ele>1255.14</ele>
        <time>2021-08-26T12:43:41Z</time>
      </trkpt>
      <trkpt lat="45.07436" lon="5.82652">
        <ele>1246.97</ele>
        <time>2021-08-26T12:43:42Z</time>
      </trkpt>
      <trkpt lat="45.07437" lon="5.82653">
        <ele>1246.49</ele>
        <time>2021-08-26T12:43:44Z</time>
      </trkpt>
      <trkpt lat="45.07445" lon="5.8266">
        <ele>1245.53</ele>
        <time>2021-08-26T12:43:57Z</time>
      </trkpt>
      <trkpt lat="45.07455" lon="5.82669">
        <ele>1244.08</ele>
        <time>2021-08-26T12:44:12Z</time>
      </trkpt>
      <trkpt lat="45.07477" lon="5.82676">
        <ele>1241.68</ele>
        <time>2021-08-26T12:44:28Z</time>
      </trkpt>
      <trkpt lat="45.07484" lon="5.82681">
        <ele>1240.72</ele>
        <time>2021-08-26T12:44:37Z</time>
      </trkpt>
      <trkpt lat="45.07497" lon="5.82688">
        <ele>1239.76</ele>
        <time>2021-08-26T12:44:51Z</time>
      </trkpt>
      <trkpt lat="45.07509" lon="5.82707">
        <ele>1238.32</ele>
        <time>2021-08-26T12:45:07Z</time>
      </trkpt>
      <trkpt lat="45.07516" lon="5.82725">
        <ele>1235.43</ele>
        <time>2021-08-26T12:45:23Z</time>
      </trkpt>
      <trkpt lat="45.07521" lon="5.82737">
        <ele>1233.51</ele>
        <time>2021-08-26T12:45:35Z</time>
      </trkpt>
      <trkpt lat="45.07526" lon="5.82751">
        <ele>1232.07</ele>
        <time>2021-08-26T12:45:49Z</time>
      </trkpt>
      <trkpt lat="45.07532" lon="5.82768">
        <ele>1229.66</ele>
        <time>2021-08-26T12:46:04Z</time>
      </trkpt>
      <trkpt lat="45.07539" lon="5.8278">
        <ele>1227.74</ele>
        <time>2021-08-26T12:46:19Z</time>
      </trkpt>
      <trkpt lat="45.07546" lon="5.82796">
        <ele>1225.34</ele>
        <time>2021-08-26T12:46:36Z</time>
      </trkpt>
      <trkpt lat="45.07553" lon="5.8281">
        <ele>1223.42</ele>
        <time>2021-08-26T12:46:48Z</time>
      </trkpt>
      <trkpt lat="45.0756" lon="5.82825">
        <ele>1221.97</ele>
        <time>2021-08-26T12:47:01Z</time>
      </trkpt>
      <trkpt lat="45.07568" lon="5.82842">
        <ele>1220.05</ele>
        <time>2021-08-26T12:47:17Z</time>
      </trkpt>
      <trkpt lat="45.07578" lon="5.82854">
        <ele>1219.09</ele>
        <time>2021-08-26T12:47:30Z</time>
      </trkpt>
      <trkpt lat="45.07589" lon="5.82865">
        <ele>1218.13</ele>
        <time>2021-08-26T12:47:43Z</time>
      </trkpt>
      <trkpt lat="45.07597" lon="5.82875">
        <ele>1216.69</ele>
        <time>2021-08-26T12:47:58Z</time>
      </trkpt>
      <trkpt lat="45.07602" lon="5.82886">
        <ele>1215.72</ele>
        <time>2021-08-26T12:48:12Z</time>
      </trkpt>
      <trkpt lat="45.07611" lon="5.82898">
        <ele>1214.28</ele>
        <time>2021-08-26T12:48:29Z</time>
      </trkpt>
      <trkpt lat="45.07622" lon="5.82919">
        <ele>1212.84</ele>
        <time>2021-08-26T12:48:44Z</time>
      </trkpt>
      <trkpt lat="45.07629" lon="5.8294">
        <ele>1210.92</ele>
        <time>2021-08-26T12:49:03Z</time>
      </trkpt>
      <trkpt lat="45.07634" lon="5.82956">
        <ele>1209.96</ele>
        <time>2021-08-26T12:49:17Z</time>
      </trkpt>
      <trkpt lat="45.07639" lon="5.82976">
        <ele>1208.51</ele>
        <time>2021-08-26T12:49:31Z</time>
      </trkpt>
      <trkpt lat="45.07645" lon="5.8299">
        <ele>1206.59</ele>
        <time>2021-08-26T12:49:45Z</time>
      </trkpt>
      <trkpt lat="45.07649" lon="5.82999">
        <ele>1205.15</ele>
        <time>2021-08-26T12:49:58Z</time>
      </trkpt>
      <trkpt lat="45.07657" lon="5.83009">
        <ele>1204.19</ele>
        <time>2021-08-26T12:50:11Z</time>
      </trkpt>
      <trkpt lat="45.07662" lon="5.83024">
        <ele>1203.23</ele>
        <time>2021-08-26T12:50:21Z</time>
      </trkpt>
      <trkpt lat="45.07669" lon="5.83041">
        <ele>1202.27</ele>
        <time>2021-08-26T12:50:33Z</time>
      </trkpt>
      <trkpt lat="45.07675" lon="5.83051">
        <ele>1202.27</ele>
        <time>2021-08-26T12:50:42Z</time>
      </trkpt>
      <trkpt lat="45.07679" lon="5.8307">
        <ele>1201.3</ele>
        <time>2021-08-26T12:50:56Z</time>
      </trkpt>
      <trkpt lat="45.0768" lon="5.83075">
        <ele>1200.82</ele>
        <time>2021-08-26T12:50:59Z</time>
      </trkpt>
      <trkpt lat="45.07687" lon="5.83089">
        <ele>1199.86</ele>
        <time>2021-08-26T12:51:12Z</time>
      </trkpt>
      <trkpt lat="45.07694" lon="5.83104">
        <ele>1198.9</ele>
        <time>2021-08-26T12:51:28Z</time>
      </trkpt>
      <trkpt lat="45.07704" lon="5.83123">
        <ele>1197.94</ele>
        <time>2021-08-26T12:51:40Z</time>
      </trkpt>
      <trkpt lat="45.07709" lon="5.83135">
        <ele>1197.46</ele>
        <time>2021-08-26T12:51:52Z</time>
      </trkpt>
      <trkpt lat="45.07715" lon="5.83145">
        <ele>1196.5</ele>
        <time>2021-08-26T12:52:05Z</time>
      </trkpt>
      <trkpt lat="45.07723" lon="5.83156">
        <ele>1195.54</ele>
        <time>2021-08-26T12:52:16Z</time>
      </trkpt>
      <trkpt lat="45.07734" lon="5.83175">
        <ele>1194.58</ele>
        <time>2021-08-26T12:52:31Z</time>
      </trkpt>
      <trkpt lat="45.0774" lon="5.83189">
        <ele>1193.13</ele>
        <time>2021-08-26T12:52:43Z</time>
      </trkpt>
      <trkpt lat="45.07748" lon="5.83208">
        <ele>1192.65</ele>
        <time>2021-08-26T12:52:55Z</time>
      </trkpt>
      <trkpt lat="45.07753" lon="5.83214">
        <ele>1192.17</ele>
        <time>2021-08-26T12:53:12Z</time>
      </trkpt>
      <trkpt lat="45.07759" lon="5.8323">
        <ele>1191.69</ele>
        <time>2021-08-26T12:53:25Z</time>
      </trkpt>
      <trkpt lat="45.07764" lon="5.83256">
        <ele>1190.73</ele>
        <time>2021-08-26T12:53:41Z</time>
      </trkpt>
      <trkpt lat="45.07765" lon="5.83261">
        <ele>1190.25</ele>
        <time>2021-08-26T12:53:45Z</time>
      </trkpt>
      <trkpt lat="45.07763" lon="5.83285">
        <ele>1190.25</ele>
        <time>2021-08-26T12:54:01Z</time>
      </trkpt>
      <trkpt lat="45.07765" lon="5.8329">
        <ele>1189.77</ele>
        <time>2021-08-26T12:54:14Z</time>
      </trkpt>
      <trkpt lat="45.07766" lon="5.83292">
        <ele>1189.29</ele>
        <time>2021-08-26T12:54:32Z</time>
      </trkpt>
      <trkpt lat="45.07767" lon="5.83298">
        <ele>1188.33</ele>
        <time>2021-08-26T12:54:45Z</time>
      </trkpt>
      <trkpt lat="45.07774" lon="5.83314">
        <ele>1186.88</ele>
        <time>2021-08-26T12:55:00Z</time>
      </trkpt>
      <trkpt lat="45.07779" lon="5.8333">
        <ele>1185.92</ele>
        <time>2021-08-26T12:55:14Z</time>
      </trkpt>
      <trkpt lat="45.07784" lon="5.83346">
        <ele>1184.48</ele>
        <time>2021-08-26T12:55:30Z</time>
      </trkpt>
      <trkpt lat="45.07784" lon="5.83366">
        <ele>1183.52</ele>
        <time>2021-08-26T12:55:40Z</time>
      </trkpt>
      <trkpt lat="45.07788" lon="5.83379">
        <ele>1182.08</ele>
        <time>2021-08-26T12:55:54Z</time>
      </trkpt>
      <trkpt lat="45.0779" lon="5.83396">
        <ele>1180.64</ele>
        <time>2021-08-26T12:56:09Z</time>
      </trkpt>
      <trkpt lat="45.07789" lon="5.83412">
        <ele>1179.19</ele>
        <time>2021-08-26T12:56:22Z</time>
      </trkpt>
      <trkpt lat="45.07793" lon="5.8343">
        <ele>1177.75</ele>
        <time>2021-08-26T12:56:35Z</time>
      </trkpt>
      <trkpt lat="45.07793" lon="5.83443">
        <ele>1175.83</ele>
        <time>2021-08-26T12:56:50Z</time>
      </trkpt>
      <trkpt lat="45.07796" lon="5.83453">
        <ele>1173.91</ele>
        <time>2021-08-26T12:57:04Z</time>
      </trkpt>
      <trkpt lat="45.07801" lon="5.83472">
        <ele>1171.98</ele>
        <time>2021-08-26T12:57:18Z</time>
      </trkpt>
      <trkpt lat="45.07805" lon="5.83485">
        <ele>1170.54</ele>
        <time>2021-08-26T12:57:31Z</time>
      </trkpt>
      <trkpt lat="45.07812" lon="5.83497">
        <ele>1168.62</ele>
        <time>2021-08-26T12:57:44Z</time>
      </trkpt>
      <trkpt lat="45.07815" lon="5.83526">
        <ele>1166.7</ele>
        <time>2021-08-26T12:58:00Z</time>
      </trkpt>
      <trkpt lat="45.07819" lon="5.8354">
        <ele>1165.26</ele>
        <time>2021-08-26T12:58:13Z</time>
      </trkpt>
      <trkpt lat="45.07828" lon="5.83555">
        <ele>1163.33</ele>
        <time>2021-08-26T12:58:27Z</time>
      </trkpt>
      <trkpt lat="45.07834" lon="5.83577">
        <ele>1161.41</ele>
        <time>2021-08-26T12:58:41Z</time>
      </trkpt>
      <trkpt lat="45.07842" lon="5.83597">
        <ele>1159.01</ele>
        <time>2021-08-26T12:58:56Z</time>
      </trkpt>
      <trkpt lat="45.07843" lon="5.83607">
        <ele>1157.08</ele>
        <time>2021-08-26T12:59:10Z</time>
      </trkpt>
      <trkpt lat="45.07843" lon="5.83608">
        <ele>1157.08</ele>
        <time>2021-08-26T12:59:36Z</time>
      </trkpt>
      <trkpt lat="45.07842" lon="5.83623">
        <ele>1156.12</ele>
        <time>2021-08-26T12:59:49Z</time>
      </trkpt>
      <trkpt lat="45.07845" lon="5.8364">
        <ele>1152.76</ele>
        <time>2021-08-26T13:00:02Z</time>
      </trkpt>
      <trkpt lat="45.07848" lon="5.83657">
        <ele>1150.35</ele>
        <time>2021-08-26T13:00:16Z</time>
      </trkpt>
      <trkpt lat="45.07849" lon="5.83674">
        <ele>1147.95</ele>
        <time>2021-08-26T13:00:29Z</time>
      </trkpt>
      <trkpt lat="45.07852" lon="5.83687">
        <ele>1146.51</ele>
        <time>2021-08-26T13:00:41Z</time>
      </trkpt>
      <trkpt lat="45.07854" lon="5.83695">
        <ele>1146.03</ele>
        <time>2021-08-26T13:00:56Z</time>
      </trkpt>
      <trkpt lat="45.07862" lon="5.83717">
        <ele>1143.14</ele>
        <time>2021-08-26T13:01:12Z</time>
      </trkpt>
      <trkpt lat="45.07868" lon="5.83739">
        <ele>1141.22</ele>
        <time>2021-08-26T13:01:27Z</time>
      </trkpt>
      <trkpt lat="45.0787" lon="5.83743">
        <ele>1140.74</ele>
        <time>2021-08-26T13:01:30Z</time>
      </trkpt>
      <trkpt lat="45.0788" lon="5.83762">
        <ele>1139.3</ele>
        <time>2021-08-26T13:01:44Z</time>
      </trkpt>
      <trkpt lat="45.07884" lon="5.8377">
        <ele>1137.86</ele>
        <time>2021-08-26T13:01:56Z</time>
      </trkpt>
      <trkpt lat="45.0789" lon="5.83781">
        <ele>1136.42</ele>
        <time>2021-08-26T13:02:11Z</time>
      </trkpt>
      <trkpt lat="45.07896" lon="5.83809">
        <ele>1134.49</ele>
        <time>2021-08-26T13:02:26Z</time>
      </trkpt>
      <trkpt lat="45.07896" lon="5.83824">
        <ele>1134.01</ele>
        <time>2021-08-26T13:02:44Z</time>
      </trkpt>
      <trkpt lat="45.07895" lon="5.83826">
        <ele>1133.53</ele>
        <time>2021-08-26T13:03:16Z</time>
      </trkpt>
      <trkpt lat="45.07896" lon="5.83827">
        <ele>1133.53</ele>
        <time>2021-08-26T13:03:51Z</time>
      </trkpt>
      <trkpt lat="45.07897" lon="5.83827">
        <ele>1132.57</ele>
        <time>2021-08-26T13:04:09Z</time>
      </trkpt>
      <trkpt lat="45.07897" lon="5.83829">
        <ele>1133.05</ele>
        <time>2021-08-26T13:04:26Z</time>
      </trkpt>
      <trkpt lat="45.07898" lon="5.8383">
        <ele>1129.69</ele>
        <time>2021-08-26T13:04:41Z</time>
      </trkpt>
      <trkpt lat="45.07897" lon="5.83831">
        <ele>1129.69</ele>
        <time>2021-08-26T13:04:42Z</time>
      </trkpt>
      <trkpt lat="45.07897" lon="5.83831">
        <ele>1138.34</ele>
        <time>2021-08-26T13:04:43Z</time>
      </trkpt>
      <trkpt lat="45.07897" lon="5.83831">
        <ele>1133.53</ele>
        <time>2021-08-26T13:04:44Z</time>
      </trkpt>
      <trkpt lat="45.07897" lon="5.83831">
        <ele>1132.57</ele>
        <time>2021-08-26T13:05:07Z</time>
      </trkpt>
      <trkpt lat="45.07897" lon="5.83832">
        <ele>1127.28</ele>
        <time>2021-08-26T13:05:17Z</time>
      </trkpt>
      <trkpt lat="45.07897" lon="5.83832">
        <ele>1139.78</ele>
        <time>2021-08-26T13:05:18Z</time>
      </trkpt>
      <trkpt lat="45.07897" lon="5.83832">
        <ele>1133.53</ele>
        <time>2021-08-26T13:05:19Z</time>
      </trkpt>
      <trkpt lat="45.07897" lon="5.83832">
        <ele>1132.57</ele>
        <time>2021-08-26T13:05:21Z</time>
      </trkpt>
      <trkpt lat="45.07896" lon="5.83834">
        <ele>1132.09</ele>
        <time>2021-08-26T13:05:37Z</time>
      </trkpt>
      <trkpt lat="45.07898" lon="5.83858">
        <ele>1129.69</ele>
        <time>2021-08-26T13:05:55Z</time>
      </trkpt>
      <trkpt lat="45.07902" lon="5.83875">
        <ele>1128.24</ele>
        <time>2021-08-26T13:06:06Z</time>
      </trkpt>
      <trkpt lat="45.07905" lon="5.83896">
        <ele>1125.84</ele>
        <time>2021-08-26T13:06:22Z</time>
      </trkpt>
      <trkpt lat="45.07907" lon="5.839">
        <ele>1124.4</ele>
        <time>2021-08-26T13:06:35Z</time>
      </trkpt>
      <trkpt lat="45.07909" lon="5.8391">
        <ele>1122</ele>
        <time>2021-08-26T13:06:50Z</time>
      </trkpt>
      <trkpt lat="45.0791" lon="5.83921">
        <ele>1120.55</ele>
        <time>2021-08-26T13:07:02Z</time>
      </trkpt>
      <trkpt lat="45.07909" lon="5.83928">
        <ele>1119.59</ele>
        <time>2021-08-26T13:07:13Z</time>
      </trkpt>
      <trkpt lat="45.07908" lon="5.8394">
        <ele>1118.15</ele>
        <time>2021-08-26T13:07:24Z</time>
      </trkpt>
      <trkpt lat="45.07909" lon="5.83955">
        <ele>1116.71</ele>
        <time>2021-08-26T13:07:38Z</time>
      </trkpt>
      <trkpt lat="45.07912" lon="5.83965">
        <ele>1114.31</ele>
        <time>2021-08-26T13:07:52Z</time>
      </trkpt>
      <trkpt lat="45.07914" lon="5.83978">
        <ele>1111.9</ele>
        <time>2021-08-26T13:08:05Z</time>
      </trkpt>
      <trkpt lat="45.07916" lon="5.83988">
        <ele>1109.98</ele>
        <time>2021-08-26T13:08:18Z</time>
      </trkpt>
      <trkpt lat="45.07916" lon="5.83999">
        <ele>1109.02</ele>
        <time>2021-08-26T13:08:31Z</time>
      </trkpt>
      <trkpt lat="45.07916" lon="5.84008">
        <ele>1108.06</ele>
        <time>2021-08-26T13:08:44Z</time>
      </trkpt>
      <trkpt lat="45.07916" lon="5.84013">
        <ele>1108.06</ele>
        <time>2021-08-26T13:08:46Z</time>
      </trkpt>
      <trkpt lat="45.07915" lon="5.84049">
        <ele>1106.13</ele>
        <time>2021-08-26T13:09:03Z</time>
      </trkpt>
      <trkpt lat="45.07915" lon="5.84077">
        <ele>1106.13</ele>
        <time>2021-08-26T13:09:15Z</time>
      </trkpt>
      <trkpt lat="45.07914" lon="5.841">
        <ele>1106.13</ele>
        <time>2021-08-26T13:09:37Z</time>
      </trkpt>
      <trkpt lat="45.07917" lon="5.84127">
        <ele>1104.21</ele>
        <time>2021-08-26T13:09:48Z</time>
      </trkpt>
      <trkpt lat="45.07917" lon="5.84153">
        <ele>1102.77</ele>
        <time>2021-08-26T13:09:59Z</time>
      </trkpt>
      <trkpt lat="45.07917" lon="5.84181">
        <ele>1101.81</ele>
        <time>2021-08-26T13:10:12Z</time>
      </trkpt>
      <trkpt lat="45.07915" lon="5.842">
        <ele>1100.85</ele>
        <time>2021-08-26T13:10:23Z</time>
      </trkpt>
      <trkpt lat="45.07915" lon="5.84214">
        <ele>1100.37</ele>
        <time>2021-08-26T13:10:36Z</time>
      </trkpt>
      <trkpt lat="45.07914" lon="5.84225">
        <ele>1099.89</ele>
        <time>2021-08-26T13:10:50Z</time>
      </trkpt>
      <trkpt lat="45.07913" lon="5.84228">
        <ele>1100.37</ele>
        <time>2021-08-26T13:11:09Z</time>
      </trkpt>
      <trkpt lat="45.07912" lon="5.84232">
        <ele>1100.85</ele>
        <time>2021-08-26T13:11:23Z</time>
      </trkpt>
      <trkpt lat="45.07915" lon="5.84236">
        <ele>1101.33</ele>
        <time>2021-08-26T13:11:40Z</time>
      </trkpt>
      <trkpt lat="45.07914" lon="5.84241">
        <ele>1101.33</ele>
        <time>2021-08-26T13:12:04Z</time>
      </trkpt>
      <trkpt lat="45.07914" lon="5.84251">
        <ele>1101.33</ele>
        <time>2021-08-26T13:12:19Z</time>
      </trkpt>
      <trkpt lat="45.07913" lon="5.84266">
        <ele>1101.33</ele>
        <time>2021-08-26T13:12:29Z</time>
      </trkpt>
      <trkpt lat="45.07913" lon="5.84287">
        <ele>1100.37</ele>
        <time>2021-08-26T13:12:40Z</time>
      </trkpt>
      <trkpt lat="45.07911" lon="5.84312">
        <ele>1099.4</ele>
        <time>2021-08-26T13:12:55Z</time>
      </trkpt>
      <trkpt lat="45.07907" lon="5.84325">
        <ele>1097.96</ele>
        <time>2021-08-26T13:13:09Z</time>
      </trkpt>
      <trkpt lat="45.07907" lon="5.84326">
        <ele>1097.96</ele>
        <time>2021-08-26T13:13:10Z</time>
      </trkpt>
      <trkpt lat="45.07907" lon="5.84339">
        <ele>1091.23</ele>
        <time>2021-08-26T13:13:17Z</time>
      </trkpt>
      <trkpt lat="45.07907" lon="5.84341">
        <ele>1102.77</ele>
        <time>2021-08-26T13:13:18Z</time>
      </trkpt>
      <trkpt lat="45.07907" lon="5.84343">
        <ele>1097.96</ele>
        <time>2021-08-26T13:13:19Z</time>
      </trkpt>
      <trkpt lat="45.07904" lon="5.84364">
        <ele>1096.52</ele>
        <time>2021-08-26T13:13:35Z</time>
      </trkpt>
      <trkpt lat="45.07903" lon="5.84367">
        <ele>1092.2</ele>
        <time>2021-08-26T13:13:49Z</time>
      </trkpt>
      <trkpt lat="45.07903" lon="5.84367">
        <ele>1099.4</ele>
        <time>2021-08-26T13:13:50Z</time>
      </trkpt>
      <trkpt lat="45.07903" lon="5.84367">
        <ele>1096.52</ele>
        <time>2021-08-26T13:13:53Z</time>
      </trkpt>
      <trkpt lat="45.07902" lon="5.84369">
        <ele>1091.23</ele>
        <time>2021-08-26T13:14:06Z</time>
      </trkpt>
      <trkpt lat="45.07902" lon="5.84369">
        <ele>1101.81</ele>
        <time>2021-08-26T13:14:07Z</time>
      </trkpt>
      <trkpt lat="45.07902" lon="5.84369">
        <ele>1097</ele>
        <time>2021-08-26T13:14:08Z</time>
      </trkpt>
      <trkpt lat="45.07902" lon="5.8437">
        <ele>1078.74</ele>
        <time>2021-08-26T13:14:09Z</time>
      </trkpt>
      <trkpt lat="45.07902" lon="5.8437">
        <ele>1111.9</ele>
        <time>2021-08-26T13:14:10Z</time>
      </trkpt>
      <trkpt lat="45.07902" lon="5.8437">
        <ele>1075.85</ele>
        <time>2021-08-26T13:14:11Z</time>
      </trkpt>
      <trkpt lat="45.07902" lon="5.8437">
        <ele>1114.79</ele>
        <time>2021-08-26T13:14:12Z</time>
      </trkpt>
      <trkpt lat="45.07902" lon="5.8437">
        <ele>1098.44</ele>
        <time>2021-08-26T13:14:13Z</time>
      </trkpt>
      <trkpt lat="45.07902" lon="5.84371">
        <ele>1097</ele>
        <time>2021-08-26T13:14:15Z</time>
      </trkpt>
      <trkpt lat="45.07902" lon="5.84371">
        <ele>1084.5</ele>
        <time>2021-08-26T13:14:16Z</time>
      </trkpt>
      <trkpt lat="45.07902" lon="5.84371">
        <ele>1109.02</ele>
        <time>2021-08-26T13:14:17Z</time>
      </trkpt>
      <trkpt lat="45.07902" lon="5.84371">
        <ele>1080.18</ele>
        <time>2021-08-26T13:14:18Z</time>
      </trkpt>
      <trkpt lat="45.07902" lon="5.84371">
        <ele>1114.31</ele>
        <time>2021-08-26T13:14:19Z</time>
      </trkpt>
      <trkpt lat="45.07902" lon="5.84372">
        <ele>1097.96</ele>
        <time>2021-08-26T13:14:20Z</time>
      </trkpt>
      <trkpt lat="45.07902" lon="5.84373">
        <ele>1090.75</ele>
        <time>2021-08-26T13:14:21Z</time>
      </trkpt>
      <trkpt lat="45.07902" lon="5.84374">
        <ele>1097.48</ele>
        <time>2021-08-26T13:14:22Z</time>
      </trkpt>
      <trkpt lat="45.07901" lon="5.8439">
        <ele>1097.48</ele>
        <time>2021-08-26T13:14:35Z</time>
      </trkpt>
      <trkpt lat="45.07899" lon="5.84399">
        <ele>1097.96</ele>
        <time>2021-08-26T13:14:50Z</time>
      </trkpt>
      <trkpt lat="45.07899" lon="5.84411">
        <ele>1099.89</ele>
        <time>2021-08-26T13:15:03Z</time>
      </trkpt>
      <trkpt lat="45.07899" lon="5.84414">
        <ele>1101.33</ele>
        <time>2021-08-26T13:15:19Z</time>
      </trkpt>
      <trkpt lat="45.07899" lon="5.84424">
        <ele>1102.77</ele>
        <time>2021-08-26T13:15:34Z</time>
      </trkpt>
      <trkpt lat="45.079" lon="5.8443">
        <ele>1103.25</ele>
        <time>2021-08-26T13:15:38Z</time>
      </trkpt>
      <trkpt lat="45.07901" lon="5.84452">
        <ele>1104.69</ele>
        <time>2021-08-26T13:15:53Z</time>
      </trkpt>
      <trkpt lat="45.07903" lon="5.84467">
        <ele>1105.65</ele>
        <time>2021-08-26T13:16:06Z</time>
      </trkpt>
      <trkpt lat="45.07904" lon="5.84481">
        <ele>1106.13</ele>
        <time>2021-08-26T13:16:17Z</time>
      </trkpt>
      <trkpt lat="45.07899" lon="5.84501">
        <ele>1107.58</ele>
        <time>2021-08-26T13:16:30Z</time>
      </trkpt>
      <trkpt lat="45.07895" lon="5.8451">
        <ele>1105.17</ele>
        <time>2021-08-26T13:16:43Z</time>
      </trkpt>
      <trkpt lat="45.07895" lon="5.8451">
        <ele>1109.5</ele>
        <time>2021-08-26T13:16:44Z</time>
      </trkpt>
      <trkpt lat="45.07895" lon="5.84511">
        <ele>1113.82</ele>
        <time>2021-08-26T13:16:45Z</time>
      </trkpt>
      <trkpt lat="45.07895" lon="5.84511">
        <ele>1109.02</ele>
        <time>2021-08-26T13:16:46Z</time>
      </trkpt>
      <trkpt lat="45.07894" lon="5.84516">
        <ele>1105.17</ele>
        <time>2021-08-26T13:17:00Z</time>
      </trkpt>
      <trkpt lat="45.07894" lon="5.84516">
        <ele>1113.34</ele>
        <time>2021-08-26T13:17:02Z</time>
      </trkpt>
      <trkpt lat="45.07894" lon="5.84516">
        <ele>1109.5</ele>
        <time>2021-08-26T13:17:03Z</time>
      </trkpt>
      <trkpt lat="45.07894" lon="5.84519">
        <ele>1109.02</ele>
        <time>2021-08-26T13:17:23Z</time>
      </trkpt>
      <trkpt lat="45.07895" lon="5.84521">
        <ele>1109.5</ele>
        <time>2021-08-26T13:17:45Z</time>
      </trkpt>
      <trkpt lat="45.07906" lon="5.84507">
        <ele>1111.42</ele>
        <time>2021-08-26T13:18:01Z</time>
      </trkpt>
      <trkpt lat="45.0791" lon="5.84501">
        <ele>1111.9</ele>
        <time>2021-08-26T13:18:06Z</time>
      </trkpt>
      <trkpt lat="45.07914" lon="5.84492">
        <ele>1113.34</ele>
        <time>2021-08-26T13:18:11Z</time>
      </trkpt>
      <trkpt lat="45.07915" lon="5.84489">
        <ele>1106.13</ele>
        <time>2021-08-26T13:18:18Z</time>
      </trkpt>
      <trkpt lat="45.07915" lon="5.84489">
        <ele>1119.11</ele>
        <time>2021-08-26T13:18:19Z</time>
      </trkpt>
      <trkpt lat="45.07915" lon="5.84489">
        <ele>1113.82</ele>
        <time>2021-08-26T13:18:20Z</time>
      </trkpt>
      <trkpt lat="45.07916" lon="5.8449">
        <ele>1104.21</ele>
        <time>2021-08-26T13:18:24Z</time>
      </trkpt>
      <trkpt lat="45.07916" lon="5.8449">
        <ele>1123.92</ele>
        <time>2021-08-26T13:18:25Z</time>
      </trkpt>
      <trkpt lat="45.07916" lon="5.84491">
        <ele>1115.27</ele>
        <time>2021-08-26T13:18:26Z</time>
      </trkpt>
      <trkpt lat="45.07917" lon="5.84491">
        <ele>1113.82</ele>
        <time>2021-08-26T13:18:28Z</time>
      </trkpt>
      <trkpt lat="45.07917" lon="5.84493">
        <ele>1113.34</ele>
        <time>2021-08-26T13:18:52Z</time>
      </trkpt>
      <trkpt lat="45.07916" lon="5.84492">
        <ele>1113.34</ele>
        <time>2021-08-26T13:19:08Z</time>
      </trkpt>
      <trkpt lat="45.07916" lon="5.84491">
        <ele>1113.34</ele>
        <time>2021-08-26T13:19:34Z</time>
      </trkpt>
      <trkpt lat="45.07917" lon="5.84493">
        <ele>1114.31</ele>
        <time>2021-08-26T13:19:54Z</time>
      </trkpt>
      <trkpt lat="45.07919" lon="5.84498">
        <ele>1116.23</ele>
        <time>2021-08-26T13:20:10Z</time>
      </trkpt>
      <trkpt lat="45.07923" lon="5.84502">
        <ele>1118.15</ele>
        <time>2021-08-26T13:20:23Z</time>
      </trkpt>
      <trkpt lat="45.07927" lon="5.84504">
        <ele>1120.07</ele>
        <time>2021-08-26T13:20:40Z</time>
      </trkpt>
      <trkpt lat="45.07934" lon="5.84517">
        <ele>1122.96</ele>
        <time>2021-08-26T13:20:57Z</time>
      </trkpt>
      <trkpt lat="45.07937" lon="5.84527">
        <ele>1124.4</ele>
        <time>2021-08-26T13:21:12Z</time>
      </trkpt>
      <trkpt lat="45.07938" lon="5.84537">
        <ele>1125.84</ele>
        <time>2021-08-26T13:21:25Z</time>
      </trkpt>
      <trkpt lat="45.07945" lon="5.84548">
        <ele>1127.28</ele>
        <time>2021-08-26T13:21:43Z</time>
      </trkpt>
      <trkpt lat="45.07946" lon="5.8455">
        <ele>1128.24</ele>
        <time>2021-08-26T13:21:48Z</time>
      </trkpt>
      <trkpt lat="45.07949" lon="5.84552">
        <ele>1122.48</ele>
        <time>2021-08-26T13:21:58Z</time>
      </trkpt>
      <trkpt lat="45.07949" lon="5.84553">
        <ele>1130.65</ele>
        <time>2021-08-26T13:21:59Z</time>
      </trkpt>
      <trkpt lat="45.0795" lon="5.84553">
        <ele>1134.49</ele>
        <time>2021-08-26T13:22:00Z</time>
      </trkpt>
      <trkpt lat="45.0795" lon="5.84553">
        <ele>1130.65</ele>
        <time>2021-08-26T13:22:01Z</time>
      </trkpt>
      <trkpt lat="45.07955" lon="5.84565">
        <ele>1131.61</ele>
        <time>2021-08-26T13:22:18Z</time>
      </trkpt>
      <trkpt lat="45.07956" lon="5.84566">
        <ele>1127.28</ele>
        <time>2021-08-26T13:22:20Z</time>
      </trkpt>
      <trkpt lat="45.07957" lon="5.84566">
        <ele>1138.34</ele>
        <time>2021-08-26T13:22:21Z</time>
      </trkpt>
      <trkpt lat="45.07957" lon="5.84566">
        <ele>1132.57</ele>
        <time>2021-08-26T13:22:22Z</time>
      </trkpt>
      <trkpt lat="45.07957" lon="5.84566">
        <ele>1132.09</ele>
        <time>2021-08-26T13:22:24Z</time>
      </trkpt>
      <trkpt lat="45.07958" lon="5.84571">
        <ele>1132.57</ele>
        <time>2021-08-26T13:22:38Z</time>
      </trkpt>
      <trkpt lat="45.07966" lon="5.84578">
        <ele>1134.49</ele>
        <time>2021-08-26T13:22:53Z</time>
      </trkpt>
      <trkpt lat="45.07971" lon="5.84578">
        <ele>1124.4</ele>
        <time>2021-08-26T13:23:06Z</time>
      </trkpt>
      <trkpt lat="45.07972" lon="5.84578">
        <ele>1146.03</ele>
        <time>2021-08-26T13:23:07Z</time>
      </trkpt>
      <trkpt lat="45.07972" lon="5.84578">
        <ele>1136.9</ele>
        <time>2021-08-26T13:23:08Z</time>
      </trkpt>
      <trkpt lat="45.07975" lon="5.84578">
        <ele>1133.53</ele>
        <time>2021-08-26T13:23:15Z</time>
      </trkpt>
      <trkpt lat="45.07976" lon="5.84578">
        <ele>1137.38</ele>
        <time>2021-08-26T13:23:16Z</time>
      </trkpt>
      <trkpt lat="45.07977" lon="5.84578">
        <ele>1144.11</ele>
        <time>2021-08-26T13:23:17Z</time>
      </trkpt>
      <trkpt lat="45.07977" lon="5.84579">
        <ele>1139.78</ele>
        <time>2021-08-26T13:23:18Z</time>
      </trkpt>
      <trkpt lat="45.07978" lon="5.84579">
        <ele>1131.13</ele>
        <time>2021-08-26T13:23:19Z</time>
      </trkpt>
      <trkpt lat="45.07979" lon="5.8458">
        <ele>1146.51</ele>
        <time>2021-08-26T13:23:20Z</time>
      </trkpt>
      <trkpt lat="45.07979" lon="5.8458">
        <ele>1138.82</ele>
        <time>2021-08-26T13:23:21Z</time>
      </trkpt>
      <trkpt lat="45.07979" lon="5.84581">
        <ele>1135.45</ele>
        <time>2021-08-26T13:23:22Z</time>
      </trkpt>
      <trkpt lat="45.07979" lon="5.84582">
        <ele>1140.74</ele>
        <time>2021-08-26T13:23:23Z</time>
      </trkpt>
      <trkpt lat="45.07979" lon="5.84583">
        <ele>1121.03</ele>
        <time>2021-08-26T13:23:24Z</time>
      </trkpt>
      <trkpt lat="45.07979" lon="5.84583">
        <ele>1154.2</ele>
        <time>2021-08-26T13:23:25Z</time>
      </trkpt>
      <trkpt lat="45.07979" lon="5.84583">
        <ele>1145.07</ele>
        <time>2021-08-26T13:23:26Z</time>
      </trkpt>
      <trkpt lat="45.07979" lon="5.84585">
        <ele>1107.58</ele>
        <time>2021-08-26T13:23:27Z</time>
      </trkpt>
      <trkpt lat="45.0798" lon="5.84586">
        <ele>1164.29</ele>
        <time>2021-08-26T13:23:28Z</time>
      </trkpt>
      <trkpt lat="45.0798" lon="5.84587">
        <ele>1139.78</ele>
        <time>2021-08-26T13:23:29Z</time>
      </trkpt>
      <trkpt lat="45.0798" lon="5.84588">
        <ele>1136.42</ele>
        <time>2021-08-26T13:23:30Z</time>
      </trkpt>
      <trkpt lat="45.0798" lon="5.84589">
        <ele>1142.66</ele>
        <time>2021-08-26T13:23:31Z</time>
      </trkpt>
      <trkpt lat="45.07981" lon="5.8459">
        <ele>1138.82</ele>
        <time>2021-08-26T13:23:32Z</time>
      </trkpt>
      <trkpt lat="45.07982" lon="5.84592">
        <ele>1124.88</ele>
        <time>2021-08-26T13:23:34Z</time>
      </trkpt>
      <trkpt lat="45.07983" lon="5.84593">
        <ele>1149.87</ele>
        <time>2021-08-26T13:23:35Z</time>
      </trkpt>
      <trkpt lat="45.07983" lon="5.84593">
        <ele>1140.26</ele>
        <time>2021-08-26T13:23:36Z</time>
      </trkpt>
      <trkpt lat="45.07984" lon="5.84594">
        <ele>1139.3</ele>
        <time>2021-08-26T13:23:38Z</time>
      </trkpt>
      <trkpt lat="45.07989" lon="5.84601">
        <ele>1140.74</ele>
        <time>2021-08-26T13:23:51Z</time>
      </trkpt>
      <trkpt lat="45.07998" lon="5.84603">
        <ele>1141.7</ele>
        <time>2021-08-26T13:24:07Z</time>
      </trkpt>
      <trkpt lat="45.08002" lon="5.84602">
        <ele>1141.7</ele>
        <time>2021-08-26T13:24:23Z</time>
      </trkpt>
      <trkpt lat="45.08003" lon="5.84602">
        <ele>1142.66</ele>
        <time>2021-08-26T13:24:38Z</time>
      </trkpt>
      <trkpt lat="45.08008" lon="5.84603">
        <ele>1143.63</ele>
        <time>2021-08-26T13:24:50Z</time>
      </trkpt>
      <trkpt lat="45.08015" lon="5.84604">
        <ele>1144.11</ele>
        <time>2021-08-26T13:25:02Z</time>
      </trkpt>
      <trkpt lat="45.08024" lon="5.84599">
        <ele>1145.07</ele>
        <time>2021-08-26T13:25:16Z</time>
      </trkpt>
      <trkpt lat="45.08028" lon="5.84601">
        <ele>1145.07</ele>
        <time>2021-08-26T13:25:43Z</time>
      </trkpt>
      <trkpt lat="45.08031" lon="5.84599">
        <ele>1146.51</ele>
        <time>2021-08-26T13:26:04Z</time>
      </trkpt>
      <trkpt lat="45.08035" lon="5.84598">
        <ele>1147.95</ele>
        <time>2021-08-26T13:26:20Z</time>
      </trkpt>
      <trkpt lat="45.0804" lon="5.84596">
        <ele>1149.39</ele>
        <time>2021-08-26T13:26:37Z</time>
      </trkpt>
      <trkpt lat="45.08056" lon="5.8459">
        <ele>1150.35</ele>
        <time>2021-08-26T13:26:51Z</time>
      </trkpt>
      <trkpt lat="45.08062" lon="5.84589">
        <ele>1152.76</ele>
        <time>2021-08-26T13:27:09Z</time>
      </trkpt>
      <trkpt lat="45.08069" lon="5.84586">
        <ele>1154.68</ele>
        <time>2021-08-26T13:27:26Z</time>
      </trkpt>
      <trkpt lat="45.08076" lon="5.84587">
        <ele>1156.6</ele>
        <time>2021-08-26T13:27:42Z</time>
      </trkpt>
      <trkpt lat="45.08092" lon="5.84594">
        <ele>1158.53</ele>
        <time>2021-08-26T13:28:02Z</time>
      </trkpt>
      <trkpt lat="45.08101" lon="5.846">
        <ele>1159.97</ele>
        <time>2021-08-26T13:28:18Z</time>
      </trkpt>
      <trkpt lat="45.08104" lon="5.84604">
        <ele>1160.93</ele>
        <time>2021-08-26T13:28:38Z</time>
      </trkpt>
      <trkpt lat="45.08104" lon="5.84606">
        <ele>1161.41</ele>
        <time>2021-08-26T13:29:02Z</time>
      </trkpt>
      <trkpt lat="45.08114" lon="5.84612">
        <ele>1162.85</ele>
        <time>2021-08-26T13:29:18Z</time>
      </trkpt>
      <trkpt lat="45.08118" lon="5.8462">
        <ele>1164.77</ele>
        <time>2021-08-26T13:29:38Z</time>
      </trkpt>
      <trkpt lat="45.0812" lon="5.84621">
        <ele>1166.22</ele>
        <time>2021-08-26T13:29:55Z</time>
      </trkpt>
      <trkpt lat="45.08128" lon="5.84632">
        <ele>1168.14</ele>
        <time>2021-08-26T13:30:13Z</time>
      </trkpt>
      <trkpt lat="45.08131" lon="5.84641">
        <ele>1170.06</ele>
        <time>2021-08-26T13:30:32Z</time>
      </trkpt>
      <trkpt lat="45.08133" lon="5.84641">
        <ele>1170.54</ele>
        <time>2021-08-26T13:30:58Z</time>
      </trkpt>
      <trkpt lat="45.08133" lon="5.84646">
        <ele>1170.54</ele>
        <time>2021-08-26T13:31:23Z</time>
      </trkpt>
      <trkpt lat="45.08132" lon="5.84648">
        <ele>1170.54</ele>
        <time>2021-08-26T13:31:52Z</time>
      </trkpt>
      <trkpt lat="45.08131" lon="5.84649">
        <ele>1170.54</ele>
        <time>2021-08-26T13:32:20Z</time>
      </trkpt>
      <trkpt lat="45.08134" lon="5.84649">
        <ele>1171.5</ele>
        <time>2021-08-26T13:32:39Z</time>
      </trkpt>
      <trkpt lat="45.08143" lon="5.84656">
        <ele>1174.39</ele>
        <time>2021-08-26T13:32:59Z</time>
      </trkpt>
      <trkpt lat="45.08157" lon="5.84668">
        <ele>1175.83</ele>
        <time>2021-08-26T13:33:15Z</time>
      </trkpt>
      <trkpt lat="45.0816" lon="5.84677">
        <ele>1177.27</ele>
        <time>2021-08-26T13:33:30Z</time>
      </trkpt>
      <trkpt lat="45.08159" lon="5.84676">
        <ele>1177.75</ele>
        <time>2021-08-26T13:33:45Z</time>
      </trkpt>
      <trkpt lat="45.08157" lon="5.84673">
        <ele>1177.75</ele>
        <time>2021-08-26T13:34:04Z</time>
      </trkpt>
      <trkpt lat="45.08155" lon="5.84673">
        <ele>1177.75</ele>
        <time>2021-08-26T13:34:29Z</time>
      </trkpt>
      <trkpt lat="45.08159" lon="5.84677">
        <ele>1179.67</ele>
        <time>2021-08-26T13:34:47Z</time>
      </trkpt>
      <trkpt lat="45.08161" lon="5.8468">
        <ele>1181.12</ele>
        <time>2021-08-26T13:35:05Z</time>
      </trkpt>
      <trkpt lat="45.08165" lon="5.84687">
        <ele>1182.56</ele>
        <time>2021-08-26T13:35:23Z</time>
      </trkpt>
      <trkpt lat="45.08168" lon="5.84701">
        <ele>1184</ele>
        <time>2021-08-26T13:35:38Z</time>
      </trkpt>
      <trkpt lat="45.08171" lon="5.84706">
        <ele>1185.92</ele>
        <time>2021-08-26T13:35:56Z</time>
      </trkpt>
      <trkpt lat="45.08172" lon="5.84711">
        <ele>1187.37</ele>
        <time>2021-08-26T13:36:13Z</time>
      </trkpt>
      <trkpt lat="45.08171" lon="5.84703">
        <ele>1187.37</ele>
        <time>2021-08-26T13:36:26Z</time>
      </trkpt>
      <trkpt lat="45.08174" lon="5.84702">
        <ele>1187.85</ele>
        <time>2021-08-26T13:36:44Z</time>
      </trkpt>
      <trkpt lat="45.08172" lon="5.84702">
        <ele>1187.37</ele>
        <time>2021-08-26T13:37:00Z</time>
      </trkpt>
      <trkpt lat="45.08173" lon="5.847">
        <ele>1187.37</ele>
        <time>2021-08-26T13:37:17Z</time>
      </trkpt>
      <trkpt lat="45.08174" lon="5.84704">
        <ele>1188.33</ele>
        <time>2021-08-26T13:37:39Z</time>
      </trkpt>
      <trkpt lat="45.08175" lon="5.84711">
        <ele>1187.37</ele>
        <time>2021-08-26T13:37:52Z</time>
      </trkpt>
      <trkpt lat="45.08174" lon="5.8471">
        <ele>1186.4</ele>
        <time>2021-08-26T13:38:07Z</time>
      </trkpt>
      <trkpt lat="45.08173" lon="5.84709">
        <ele>1186.4</ele>
        <time>2021-08-26T13:38:31Z</time>
      </trkpt>
      <trkpt lat="45.08173" lon="5.8471">
        <ele>1185.92</ele>
        <time>2021-08-26T13:38:57Z</time>
      </trkpt>
      <trkpt lat="45.08173" lon="5.84712">
        <ele>1186.4</ele>
        <time>2021-08-26T13:39:16Z</time>
      </trkpt>
      <trkpt lat="45.08171" lon="5.84712">
        <ele>1186.4</ele>
        <time>2021-08-26T13:39:41Z</time>
      </trkpt>
      <trkpt lat="45.08172" lon="5.84708">
        <ele>1186.4</ele>
        <time>2021-08-26T13:40:09Z</time>
      </trkpt>
      <trkpt lat="45.08173" lon="5.84708">
        <ele>1186.88</ele>
        <time>2021-08-26T13:40:28Z</time>
      </trkpt>
      <trkpt lat="45.08176" lon="5.84719">
        <ele>1188.33</ele>
        <time>2021-08-26T13:40:48Z</time>
      </trkpt>
      <trkpt lat="45.08176" lon="5.8473">
        <ele>1190.25</ele>
        <time>2021-08-26T13:41:03Z</time>
      </trkpt>
      <trkpt lat="45.08187" lon="5.84747">
        <ele>1192.65</ele>
        <time>2021-08-26T13:41:21Z</time>
      </trkpt>
      <trkpt lat="45.0819" lon="5.84754">
        <ele>1194.09</ele>
        <time>2021-08-26T13:41:36Z</time>
      </trkpt>
      <trkpt lat="45.08189" lon="5.84753">
        <ele>1194.58</ele>
        <time>2021-08-26T13:41:58Z</time>
      </trkpt>
      <trkpt lat="45.08186" lon="5.84755">
        <ele>1194.09</ele>
        <time>2021-08-26T13:42:26Z</time>
      </trkpt>
      <trkpt lat="45.08185" lon="5.84756">
        <ele>1194.58</ele>
        <time>2021-08-26T13:42:57Z</time>
      </trkpt>
      <trkpt lat="45.08186" lon="5.84758">
        <ele>1195.06</ele>
        <time>2021-08-26T13:43:15Z</time>
      </trkpt>
      <trkpt lat="45.08191" lon="5.84766">
        <ele>1196.98</ele>
        <time>2021-08-26T13:43:31Z</time>
      </trkpt>
      <trkpt lat="45.08196" lon="5.84776">
        <ele>1198.42</ele>
        <time>2021-08-26T13:43:51Z</time>
      </trkpt>
      <trkpt lat="45.08198" lon="5.84782">
        <ele>1200.82</ele>
        <time>2021-08-26T13:44:10Z</time>
      </trkpt>
      <trkpt lat="45.082" lon="5.84784">
        <ele>1200.82</ele>
        <time>2021-08-26T13:44:34Z</time>
      </trkpt>
      <trkpt lat="45.08195" lon="5.84784">
        <ele>1200.82</ele>
        <time>2021-08-26T13:44:54Z</time>
      </trkpt>
      <trkpt lat="45.08195" lon="5.84784">
        <ele>1192.17</ele>
        <time>2021-08-26T13:44:55Z</time>
      </trkpt>
      <trkpt lat="45.08196" lon="5.84785">
        <ele>1208.03</ele>
        <time>2021-08-26T13:44:56Z</time>
      </trkpt>
      <trkpt lat="45.08197" lon="5.84785">
        <ele>1198.42</ele>
        <time>2021-08-26T13:44:57Z</time>
      </trkpt>
      <trkpt lat="45.08198" lon="5.84785">
        <ele>1205.63</ele>
        <time>2021-08-26T13:44:59Z</time>
      </trkpt>
      <trkpt lat="45.08199" lon="5.84785">
        <ele>1203.71</ele>
        <time>2021-08-26T13:45:00Z</time>
      </trkpt>
      <trkpt lat="45.082" lon="5.84784">
        <ele>1193.13</ele>
        <time>2021-08-26T13:45:01Z</time>
      </trkpt>
      <trkpt lat="45.082" lon="5.84784">
        <ele>1208.03</ele>
        <time>2021-08-26T13:45:02Z</time>
      </trkpt>
      <trkpt lat="45.082" lon="5.84784">
        <ele>1197.46</ele>
        <time>2021-08-26T13:45:03Z</time>
      </trkpt>
      <trkpt lat="45.082" lon="5.84784">
        <ele>1201.79</ele>
        <time>2021-08-26T13:45:04Z</time>
      </trkpt>
      <trkpt lat="45.082" lon="5.84784">
        <ele>1190.73</ele>
        <time>2021-08-26T13:45:05Z</time>
      </trkpt>
      <trkpt lat="45.08199" lon="5.84784">
        <ele>1212.36</ele>
        <time>2021-08-26T13:45:06Z</time>
      </trkpt>
      <trkpt lat="45.08199" lon="5.84784">
        <ele>1205.15</ele>
        <time>2021-08-26T13:45:07Z</time>
      </trkpt>
      <trkpt lat="45.08199" lon="5.84784">
        <ele>1201.3</ele>
        <time>2021-08-26T13:45:09Z</time>
      </trkpt>
      <trkpt lat="45.08199" lon="5.84784">
        <ele>1201.3</ele>
        <time>2021-08-26T13:45:10Z</time>
      </trkpt>
      <trkpt lat="45.08198" lon="5.84786">
        <ele>1188.33</ele>
        <time>2021-08-26T13:45:13Z</time>
      </trkpt>
      <trkpt lat="45.08197" lon="5.84786">
        <ele>1211.4</ele>
        <time>2021-08-26T13:45:14Z</time>
      </trkpt>
      <trkpt lat="45.08197" lon="5.84786">
        <ele>1201.79</ele>
        <time>2021-08-26T13:45:15Z</time>
      </trkpt>
      <trkpt lat="45.08197" lon="5.84787">
        <ele>1201.3</ele>
        <time>2021-08-26T13:45:17Z</time>
      </trkpt>
      <trkpt lat="45.08197" lon="5.84787">
        <ele>1196.98</ele>
        <time>2021-08-26T13:45:22Z</time>
      </trkpt>
      <trkpt lat="45.08197" lon="5.84788">
        <ele>1199.38</ele>
        <time>2021-08-26T13:45:23Z</time>
      </trkpt>
      <trkpt lat="45.08198" lon="5.84788">
        <ele>1206.59</ele>
        <time>2021-08-26T13:45:24Z</time>
      </trkpt>
      <trkpt lat="45.08198" lon="5.84788">
        <ele>1202.27</ele>
        <time>2021-08-26T13:45:25Z</time>
      </trkpt>
      <trkpt lat="45.08199" lon="5.84789">
        <ele>1201.3</ele>
        <time>2021-08-26T13:45:27Z</time>
      </trkpt>
      <trkpt lat="45.082" lon="5.84789">
        <ele>1201.3</ele>
        <time>2021-08-26T13:45:51Z</time>
      </trkpt>
      <trkpt lat="45.082" lon="5.8479">
        <ele>1201.3</ele>
        <time>2021-08-26T13:46:28Z</time>
      </trkpt>
      <trkpt lat="45.08201" lon="5.84789">
        <ele>1202.27</ele>
        <time>2021-08-26T13:46:47Z</time>
      </trkpt>
      <trkpt lat="45.08204" lon="5.84791">
        <ele>1203.71</ele>
        <time>2021-08-26T13:47:07Z</time>
      </trkpt>
      <trkpt lat="45.08212" lon="5.84795">
        <ele>1205.63</ele>
        <time>2021-08-26T13:47:23Z</time>
      </trkpt>
      <trkpt lat="45.08215" lon="5.84802">
        <ele>1207.55</ele>
        <time>2021-08-26T13:47:40Z</time>
      </trkpt>
      <trkpt lat="45.08217" lon="5.84816">
        <ele>1209.48</ele>
        <time>2021-08-26T13:47:59Z</time>
      </trkpt>
      <trkpt lat="45.08221" lon="5.84826">
        <ele>1211.4</ele>
        <time>2021-08-26T13:48:18Z</time>
      </trkpt>
      <trkpt lat="45.08225" lon="5.84832">
        <ele>1213.32</ele>
        <time>2021-08-26T13:48:35Z</time>
      </trkpt>
      <trkpt lat="45.08227" lon="5.84838">
        <ele>1215.24</ele>
        <time>2021-08-26T13:48:54Z</time>
      </trkpt>
      <trkpt lat="45.08231" lon="5.84846">
        <ele>1217.65</ele>
        <time>2021-08-26T13:49:12Z</time>
      </trkpt>
      <trkpt lat="45.08235" lon="5.84853">
        <ele>1219.57</ele>
        <time>2021-08-26T13:49:31Z</time>
      </trkpt>
      <trkpt lat="45.08239" lon="5.8486">
        <ele>1221.49</ele>
        <time>2021-08-26T13:49:47Z</time>
      </trkpt>
      <trkpt lat="45.08245" lon="5.84867">
        <ele>1224.38</ele>
        <time>2021-08-26T13:50:08Z</time>
      </trkpt>
      <trkpt lat="45.08253" lon="5.84873">
        <ele>1225.82</ele>
        <time>2021-08-26T13:50:25Z</time>
      </trkpt>
      <trkpt lat="45.08257" lon="5.84894">
        <ele>1228.22</ele>
        <time>2021-08-26T13:50:45Z</time>
      </trkpt>
      <trkpt lat="45.08257" lon="5.84918">
        <ele>1228.7</ele>
        <time>2021-08-26T13:50:58Z</time>
      </trkpt>
      <trkpt lat="45.08264" lon="5.84933">
        <ele>1229.18</ele>
        <time>2021-08-26T13:51:12Z</time>
      </trkpt>
      <trkpt lat="45.08271" lon="5.84943">
        <ele>1230.14</ele>
        <time>2021-08-26T13:51:22Z</time>
      </trkpt>
      <trkpt lat="45.08276" lon="5.84951">
        <ele>1231.59</ele>
        <time>2021-08-26T13:51:35Z</time>
      </trkpt>
      <trkpt lat="45.08276" lon="5.84959">
        <ele>1233.03</ele>
        <time>2021-08-26T13:51:48Z</time>
      </trkpt>
      <trkpt lat="45.08281" lon="5.8497">
        <ele>1234.95</ele>
        <time>2021-08-26T13:52:04Z</time>
      </trkpt>
      <trkpt lat="45.08278" lon="5.84971">
        <ele>1234.95</ele>
        <time>2021-08-26T13:52:26Z</time>
      </trkpt>
      <trkpt lat="45.08278" lon="5.84971">
        <ele>1234.95</ele>
        <time>2021-08-26T13:52:27Z</time>
      </trkpt>
      <trkpt lat="45.08281" lon="5.8496">
        <ele>1235.91</ele>
        <time>2021-08-26T13:52:40Z</time>
      </trkpt>
      <trkpt lat="45.08284" lon="5.84951">
        <ele>1237.35</ele>
        <time>2021-08-26T13:52:52Z</time>
      </trkpt>
      <trkpt lat="45.08289" lon="5.84948">
        <ele>1237.83</ele>
        <time>2021-08-26T13:53:07Z</time>
      </trkpt>
      <trkpt lat="45.08295" lon="5.84952">
        <ele>1238.32</ele>
        <time>2021-08-26T13:53:19Z</time>
      </trkpt>
      <trkpt lat="45.08304" lon="5.84959">
        <ele>1239.28</ele>
        <time>2021-08-26T13:53:31Z</time>
      </trkpt>
      <trkpt lat="45.08311" lon="5.84969">
        <ele>1240.72</ele>
        <time>2021-08-26T13:53:46Z</time>
      </trkpt>
      <trkpt lat="45.08319" lon="5.84976">
        <ele>1241.68</ele>
        <time>2021-08-26T13:53:58Z</time>
      </trkpt>
      <trkpt lat="45.08325" lon="5.84983">
        <ele>1242.64</ele>
        <time>2021-08-26T13:54:09Z</time>
      </trkpt>
      <trkpt lat="45.0833" lon="5.84992">
        <ele>1243.6</ele>
        <time>2021-08-26T13:54:21Z</time>
      </trkpt>
      <trkpt lat="45.08336" lon="5.84998">
        <ele>1246.97</ele>
        <time>2021-08-26T13:54:32Z</time>
      </trkpt>
      <trkpt lat="45.08337" lon="5.84999">
        <ele>1237.35</ele>
        <time>2021-08-26T13:54:33Z</time>
      </trkpt>
      <trkpt lat="45.08338" lon="5.85">
        <ele>1252.74</ele>
        <time>2021-08-26T13:54:34Z</time>
      </trkpt>
      <trkpt lat="45.08338" lon="5.85001">
        <ele>1242.64</ele>
        <time>2021-08-26T13:54:35Z</time>
      </trkpt>
      <trkpt lat="45.08338" lon="5.85002">
        <ele>1247.93</ele>
        <time>2021-08-26T13:54:36Z</time>
      </trkpt>
      <trkpt lat="45.08338" lon="5.85002">
        <ele>1232.55</ele>
        <time>2021-08-26T13:54:37Z</time>
      </trkpt>
      <trkpt lat="45.08338" lon="5.85003">
        <ele>1256.1</ele>
        <time>2021-08-26T13:54:38Z</time>
      </trkpt>
      <trkpt lat="45.08338" lon="5.85003">
        <ele>1235.43</ele>
        <time>2021-08-26T13:54:39Z</time>
      </trkpt>
      <trkpt lat="45.08339" lon="5.85004">
        <ele>1253.22</ele>
        <time>2021-08-26T13:54:40Z</time>
      </trkpt>
      <trkpt lat="45.08339" lon="5.85004">
        <ele>1233.51</ele>
        <time>2021-08-26T13:54:41Z</time>
      </trkpt>
      <trkpt lat="45.0834" lon="5.85005">
        <ele>1255.14</ele>
        <time>2021-08-26T13:54:42Z</time>
      </trkpt>
      <trkpt lat="45.0834" lon="5.85006">
        <ele>1246.49</ele>
        <time>2021-08-26T13:54:43Z</time>
      </trkpt>
      <trkpt lat="45.0834" lon="5.85006">
        <ele>1240.72</ele>
        <time>2021-08-26T13:54:44Z</time>
      </trkpt>
      <trkpt lat="45.0834" lon="5.85007">
        <ele>1249.37</ele>
        <time>2021-08-26T13:54:45Z</time>
      </trkpt>
      <trkpt lat="45.0834" lon="5.85008">
        <ele>1240.72</ele>
        <time>2021-08-26T13:54:46Z</time>
      </trkpt>
      <trkpt lat="45.0834" lon="5.85008">
        <ele>1251.29</ele>
        <time>2021-08-26T13:54:47Z</time>
      </trkpt>
      <trkpt lat="45.0834" lon="5.85009">
        <ele>1246.49</ele>
        <time>2021-08-26T13:54:48Z</time>
      </trkpt>
      <trkpt lat="45.08347" lon="5.85019">
        <ele>1246.97</ele>
        <time>2021-08-26T13:55:03Z</time>
      </trkpt>
      <trkpt lat="45.08347" lon="5.85026">
        <ele>1236.87</ele>
        <time>2021-08-26T13:55:09Z</time>
      </trkpt>
      <trkpt lat="45.08347" lon="5.85027">
        <ele>1259.46</ele>
        <time>2021-08-26T13:55:10Z</time>
      </trkpt>
      <trkpt lat="45.08347" lon="5.85028">
        <ele>1249.37</ele>
        <time>2021-08-26T13:55:11Z</time>
      </trkpt>
      <trkpt lat="45.08348" lon="5.85029">
        <ele>1248.41</ele>
        <time>2021-08-26T13:55:13Z</time>
      </trkpt>
      <trkpt lat="45.08357" lon="5.85038">
        <ele>1249.37</ele>
        <time>2021-08-26T13:55:29Z</time>
      </trkpt>
      <trkpt lat="45.08362" lon="5.85041">
        <ele>1239.76</ele>
        <time>2021-08-26T13:55:38Z</time>
      </trkpt>
      <trkpt lat="45.08362" lon="5.85041">
        <ele>1258.02</ele>
        <time>2021-08-26T13:55:39Z</time>
      </trkpt>
      <trkpt lat="45.08362" lon="5.85041">
        <ele>1241.2</ele>
        <time>2021-08-26T13:55:40Z</time>
      </trkpt>
      <trkpt lat="45.08362" lon="5.85041">
        <ele>1257.54</ele>
        <time>2021-08-26T13:55:41Z</time>
      </trkpt>
      <trkpt lat="45.08362" lon="5.85041">
        <ele>1250.81</ele>
        <time>2021-08-26T13:55:42Z</time>
      </trkpt>
      <trkpt lat="45.08364" lon="5.85041">
        <ele>1256.1</ele>
        <time>2021-08-26T13:55:45Z</time>
      </trkpt>
      <trkpt lat="45.08365" lon="5.85041">
        <ele>1238.32</ele>
        <time>2021-08-26T13:55:47Z</time>
      </trkpt>
      <trkpt lat="45.08366" lon="5.85041">
        <ele>1260.91</ele>
        <time>2021-08-26T13:55:48Z</time>
      </trkpt>
      <trkpt lat="45.08367" lon="5.8504">
        <ele>1251.77</ele>
        <time>2021-08-26T13:55:49Z</time>
      </trkpt>
      <trkpt lat="45.08368" lon="5.8504">
        <ele>1250.81</ele>
        <time>2021-08-26T13:55:51Z</time>
      </trkpt>
      <trkpt lat="45.08373" lon="5.85038">
        <ele>1245.04</ele>
        <time>2021-08-26T13:55:56Z</time>
      </trkpt>
      <trkpt lat="45.08373" lon="5.85038">
        <ele>1254.66</ele>
        <time>2021-08-26T13:55:57Z</time>
      </trkpt>
      <trkpt lat="45.08373" lon="5.85038">
        <ele>1251.29</ele>
        <time>2021-08-26T13:55:58Z</time>
      </trkpt>
      <trkpt lat="45.08385" lon="5.85024">
        <ele>1251.29</ele>
        <time>2021-08-26T13:56:14Z</time>
      </trkpt>
      <trkpt lat="45.08389" lon="5.8502">
        <ele>1252.25</ele>
        <time>2021-08-26T13:56:20Z</time>
      </trkpt>
      <trkpt lat="45.08399" lon="5.85003">
        <ele>1253.22</ele>
        <time>2021-08-26T13:56:39Z</time>
      </trkpt>
      <trkpt lat="45.08399" lon="5.84984">
        <ele>1255.14</ele>
        <time>2021-08-26T13:56:57Z</time>
      </trkpt>
      <trkpt lat="45.08398" lon="5.84971">
        <ele>1255.14</ele>
        <time>2021-08-26T13:57:13Z</time>
      </trkpt>
      <trkpt lat="45.0839" lon="5.84955">
        <ele>1256.1</ele>
        <time>2021-08-26T13:57:27Z</time>
      </trkpt>
      <trkpt lat="45.08382" lon="5.8494">
        <ele>1257.06</ele>
        <time>2021-08-26T13:57:41Z</time>
      </trkpt>
      <trkpt lat="45.08377" lon="5.84932">
        <ele>1257.54</ele>
        <time>2021-08-26T13:57:50Z</time>
      </trkpt>
      <trkpt lat="45.08376" lon="5.8493">
        <ele>1257.54</ele>
        <time>2021-08-26T13:57:52Z</time>
      </trkpt>
      <trkpt lat="45.08372" lon="5.84913">
        <ele>1258.02</ele>
        <time>2021-08-26T13:58:05Z</time>
      </trkpt>
      <trkpt lat="45.08372" lon="5.84905">
        <ele>1258.5</ele>
        <time>2021-08-26T13:58:11Z</time>
      </trkpt>
      <trkpt lat="45.08376" lon="5.84887">
        <ele>1259.46</ele>
        <time>2021-08-26T13:58:26Z</time>
      </trkpt>
      <trkpt lat="45.08381" lon="5.84869">
        <ele>1259.94</ele>
        <time>2021-08-26T13:58:41Z</time>
      </trkpt>
      <trkpt lat="45.08385" lon="5.84851">
        <ele>1260.43</ele>
        <time>2021-08-26T13:58:55Z</time>
      </trkpt>
      <trkpt lat="45.08391" lon="5.84834">
        <ele>1261.39</ele>
        <time>2021-08-26T13:59:09Z</time>
      </trkpt>
      <trkpt lat="45.08395" lon="5.84825">
        <ele>1261.87</ele>
        <time>2021-08-26T13:59:24Z</time>
      </trkpt>
      <trkpt lat="45.08398" lon="5.84821">
        <ele>1261.87</ele>
        <time>2021-08-26T13:59:27Z</time>
      </trkpt>
      <trkpt lat="45.08406" lon="5.84804">
        <ele>1261.87</ele>
        <time>2021-08-26T13:59:41Z</time>
      </trkpt>
      <trkpt lat="45.08412" lon="5.84792">
        <ele>1261.87</ele>
        <time>2021-08-26T13:59:50Z</time>
      </trkpt>
      <trkpt lat="45.08415" lon="5.84785">
        <ele>1261.87</ele>
        <time>2021-08-26T13:59:55Z</time>
      </trkpt>
      <trkpt lat="45.08426" lon="5.84769">
        <ele>1262.35</ele>
        <time>2021-08-26T14:00:09Z</time>
      </trkpt>
      <trkpt lat="45.08431" lon="5.84763">
        <ele>1262.35</ele>
        <time>2021-08-26T14:00:15Z</time>
      </trkpt>
      <trkpt lat="45.08449" lon="5.84752">
        <ele>1262.35</ele>
        <time>2021-08-26T14:00:31Z</time>
      </trkpt>
      <trkpt lat="45.08462" lon="5.84756">
        <ele>1262.83</ele>
        <time>2021-08-26T14:00:47Z</time>
      </trkpt>
      <trkpt lat="45.08483" lon="5.84761">
        <ele>1263.31</ele>
        <time>2021-08-26T14:01:04Z</time>
      </trkpt>
      <trkpt lat="45.08507" lon="5.84763">
        <ele>1262.35</ele>
        <time>2021-08-26T14:01:22Z</time>
      </trkpt>
      <trkpt lat="45.08521" lon="5.84768">
        <ele>1262.35</ele>
        <time>2021-08-26T14:01:39Z</time>
      </trkpt>
      <trkpt lat="45.08527" lon="5.84773">
        <ele>1262.35</ele>
        <time>2021-08-26T14:01:58Z</time>
      </trkpt>
      <trkpt lat="45.08536" lon="5.84767">
        <ele>1261.87</ele>
        <time>2021-08-26T14:02:12Z</time>
      </trkpt>
      <trkpt lat="45.08555" lon="5.84752">
        <ele>1261.87</ele>
        <time>2021-08-26T14:02:27Z</time>
      </trkpt>
      <trkpt lat="45.08577" lon="5.84742">
        <ele>1261.39</ele>
        <time>2021-08-26T14:02:45Z</time>
      </trkpt>
      <trkpt lat="45.08589" lon="5.84742">
        <ele>1260.91</ele>
        <time>2021-08-26T14:02:59Z</time>
      </trkpt>
      <trkpt lat="45.08603" lon="5.84745">
        <ele>1260.91</ele>
        <time>2021-08-26T14:03:12Z</time>
      </trkpt>
      <trkpt lat="45.08624" lon="5.84749">
        <ele>1259.94</ele>
        <time>2021-08-26T14:03:26Z</time>
      </trkpt>
      <trkpt lat="45.08639" lon="5.84753">
        <ele>1259.94</ele>
        <time>2021-08-26T14:03:40Z</time>
      </trkpt>
      <trkpt lat="45.0865" lon="5.84759">
        <ele>1259.46</ele>
        <time>2021-08-26T14:03:51Z</time>
      </trkpt>
      <trkpt lat="45.08667" lon="5.84768">
        <ele>1259.94</ele>
        <time>2021-08-26T14:04:07Z</time>
      </trkpt>
      <trkpt lat="45.08678" lon="5.84773">
        <ele>1259.94</ele>
        <time>2021-08-26T14:04:20Z</time>
      </trkpt>
      <trkpt lat="45.08681" lon="5.84773">
        <ele>1259.94</ele>
        <time>2021-08-26T14:04:23Z</time>
      </trkpt>
      <trkpt lat="45.08686" lon="5.8477">
        <ele>1259.94</ele>
        <time>2021-08-26T14:04:28Z</time>
      </trkpt>
      <trkpt lat="45.08689" lon="5.84768">
        <ele>1259.94</ele>
        <time>2021-08-26T14:04:31Z</time>
      </trkpt>
      <trkpt lat="45.08697" lon="5.84764">
        <ele>1259.46</ele>
        <time>2021-08-26T14:04:47Z</time>
      </trkpt>
      <trkpt lat="45.08701" lon="5.84765">
        <ele>1258.5</ele>
        <time>2021-08-26T14:04:57Z</time>
      </trkpt>
      <trkpt lat="45.0871" lon="5.84782">
        <ele>1257.54</ele>
        <time>2021-08-26T14:05:10Z</time>
      </trkpt>
      <trkpt lat="45.08719" lon="5.84795">
        <ele>1257.54</ele>
        <time>2021-08-26T14:05:21Z</time>
      </trkpt>
      <trkpt lat="45.08727" lon="5.84807">
        <ele>1258.98</ele>
        <time>2021-08-26T14:05:32Z</time>
      </trkpt>
      <trkpt lat="45.08734" lon="5.84824">
        <ele>1258.5</ele>
        <time>2021-08-26T14:05:47Z</time>
      </trkpt>
      <trkpt lat="45.08735" lon="5.84835">
        <ele>1258.98</ele>
        <time>2021-08-26T14:06:01Z</time>
      </trkpt>
      <trkpt lat="45.08737" lon="5.84837">
        <ele>1259.94</ele>
        <time>2021-08-26T14:06:18Z</time>
      </trkpt>
      <trkpt lat="45.08737" lon="5.84839">
        <ele>1259.94</ele>
        <time>2021-08-26T14:06:43Z</time>
      </trkpt>
      <trkpt lat="45.08737" lon="5.84838">
        <ele>1260.43</ele>
        <time>2021-08-26T14:07:08Z</time>
      </trkpt>
      <trkpt lat="45.08737" lon="5.84838">
        <ele>1260.43</ele>
        <time>2021-08-26T14:07:26Z</time>
      </trkpt>
      <trkpt lat="45.08738" lon="5.84838">
        <ele>1260.43</ele>
        <time>2021-08-26T14:07:40Z</time>
      </trkpt>
      <trkpt lat="45.08736" lon="5.8484">
        <ele>1259.46</ele>
        <time>2021-08-26T14:07:54Z</time>
      </trkpt>
      <trkpt lat="45.08735" lon="5.84839">
        <ele>1259.46</ele>
        <time>2021-08-26T14:08:23Z</time>
      </trkpt>
      <trkpt lat="45.08734" lon="5.84839">
        <ele>1259.94</ele>
        <time>2021-08-26T14:08:54Z</time>
      </trkpt>
      <trkpt lat="45.08734" lon="5.84839">
        <ele>1259.94</ele>
        <time>2021-08-26T14:09:24Z</time>
      </trkpt>
      <trkpt lat="45.08734" lon="5.8484">
        <ele>1259.94</ele>
        <time>2021-08-26T14:10:05Z</time>
      </trkpt>
      <trkpt lat="45.08733" lon="5.8484">
        <ele>1260.43</ele>
        <time>2021-08-26T14:10:44Z</time>
      </trkpt>
      <trkpt lat="45.08733" lon="5.8484">
        <ele>1259.94</ele>
        <time>2021-08-26T14:11:21Z</time>
      </trkpt>
      <trkpt lat="45.08732" lon="5.8484">
        <ele>1259.94</ele>
        <time>2021-08-26T14:11:56Z</time>
      </trkpt>
      <trkpt lat="45.08732" lon="5.84841">
        <ele>1259.94</ele>
        <time>2021-08-26T14:12:33Z</time>
      </trkpt>
      <trkpt lat="45.08732" lon="5.84841">
        <ele>1260.43</ele>
        <time>2021-08-26T14:13:07Z</time>
      </trkpt>
      <trkpt lat="45.08733" lon="5.84841">
        <ele>1260.43</ele>
        <time>2021-08-26T14:13:45Z</time>
      </trkpt>
      <trkpt lat="45.08733" lon="5.84841">
        <ele>1260.91</ele>
        <time>2021-08-26T14:14:12Z</time>
      </trkpt>
      <trkpt lat="45.08733" lon="5.84841">
        <ele>1260.91</ele>
        <time>2021-08-26T14:14:47Z</time>
      </trkpt>
      <trkpt lat="45.08732" lon="5.8484">
        <ele>1261.39</ele>
        <time>2021-08-26T14:15:02Z</time>
      </trkpt>
      <trkpt lat="45.08732" lon="5.84839">
        <ele>1261.87</ele>
        <time>2021-08-26T14:15:15Z</time>
      </trkpt>
      <trkpt lat="45.08734" lon="5.84837">
        <ele>1262.35</ele>
        <time>2021-08-26T14:15:37Z</time>
      </trkpt>
      <trkpt lat="45.08734" lon="5.84837">
        <ele>1261.87</ele>
        <time>2021-08-26T14:15:56Z</time>
      </trkpt>
      <trkpt lat="45.08734" lon="5.84836">
        <ele>1261.87</ele>
        <time>2021-08-26T14:16:28Z</time>
      </trkpt>
      <trkpt lat="45.08735" lon="5.84837">
        <ele>1262.35</ele>
        <time>2021-08-26T14:16:47Z</time>
      </trkpt>
      <trkpt lat="45.08735" lon="5.84835">
        <ele>1261.87</ele>
        <time>2021-08-26T14:17:22Z</time>
      </trkpt>
      <trkpt lat="45.08735" lon="5.84835">
        <ele>1262.35</ele>
        <time>2021-08-26T14:17:49Z</time>
      </trkpt>
      <trkpt lat="45.08736" lon="5.84836">
        <ele>1262.35</ele>
        <time>2021-08-26T14:18:13Z</time>
      </trkpt>
      <trkpt lat="45.08736" lon="5.84837">
        <ele>1261.87</ele>
        <time>2021-08-26T14:18:38Z</time>
      </trkpt>
      <trkpt lat="45.0873" lon="5.8485">
        <ele>1261.39</ele>
        <time>2021-08-26T14:18:54Z</time>
      </trkpt>
      <trkpt lat="45.08717" lon="5.84859">
        <ele>1260.91</ele>
        <time>2021-08-26T14:19:11Z</time>
      </trkpt>
      <trkpt lat="45.08712" lon="5.84865">
        <ele>1260.91</ele>
        <time>2021-08-26T14:19:23Z</time>
      </trkpt>
      <trkpt lat="45.0871" lon="5.84875">
        <ele>1260.43</ele>
        <time>2021-08-26T14:19:34Z</time>
      </trkpt>
      <trkpt lat="45.08706" lon="5.84884">
        <ele>1260.43</ele>
        <time>2021-08-26T14:19:45Z</time>
      </trkpt>
      <trkpt lat="45.08706" lon="5.84885">
        <ele>1260.43</ele>
        <time>2021-08-26T14:19:46Z</time>
      </trkpt>
      <trkpt lat="45.08703" lon="5.84902">
        <ele>1260.43</ele>
        <time>2021-08-26T14:19:59Z</time>
      </trkpt>
      <trkpt lat="45.08691" lon="5.84917">
        <ele>1259.94</ele>
        <time>2021-08-26T14:20:16Z</time>
      </trkpt>
      <trkpt lat="45.08685" lon="5.84929">
        <ele>1260.43</ele>
        <time>2021-08-26T14:20:31Z</time>
      </trkpt>
      <trkpt lat="45.0868" lon="5.84939">
        <ele>1260.43</ele>
        <time>2021-08-26T14:20:42Z</time>
      </trkpt>
      <trkpt lat="45.08684" lon="5.84945">
        <ele>1260.43</ele>
        <time>2021-08-26T14:20:57Z</time>
      </trkpt>
      <trkpt lat="45.08691" lon="5.84938">
        <ele>1259.94</ele>
        <time>2021-08-26T14:21:12Z</time>
      </trkpt>
      <trkpt lat="45.08697" lon="5.84934">
        <ele>1259.46</ele>
        <time>2021-08-26T14:21:20Z</time>
      </trkpt>
      <trkpt lat="45.08704" lon="5.84932">
        <ele>1259.94</ele>
        <time>2021-08-26T14:21:31Z</time>
      </trkpt>
      <trkpt lat="45.08717" lon="5.84932">
        <ele>1259.94</ele>
        <time>2021-08-26T14:21:45Z</time>
      </trkpt>
      <trkpt lat="45.08727" lon="5.8493">
        <ele>1260.43</ele>
        <time>2021-08-26T14:21:59Z</time>
      </trkpt>
      <trkpt lat="45.08738" lon="5.8493">
        <ele>1260.43</ele>
        <time>2021-08-26T14:22:12Z</time>
      </trkpt>
      <trkpt lat="45.0875" lon="5.8493">
        <ele>1260.43</ele>
        <time>2021-08-26T14:22:25Z</time>
      </trkpt>
      <trkpt lat="45.08753" lon="5.84927">
        <ele>1260.43</ele>
        <time>2021-08-26T14:22:37Z</time>
      </trkpt>
      <trkpt lat="45.08757" lon="5.84926">
        <ele>1260.91</ele>
        <time>2021-08-26T14:22:53Z</time>
      </trkpt>
      <trkpt lat="45.08766" lon="5.84925">
        <ele>1260.91</ele>
        <time>2021-08-26T14:23:05Z</time>
      </trkpt>
      <trkpt lat="45.08767" lon="5.84926">
        <ele>1260.43</ele>
        <time>2021-08-26T14:23:21Z</time>
      </trkpt>
      <trkpt lat="45.08767" lon="5.84926">
        <ele>1260.43</ele>
        <time>2021-08-26T14:23:39Z</time>
      </trkpt>
      <trkpt lat="45.08771" lon="5.84925">
        <ele>1260.91</ele>
        <time>2021-08-26T14:23:56Z</time>
      </trkpt>
      <trkpt lat="45.08781" lon="5.84926">
        <ele>1260.91</ele>
        <time>2021-08-26T14:24:08Z</time>
      </trkpt>
      <trkpt lat="45.08789" lon="5.84924">
        <ele>1260.91</ele>
        <time>2021-08-26T14:24:22Z</time>
      </trkpt>
      <trkpt lat="45.088" lon="5.84922">
        <ele>1261.39</ele>
        <time>2021-08-26T14:24:36Z</time>
      </trkpt>
      <trkpt lat="45.08807" lon="5.84919">
        <ele>1261.39</ele>
        <time>2021-08-26T14:24:48Z</time>
      </trkpt>
      <trkpt lat="45.08821" lon="5.84919">
        <ele>1261.87</ele>
        <time>2021-08-26T14:25:03Z</time>
      </trkpt>
      <trkpt lat="45.08826" lon="5.84913">
        <ele>1261.39</ele>
        <time>2021-08-26T14:25:19Z</time>
      </trkpt>
      <trkpt lat="45.08826" lon="5.84912">
        <ele>1261.39</ele>
        <time>2021-08-26T14:25:39Z</time>
      </trkpt>
      <trkpt lat="45.08829" lon="5.84914">
        <ele>1261.39</ele>
        <time>2021-08-26T14:25:59Z</time>
      </trkpt>
      <trkpt lat="45.08834" lon="5.84915">
        <ele>1261.39</ele>
        <time>2021-08-26T14:26:03Z</time>
      </trkpt>
      <trkpt lat="45.08843" lon="5.84911">
        <ele>1261.87</ele>
        <time>2021-08-26T14:26:15Z</time>
      </trkpt>
      <trkpt lat="45.08851" lon="5.84913">
        <ele>1261.87</ele>
        <time>2021-08-26T14:26:30Z</time>
      </trkpt>
      <trkpt lat="45.08853" lon="5.84914">
        <ele>1261.39</ele>
        <time>2021-08-26T14:26:42Z</time>
      </trkpt>
      <trkpt lat="45.08854" lon="5.8491">
        <ele>1261.39</ele>
        <time>2021-08-26T14:26:58Z</time>
      </trkpt>
      <trkpt lat="45.08855" lon="5.84911">
        <ele>1261.39</ele>
        <time>2021-08-26T14:27:22Z</time>
      </trkpt>
      <trkpt lat="45.08856" lon="5.8491">
        <ele>1261.39</ele>
        <time>2021-08-26T14:27:36Z</time>
      </trkpt>
      <trkpt lat="45.08858" lon="5.84911">
        <ele>1262.35</ele>
        <time>2021-08-26T14:27:59Z</time>
      </trkpt>
      <trkpt lat="45.08864" lon="5.84913">
        <ele>1261.39</ele>
        <time>2021-08-26T14:28:15Z</time>
      </trkpt>
      <trkpt lat="45.08866" lon="5.84916">
        <ele>1261.39</ele>
        <time>2021-08-26T14:28:32Z</time>
      </trkpt>
      <trkpt lat="45.08872" lon="5.84916">
        <ele>1260.91</ele>
        <time>2021-08-26T14:28:51Z</time>
      </trkpt>
      <trkpt lat="45.08886" lon="5.8491">
        <ele>1261.87</ele>
        <time>2021-08-26T14:29:08Z</time>
      </trkpt>
      <trkpt lat="45.08887" lon="5.84907">
        <ele>1261.39</ele>
        <time>2021-08-26T14:29:21Z</time>
      </trkpt>
      <trkpt lat="45.08887" lon="5.84909">
        <ele>1261.87</ele>
        <time>2021-08-26T14:29:43Z</time>
      </trkpt>
      <trkpt lat="45.0889" lon="5.84909">
        <ele>1261.87</ele>
        <time>2021-08-26T14:29:55Z</time>
      </trkpt>
      <trkpt lat="45.08898" lon="5.84906">
        <ele>1261.87</ele>
        <time>2021-08-26T14:30:12Z</time>
      </trkpt>
      <trkpt lat="45.08911" lon="5.84902">
        <ele>1262.35</ele>
        <time>2021-08-26T14:30:23Z</time>
      </trkpt>
      <trkpt lat="45.08923" lon="5.84901">
        <ele>1261.87</ele>
        <time>2021-08-26T14:30:36Z</time>
      </trkpt>
      <trkpt lat="45.08932" lon="5.84903">
        <ele>1262.35</ele>
        <time>2021-08-26T14:30:44Z</time>
      </trkpt>
      <trkpt lat="45.0894" lon="5.84909">
        <ele>1262.35</ele>
        <time>2021-08-26T14:30:53Z</time>
      </trkpt>
      <trkpt lat="45.08948" lon="5.84915">
        <ele>1262.35</ele>
        <time>2021-08-26T14:31:04Z</time>
      </trkpt>
      <trkpt lat="45.08952" lon="5.8492">
        <ele>1261.87</ele>
        <time>2021-08-26T14:31:08Z</time>
      </trkpt>
      <trkpt lat="45.08965" lon="5.84925">
        <ele>1262.35</ele>
        <time>2021-08-26T14:31:21Z</time>
      </trkpt>
      <trkpt lat="45.08968" lon="5.84925">
        <ele>1261.87</ele>
        <time>2021-08-26T14:31:40Z</time>
      </trkpt>
      <trkpt lat="45.08972" lon="5.84925">
        <ele>1262.35</ele>
        <time>2021-08-26T14:31:53Z</time>
      </trkpt>
      <trkpt lat="45.08975" lon="5.84927">
        <ele>1263.79</ele>
        <time>2021-08-26T14:31:59Z</time>
      </trkpt>
      <trkpt lat="45.08978" lon="5.8493">
        <ele>1263.31</ele>
        <time>2021-08-26T14:32:03Z</time>
      </trkpt>
      <trkpt lat="45.08984" lon="5.84932">
        <ele>1263.79</ele>
        <time>2021-08-26T14:32:16Z</time>
      </trkpt>
      <trkpt lat="45.08991" lon="5.84929">
        <ele>1264.27</ele>
        <time>2021-08-26T14:32:29Z</time>
      </trkpt>
      <trkpt lat="45.08992" lon="5.84929">
        <ele>1264.27</ele>
        <time>2021-08-26T14:32:30Z</time>
      </trkpt>
      <trkpt lat="45.09002" lon="5.84929">
        <ele>1265.23</ele>
        <time>2021-08-26T14:32:42Z</time>
      </trkpt>
      <trkpt lat="45.09003" lon="5.84929">
        <ele>1265.23</ele>
        <time>2021-08-26T14:32:45Z</time>
      </trkpt>
      <trkpt lat="45.09012" lon="5.84927">
        <ele>1264.75</ele>
        <time>2021-08-26T14:32:59Z</time>
      </trkpt>
      <trkpt lat="45.09014" lon="5.84921">
        <ele>1264.75</ele>
        <time>2021-08-26T14:33:07Z</time>
      </trkpt>
      <trkpt lat="45.09018" lon="5.84914">
        <ele>1264.27</ele>
        <time>2021-08-26T14:33:18Z</time>
      </trkpt>
      <trkpt lat="45.09018" lon="5.84909">
        <ele>1264.75</ele>
        <time>2021-08-26T14:33:39Z</time>
      </trkpt>
      <trkpt lat="45.09018" lon="5.84916">
        <ele>1264.75</ele>
        <time>2021-08-26T14:33:50Z</time>
      </trkpt>
      <trkpt lat="45.09022" lon="5.84922">
        <ele>1265.23</ele>
        <time>2021-08-26T14:33:55Z</time>
      </trkpt>
      <trkpt lat="45.09023" lon="5.8493">
        <ele>1266.19</ele>
        <time>2021-08-26T14:34:01Z</time>
      </trkpt>
      <trkpt lat="45.09026" lon="5.84933">
        <ele>1266.19</ele>
        <time>2021-08-26T14:34:05Z</time>
      </trkpt>
      <trkpt lat="45.09033" lon="5.84942">
        <ele>1266.67</ele>
        <time>2021-08-26T14:34:18Z</time>
      </trkpt>
      <trkpt lat="45.09036" lon="5.84942">
        <ele>1266.19</ele>
        <time>2021-08-26T14:34:34Z</time>
      </trkpt>
      <trkpt lat="45.09039" lon="5.84947">
        <ele>1266.19</ele>
        <time>2021-08-26T14:34:43Z</time>
      </trkpt>
      <trkpt lat="45.0904" lon="5.8495">
        <ele>1266.19</ele>
        <time>2021-08-26T14:34:57Z</time>
      </trkpt>
      <trkpt lat="45.09047" lon="5.8496">
        <ele>1266.19</ele>
        <time>2021-08-26T14:35:10Z</time>
      </trkpt>
      <trkpt lat="45.09056" lon="5.84967">
        <ele>1267.16</ele>
        <time>2021-08-26T14:35:21Z</time>
      </trkpt>
      <trkpt lat="45.09061" lon="5.84976">
        <ele>1268.12</ele>
        <time>2021-08-26T14:35:32Z</time>
      </trkpt>
      <trkpt lat="45.09062" lon="5.84978">
        <ele>1268.6</ele>
        <time>2021-08-26T14:35:46Z</time>
      </trkpt>
      <trkpt lat="45.09052" lon="5.84969">
        <ele>1267.16</ele>
        <time>2021-08-26T14:35:58Z</time>
      </trkpt>
      <trkpt lat="45.09036" lon="5.8496">
        <ele>1265.71</ele>
        <time>2021-08-26T14:36:13Z</time>
      </trkpt>
      <trkpt lat="45.09028" lon="5.84952">
        <ele>1265.23</ele>
        <time>2021-08-26T14:36:23Z</time>
      </trkpt>
      <trkpt lat="45.09017" lon="5.84939">
        <ele>1264.75</ele>
        <time>2021-08-26T14:36:34Z</time>
      </trkpt>
      <trkpt lat="45.09016" lon="5.84937">
        <ele>1264.27</ele>
        <time>2021-08-26T14:36:37Z</time>
      </trkpt>
      <trkpt lat="45.09014" lon="5.84926">
        <ele>1264.27</ele>
        <time>2021-08-26T14:36:47Z</time>
      </trkpt>
      <trkpt lat="45.09011" lon="5.84925">
        <ele>1263.79</ele>
        <time>2021-08-26T14:36:59Z</time>
      </trkpt>
      <trkpt lat="45.09009" lon="5.84926">
        <ele>1263.79</ele>
        <time>2021-08-26T14:37:00Z</time>
      </trkpt>
      <trkpt lat="45.08993" lon="5.8493">
        <ele>1262.35</ele>
        <time>2021-08-26T14:37:16Z</time>
      </trkpt>
      <trkpt lat="45.08985" lon="5.8493">
        <ele>1261.87</ele>
        <time>2021-08-26T14:37:25Z</time>
      </trkpt>
      <trkpt lat="45.0896" lon="5.84926">
        <ele>1260.43</ele>
        <time>2021-08-26T14:37:42Z</time>
      </trkpt>
      <trkpt lat="45.08949" lon="5.84919">
        <ele>1260.43</ele>
        <time>2021-08-26T14:37:55Z</time>
      </trkpt>
      <trkpt lat="45.08936" lon="5.84907">
        <ele>1260.43</ele>
        <time>2021-08-26T14:38:07Z</time>
      </trkpt>
      <trkpt lat="45.08918" lon="5.84905">
        <ele>1260.43</ele>
        <time>2021-08-26T14:38:20Z</time>
      </trkpt>
      <trkpt lat="45.08904" lon="5.8491">
        <ele>1260.43</ele>
        <time>2021-08-26T14:38:34Z</time>
      </trkpt>
      <trkpt lat="45.08888" lon="5.84914">
        <ele>1259.94</ele>
        <time>2021-08-26T14:38:47Z</time>
      </trkpt>
      <trkpt lat="45.08873" lon="5.84918">
        <ele>1259.94</ele>
        <time>2021-08-26T14:39:01Z</time>
      </trkpt>
      <trkpt lat="45.0887" lon="5.84917">
        <ele>1259.94</ele>
        <time>2021-08-26T14:39:03Z</time>
      </trkpt>
      <trkpt lat="45.08856" lon="5.84915">
        <ele>1259.94</ele>
        <time>2021-08-26T14:39:14Z</time>
      </trkpt>
      <trkpt lat="45.08841" lon="5.8492">
        <ele>1259.46</ele>
        <time>2021-08-26T14:39:29Z</time>
      </trkpt>
      <trkpt lat="45.08831" lon="5.84921">
        <ele>1259.46</ele>
        <time>2021-08-26T14:39:40Z</time>
      </trkpt>
      <trkpt lat="45.08825" lon="5.84921">
        <ele>1259.46</ele>
        <time>2021-08-26T14:39:46Z</time>
      </trkpt>
      <trkpt lat="45.08813" lon="5.84922">
        <ele>1259.46</ele>
        <time>2021-08-26T14:39:56Z</time>
      </trkpt>
      <trkpt lat="45.08802" lon="5.8492">
        <ele>1259.46</ele>
        <time>2021-08-26T14:40:05Z</time>
      </trkpt>
      <trkpt lat="45.08782" lon="5.84928">
        <ele>1258.98</ele>
        <time>2021-08-26T14:40:21Z</time>
      </trkpt>
      <trkpt lat="45.08769" lon="5.8493">
        <ele>1258.98</ele>
        <time>2021-08-26T14:40:33Z</time>
      </trkpt>
      <trkpt lat="45.08765" lon="5.84931">
        <ele>1258.98</ele>
        <time>2021-08-26T14:40:36Z</time>
      </trkpt>
      <trkpt lat="45.08756" lon="5.84931">
        <ele>1258.98</ele>
        <time>2021-08-26T14:40:44Z</time>
      </trkpt>
      <trkpt lat="45.08742" lon="5.84941">
        <ele>1259.46</ele>
        <time>2021-08-26T14:40:58Z</time>
      </trkpt>
      <trkpt lat="45.0874" lon="5.84941">
        <ele>1258.5</ele>
        <time>2021-08-26T14:41:00Z</time>
      </trkpt>
      <trkpt lat="45.08737" lon="5.84938">
        <ele>1258.5</ele>
        <time>2021-08-26T14:41:03Z</time>
      </trkpt>
      <trkpt lat="45.08728" lon="5.84938">
        <ele>1258.5</ele>
        <time>2021-08-26T14:41:10Z</time>
      </trkpt>
      <trkpt lat="45.08714" lon="5.84939">
        <ele>1258.5</ele>
        <time>2021-08-26T14:41:23Z</time>
      </trkpt>
      <trkpt lat="45.08697" lon="5.84941">
        <ele>1258.02</ele>
        <time>2021-08-26T14:41:37Z</time>
      </trkpt>
      <trkpt lat="45.08691" lon="5.84945">
        <ele>1258.02</ele>
        <time>2021-08-26T14:41:42Z</time>
      </trkpt>
      <trkpt lat="45.08681" lon="5.84949">
        <ele>1258.02</ele>
        <time>2021-08-26T14:41:55Z</time>
      </trkpt>
      <trkpt lat="45.08679" lon="5.84948">
        <ele>1258.02</ele>
        <time>2021-08-26T14:41:56Z</time>
      </trkpt>
      <trkpt lat="45.08684" lon="5.84929">
        <ele>1258.02</ele>
        <time>2021-08-26T14:42:08Z</time>
      </trkpt>
      <trkpt lat="45.08685" lon="5.84927">
        <ele>1257.54</ele>
        <time>2021-08-26T14:42:09Z</time>
      </trkpt>
      <trkpt lat="45.08687" lon="5.8492">
        <ele>1257.54</ele>
        <time>2021-08-26T14:42:13Z</time>
      </trkpt>
      <trkpt lat="45.08693" lon="5.84913">
        <ele>1257.54</ele>
        <time>2021-08-26T14:42:21Z</time>
      </trkpt>
      <trkpt lat="45.08698" lon="5.84906">
        <ele>1258.02</ele>
        <time>2021-08-26T14:42:26Z</time>
      </trkpt>
      <trkpt lat="45.08702" lon="5.849">
        <ele>1258.02</ele>
        <time>2021-08-26T14:42:30Z</time>
      </trkpt>
      <trkpt lat="45.08704" lon="5.84889">
        <ele>1258.02</ele>
        <time>2021-08-26T14:42:35Z</time>
      </trkpt>
      <trkpt lat="45.0871" lon="5.84876">
        <ele>1258.02</ele>
        <time>2021-08-26T14:42:42Z</time>
      </trkpt>
      <trkpt lat="45.08717" lon="5.84856">
        <ele>1258.02</ele>
        <time>2021-08-26T14:42:54Z</time>
      </trkpt>
      <trkpt lat="45.0872" lon="5.84855">
        <ele>1259.46</ele>
        <time>2021-08-26T14:42:58Z</time>
      </trkpt>
      <trkpt lat="45.08734" lon="5.84848">
        <ele>1259.46</ele>
        <time>2021-08-26T14:43:10Z</time>
      </trkpt>
      <trkpt lat="45.08734" lon="5.84845">
        <ele>1259.94</ele>
        <time>2021-08-26T14:43:22Z</time>
      </trkpt>
      <trkpt lat="45.08731" lon="5.84848">
        <ele>1259.46</ele>
        <time>2021-08-26T14:43:33Z</time>
      </trkpt>
      <trkpt lat="45.08728" lon="5.84852">
        <ele>1258.98</ele>
        <time>2021-08-26T14:43:37Z</time>
      </trkpt>
      <trkpt lat="45.08718" lon="5.84858">
        <ele>1258.5</ele>
        <time>2021-08-26T14:43:45Z</time>
      </trkpt>
      <trkpt lat="45.08716" lon="5.84861">
        <ele>1258.5</ele>
        <time>2021-08-26T14:43:48Z</time>
      </trkpt>
      <trkpt lat="45.08713" lon="5.84873">
        <ele>1258.02</ele>
        <time>2021-08-26T14:43:56Z</time>
      </trkpt>
      <trkpt lat="45.08708" lon="5.84894">
        <ele>1258.02</ele>
        <time>2021-08-26T14:44:10Z</time>
      </trkpt>
      <trkpt lat="45.08695" lon="5.8491">
        <ele>1258.02</ele>
        <time>2021-08-26T14:44:23Z</time>
      </trkpt>
      <trkpt lat="45.0869" lon="5.84923">
        <ele>1258.02</ele>
        <time>2021-08-26T14:44:33Z</time>
      </trkpt>
      <trkpt lat="45.08688" lon="5.84929">
        <ele>1258.5</ele>
        <time>2021-08-26T14:44:38Z</time>
      </trkpt>
      <trkpt lat="45.08686" lon="5.84933">
        <ele>1258.5</ele>
        <time>2021-08-26T14:44:40Z</time>
      </trkpt>
      <trkpt lat="45.08686" lon="5.84941">
        <ele>1258.5</ele>
        <time>2021-08-26T14:44:48Z</time>
      </trkpt>
      <trkpt lat="45.08689" lon="5.8494">
        <ele>1258.5</ele>
        <time>2021-08-26T14:44:50Z</time>
      </trkpt>
      <trkpt lat="45.087" lon="5.84937">
        <ele>1258.5</ele>
        <time>2021-08-26T14:45:00Z</time>
      </trkpt>
      <trkpt lat="45.08711" lon="5.84937">
        <ele>1258.5</ele>
        <time>2021-08-26T14:45:11Z</time>
      </trkpt>
      <trkpt lat="45.08721" lon="5.84934">
        <ele>1258.5</ele>
        <time>2021-08-26T14:45:21Z</time>
      </trkpt>
      <trkpt lat="45.08729" lon="5.84933">
        <ele>1258.98</ele>
        <time>2021-08-26T14:45:28Z</time>
      </trkpt>
      <trkpt lat="45.08733" lon="5.84932">
        <ele>1258.98</ele>
        <time>2021-08-26T14:45:30Z</time>
      </trkpt>
      <trkpt lat="45.08736" lon="5.84931">
        <ele>1258.98</ele>
        <time>2021-08-26T14:45:32Z</time>
      </trkpt>
      <trkpt lat="45.08741" lon="5.84931">
        <ele>1258.98</ele>
        <time>2021-08-26T14:45:36Z</time>
      </trkpt>
      <trkpt lat="45.08746" lon="5.84932">
        <ele>1258.98</ele>
        <time>2021-08-26T14:45:41Z</time>
      </trkpt>
      <trkpt lat="45.08759" lon="5.84927">
        <ele>1259.94</ele>
        <time>2021-08-26T14:45:51Z</time>
      </trkpt>
      <trkpt lat="45.08763" lon="5.84925">
        <ele>1259.94</ele>
        <time>2021-08-26T14:45:56Z</time>
      </trkpt>
      <trkpt lat="45.08777" lon="5.84925">
        <ele>1259.46</ele>
        <time>2021-08-26T14:46:08Z</time>
      </trkpt>
      <trkpt lat="45.0879" lon="5.84928">
        <ele>1259.46</ele>
        <time>2021-08-26T14:46:18Z</time>
      </trkpt>
      <trkpt lat="45.08802" lon="5.84923">
        <ele>1259.94</ele>
        <time>2021-08-26T14:46:30Z</time>
      </trkpt>
      <trkpt lat="45.08817" lon="5.84923">
        <ele>1260.43</ele>
        <time>2021-08-26T14:46:41Z</time>
      </trkpt>
      <trkpt lat="45.08817" lon="5.84923">
        <ele>1260.43</ele>
        <time>2021-08-26T14:46:42Z</time>
      </trkpt>
      <trkpt lat="45.08821" lon="5.84921">
        <ele>1260.91</ele>
        <time>2021-08-26T14:46:45Z</time>
      </trkpt>
      <trkpt lat="45.08829" lon="5.8492">
        <ele>1260.43</ele>
        <time>2021-08-26T14:46:51Z</time>
      </trkpt>
      <trkpt lat="45.08831" lon="5.8492">
        <ele>1260.43</ele>
        <time>2021-08-26T14:46:53Z</time>
      </trkpt>
      <trkpt lat="45.08836" lon="5.84919">
        <ele>1260.43</ele>
        <time>2021-08-26T14:46:58Z</time>
      </trkpt>
      <trkpt lat="45.08845" lon="5.84915">
        <ele>1260.91</ele>
        <time>2021-08-26T14:47:08Z</time>
      </trkpt>
      <trkpt lat="45.08853" lon="5.84913">
        <ele>1260.91</ele>
        <time>2021-08-26T14:47:13Z</time>
      </trkpt>
      <trkpt lat="45.08865" lon="5.84916">
        <ele>1260.91</ele>
        <time>2021-08-26T14:47:22Z</time>
      </trkpt>
      <trkpt lat="45.08872" lon="5.84917">
        <ele>1260.91</ele>
        <time>2021-08-26T14:47:30Z</time>
      </trkpt>
      <trkpt lat="45.08875" lon="5.84915">
        <ele>1260.91</ele>
        <time>2021-08-26T14:47:32Z</time>
      </trkpt>
      <trkpt lat="45.08883" lon="5.84916">
        <ele>1261.39</ele>
        <time>2021-08-26T14:47:38Z</time>
      </trkpt>
      <trkpt lat="45.08897" lon="5.84914">
        <ele>1261.39</ele>
        <time>2021-08-26T14:47:50Z</time>
      </trkpt>
      <trkpt lat="45.089" lon="5.84912">
        <ele>1261.39</ele>
        <time>2021-08-26T14:47:53Z</time>
      </trkpt>
      <trkpt lat="45.08911" lon="5.84908">
        <ele>1261.87</ele>
        <time>2021-08-26T14:48:07Z</time>
      </trkpt>
      <trkpt lat="45.08915" lon="5.84907">
        <ele>1261.87</ele>
        <time>2021-08-26T14:48:10Z</time>
      </trkpt>
      <trkpt lat="45.08929" lon="5.84907">
        <ele>1261.39</ele>
        <time>2021-08-26T14:48:20Z</time>
      </trkpt>
      <trkpt lat="45.08947" lon="5.84913">
        <ele>1261.39</ele>
        <time>2021-08-26T14:48:35Z</time>
      </trkpt>
      <trkpt lat="45.08948" lon="5.84913">
        <ele>1261.39</ele>
        <time>2021-08-26T14:48:36Z</time>
      </trkpt>
      <trkpt lat="45.08954" lon="5.84923">
        <ele>1261.39</ele>
        <time>2021-08-26T14:48:43Z</time>
      </trkpt>
      <trkpt lat="45.08967" lon="5.84925">
        <ele>1261.39</ele>
        <time>2021-08-26T14:48:51Z</time>
      </trkpt>
      <trkpt lat="45.08978" lon="5.8493">
        <ele>1262.83</ele>
        <time>2021-08-26T14:49:04Z</time>
      </trkpt>
      <trkpt lat="45.08981" lon="5.84929">
        <ele>1263.31</ele>
        <time>2021-08-26T14:49:08Z</time>
      </trkpt>
      <trkpt lat="45.08984" lon="5.84926">
        <ele>1263.79</ele>
        <time>2021-08-26T14:49:11Z</time>
      </trkpt>
      <trkpt lat="45.0899" lon="5.84923">
        <ele>1263.79</ele>
        <time>2021-08-26T14:49:16Z</time>
      </trkpt>
      <trkpt lat="45.08992" lon="5.84921">
        <ele>1263.79</ele>
        <time>2021-08-26T14:49:19Z</time>
      </trkpt>
      <trkpt lat="45.09004" lon="5.8492">
        <ele>1264.27</ele>
        <time>2021-08-26T14:49:34Z</time>
      </trkpt>
      <trkpt lat="45.09006" lon="5.8492">
        <ele>1264.27</ele>
        <time>2021-08-26T14:49:36Z</time>
      </trkpt>
      <trkpt lat="45.09011" lon="5.84921">
        <ele>1264.27</ele>
        <time>2021-08-26T14:49:40Z</time>
      </trkpt>
      <trkpt lat="45.09017" lon="5.84932">
        <ele>1265.23</ele>
        <time>2021-08-26T14:49:51Z</time>
      </trkpt>
      <trkpt lat="45.09024" lon="5.8494">
        <ele>1266.19</ele>
        <time>2021-08-26T14:49:59Z</time>
      </trkpt>
      <trkpt lat="45.09025" lon="5.84942">
        <ele>1266.19</ele>
        <time>2021-08-26T14:50:01Z</time>
      </trkpt>
      <trkpt lat="45.09031" lon="5.84948">
        <ele>1266.19</ele>
        <time>2021-08-26T14:50:07Z</time>
      </trkpt>
      <trkpt lat="45.09039" lon="5.84959">
        <ele>1267.16</ele>
        <time>2021-08-26T14:50:18Z</time>
      </trkpt>
      <trkpt lat="45.0904" lon="5.8496">
        <ele>1267.16</ele>
        <time>2021-08-26T14:50:19Z</time>
      </trkpt>
      <trkpt lat="45.09046" lon="5.84967">
        <ele>1267.64</ele>
        <time>2021-08-26T14:50:25Z</time>
      </trkpt>
      <trkpt lat="45.09053" lon="5.84976">
        <ele>1269.08</ele>
        <time>2021-08-26T14:50:34Z</time>
      </trkpt>
      <trkpt lat="45.09059" lon="5.84981">
        <ele>1269.56</ele>
        <time>2021-08-26T14:50:42Z</time>
      </trkpt>
      <trkpt lat="45.09062" lon="5.84981">
        <ele>1268.12</ele>
        <time>2021-08-26T14:50:45Z</time>
      </trkpt>
      <trkpt lat="45.0907" lon="5.84985">
        <ele>1267.64</ele>
        <time>2021-08-26T14:50:51Z</time>
      </trkpt>
      <trkpt lat="45.09076" lon="5.84988">
        <ele>1267.16</ele>
        <time>2021-08-26T14:50:57Z</time>
      </trkpt>
      <trkpt lat="45.09082" lon="5.84992">
        <ele>1267.64</ele>
        <time>2021-08-26T14:51:04Z</time>
      </trkpt>
      <trkpt lat="45.09087" lon="5.8499">
        <ele>1267.64</ele>
        <time>2021-08-26T14:51:09Z</time>
      </trkpt>
      <trkpt lat="45.09107" lon="5.84981">
        <ele>1267.64</ele>
        <time>2021-08-26T14:51:20Z</time>
      </trkpt>
      <trkpt lat="45.0911" lon="5.84982">
        <ele>1267.64</ele>
        <time>2021-08-26T14:51:23Z</time>
      </trkpt>
      <trkpt lat="45.09115" lon="5.84978">
        <ele>1267.64</ele>
        <time>2021-08-26T14:51:28Z</time>
      </trkpt>
      <trkpt lat="45.09125" lon="5.84974">
        <ele>1266.67</ele>
        <time>2021-08-26T14:51:43Z</time>
      </trkpt>
      <trkpt lat="45.09128" lon="5.84965">
        <ele>1265.23</ele>
        <time>2021-08-26T14:51:51Z</time>
      </trkpt>
      <trkpt lat="45.0913" lon="5.84937">
        <ele>1264.75</ele>
        <time>2021-08-26T14:52:03Z</time>
      </trkpt>
      <trkpt lat="45.0913" lon="5.84916">
        <ele>1264.75</ele>
        <time>2021-08-26T14:52:16Z</time>
      </trkpt>
      <trkpt lat="45.09131" lon="5.84914">
        <ele>1265.23</ele>
        <time>2021-08-26T14:52:18Z</time>
      </trkpt>
      <trkpt lat="45.09133" lon="5.84901">
        <ele>1265.23</ele>
        <time>2021-08-26T14:52:30Z</time>
      </trkpt>
      <trkpt lat="45.09135" lon="5.84888">
        <ele>1264.75</ele>
        <time>2021-08-26T14:52:41Z</time>
      </trkpt>
      <trkpt lat="45.09136" lon="5.84883">
        <ele>1264.27</ele>
        <time>2021-08-26T14:52:45Z</time>
      </trkpt>
      <trkpt lat="45.09138" lon="5.84881">
        <ele>1263.79</ele>
        <time>2021-08-26T14:52:47Z</time>
      </trkpt>
      <trkpt lat="45.09145" lon="5.84862">
        <ele>1263.31</ele>
        <time>2021-08-26T14:53:00Z</time>
      </trkpt>
      <trkpt lat="45.09145" lon="5.84837">
        <ele>1262.35</ele>
        <time>2021-08-26T14:53:15Z</time>
      </trkpt>
      <trkpt lat="45.09147" lon="5.84821">
        <ele>1259.94</ele>
        <time>2021-08-26T14:53:23Z</time>
      </trkpt>
      <trkpt lat="45.09155" lon="5.84807">
        <ele>1259.46</ele>
        <time>2021-08-26T14:53:36Z</time>
      </trkpt>
      <trkpt lat="45.09156" lon="5.84802">
        <ele>1259.46</ele>
        <time>2021-08-26T14:53:39Z</time>
      </trkpt>
      <trkpt lat="45.09158" lon="5.84797">
        <ele>1259.46</ele>
        <time>2021-08-26T14:53:42Z</time>
      </trkpt>
      <trkpt lat="45.09167" lon="5.84774">
        <ele>1259.46</ele>
        <time>2021-08-26T14:53:56Z</time>
      </trkpt>
      <trkpt lat="45.09169" lon="5.8476">
        <ele>1258.98</ele>
        <time>2021-08-26T14:54:07Z</time>
      </trkpt>
      <trkpt lat="45.09168" lon="5.84757">
        <ele>1258.98</ele>
        <time>2021-08-26T14:54:18Z</time>
      </trkpt>
      <trkpt lat="45.09169" lon="5.84759">
        <ele>1258.98</ele>
        <time>2021-08-26T14:54:34Z</time>
      </trkpt>
      <trkpt lat="45.09169" lon="5.8476">
        <ele>1258.98</ele>
        <time>2021-08-26T14:54:54Z</time>
      </trkpt>
      <trkpt lat="45.09171" lon="5.84762">
        <ele>1258.98</ele>
        <time>2021-08-26T14:55:15Z</time>
      </trkpt>
      <trkpt lat="45.09174" lon="5.8476">
        <ele>1258.5</ele>
        <time>2021-08-26T14:55:26Z</time>
      </trkpt>
      <trkpt lat="45.09181" lon="5.84751">
        <ele>1257.54</ele>
        <time>2021-08-26T14:55:38Z</time>
      </trkpt>
      <trkpt lat="45.09181" lon="5.84744">
        <ele>1256.58</ele>
        <time>2021-08-26T14:55:43Z</time>
      </trkpt>
      <trkpt lat="45.09193" lon="5.84739">
        <ele>1254.66</ele>
        <time>2021-08-26T14:55:56Z</time>
      </trkpt>
      <trkpt lat="45.09202" lon="5.84749">
        <ele>1253.22</ele>
        <time>2021-08-26T14:56:09Z</time>
      </trkpt>
      <trkpt lat="45.09212" lon="5.84764">
        <ele>1251.77</ele>
        <time>2021-08-26T14:56:21Z</time>
      </trkpt>
      <trkpt lat="45.09216" lon="5.8477">
        <ele>1249.37</ele>
        <time>2021-08-26T14:56:34Z</time>
      </trkpt>
      <trkpt lat="45.09222" lon="5.84779">
        <ele>1247.45</ele>
        <time>2021-08-26T14:56:45Z</time>
      </trkpt>
      <trkpt lat="45.09228" lon="5.8479">
        <ele>1245.53</ele>
        <time>2021-08-26T14:56:59Z</time>
      </trkpt>
      <trkpt lat="45.09235" lon="5.848">
        <ele>1243.6</ele>
        <time>2021-08-26T14:57:10Z</time>
      </trkpt>
      <trkpt lat="45.09244" lon="5.84812">
        <ele>1241.68</ele>
        <time>2021-08-26T14:57:22Z</time>
      </trkpt>
      <trkpt lat="45.09251" lon="5.84824">
        <ele>1240.24</ele>
        <time>2021-08-26T14:57:35Z</time>
      </trkpt>
      <trkpt lat="45.09255" lon="5.84827">
        <ele>1239.28</ele>
        <time>2021-08-26T14:57:46Z</time>
      </trkpt>
      <trkpt lat="45.09264" lon="5.84831">
        <ele>1237.83</ele>
        <time>2021-08-26T14:57:55Z</time>
      </trkpt>
      <trkpt lat="45.09269" lon="5.84836">
        <ele>1236.87</ele>
        <time>2021-08-26T14:58:09Z</time>
      </trkpt>
      <trkpt lat="45.09274" lon="5.84845">
        <ele>1235.43</ele>
        <time>2021-08-26T14:58:20Z</time>
      </trkpt>
      <trkpt lat="45.09281" lon="5.84852">
        <ele>1234.47</ele>
        <time>2021-08-26T14:58:27Z</time>
      </trkpt>
      <trkpt lat="45.09287" lon="5.84863">
        <ele>1233.03</ele>
        <time>2021-08-26T14:58:35Z</time>
      </trkpt>
      <trkpt lat="45.09289" lon="5.84868">
        <ele>1232.55</ele>
        <time>2021-08-26T14:58:38Z</time>
      </trkpt>
      <trkpt lat="45.09296" lon="5.84872">
        <ele>1231.11</ele>
        <time>2021-08-26T14:58:45Z</time>
      </trkpt>
      <trkpt lat="45.09306" lon="5.84884">
        <ele>1229.66</ele>
        <time>2021-08-26T14:58:58Z</time>
      </trkpt>
      <trkpt lat="45.09315" lon="5.84892">
        <ele>1228.7</ele>
        <time>2021-08-26T14:59:10Z</time>
      </trkpt>
      <trkpt lat="45.09321" lon="5.84894">
        <ele>1228.22</ele>
        <time>2021-08-26T14:59:15Z</time>
      </trkpt>
      <trkpt lat="45.09326" lon="5.84906">
        <ele>1226.78</ele>
        <time>2021-08-26T14:59:28Z</time>
      </trkpt>
      <trkpt lat="45.09334" lon="5.84915">
        <ele>1225.82</ele>
        <time>2021-08-26T14:59:41Z</time>
      </trkpt>
      <trkpt lat="45.09341" lon="5.84924">
        <ele>1224.38</ele>
        <time>2021-08-26T14:59:53Z</time>
      </trkpt>
      <trkpt lat="45.09342" lon="5.84927">
        <ele>1223.9</ele>
        <time>2021-08-26T14:59:55Z</time>
      </trkpt>
      <trkpt lat="45.09351" lon="5.84933">
        <ele>1222.93</ele>
        <time>2021-08-26T15:00:09Z</time>
      </trkpt>
      <trkpt lat="45.09358" lon="5.84937">
        <ele>1221.01</ele>
        <time>2021-08-26T15:00:22Z</time>
      </trkpt>
      <trkpt lat="45.09362" lon="5.84942">
        <ele>1220.53</ele>
        <time>2021-08-26T15:00:31Z</time>
      </trkpt>
      <trkpt lat="45.09366" lon="5.84944">
        <ele>1220.05</ele>
        <time>2021-08-26T15:00:34Z</time>
      </trkpt>
      <trkpt lat="45.0938" lon="5.84946">
        <ele>1218.61</ele>
        <time>2021-08-26T15:00:46Z</time>
      </trkpt>
      <trkpt lat="45.09389" lon="5.84946">
        <ele>1217.17</ele>
        <time>2021-08-26T15:00:58Z</time>
      </trkpt>
      <trkpt lat="45.09397" lon="5.84949">
        <ele>1215.72</ele>
        <time>2021-08-26T15:01:06Z</time>
      </trkpt>
      <trkpt lat="45.09409" lon="5.84945">
        <ele>1213.8</ele>
        <time>2021-08-26T15:01:20Z</time>
      </trkpt>
      <trkpt lat="45.09418" lon="5.84943">
        <ele>1212.36</ele>
        <time>2021-08-26T15:01:32Z</time>
      </trkpt>
      <trkpt lat="45.09431" lon="5.8494">
        <ele>1210.92</ele>
        <time>2021-08-26T15:01:45Z</time>
      </trkpt>
      <trkpt lat="45.09446" lon="5.84938">
        <ele>1208.51</ele>
        <time>2021-08-26T15:02:01Z</time>
      </trkpt>
      <trkpt lat="45.09455" lon="5.84939">
        <ele>1206.59</ele>
        <time>2021-08-26T15:02:13Z</time>
      </trkpt>
      <trkpt lat="45.09464" lon="5.84939">
        <ele>1205.63</ele>
        <time>2021-08-26T15:02:26Z</time>
      </trkpt>
      <trkpt lat="45.09475" lon="5.84938">
        <ele>1203.71</ele>
        <time>2021-08-26T15:02:38Z</time>
      </trkpt>
      <trkpt lat="45.09484" lon="5.84941">
        <ele>1202.27</ele>
        <time>2021-08-26T15:02:51Z</time>
      </trkpt>
      <trkpt lat="45.0949" lon="5.84944">
        <ele>1200.34</ele>
        <time>2021-08-26T15:03:03Z</time>
      </trkpt>
      <trkpt lat="45.09497" lon="5.84943">
        <ele>1199.38</ele>
        <time>2021-08-26T15:03:09Z</time>
      </trkpt>
      <trkpt lat="45.09508" lon="5.84938">
        <ele>1197.94</ele>
        <time>2021-08-26T15:03:21Z</time>
      </trkpt>
      <trkpt lat="45.09519" lon="5.8493">
        <ele>1196.02</ele>
        <time>2021-08-26T15:03:33Z</time>
      </trkpt>
      <trkpt lat="45.09525" lon="5.84928">
        <ele>1195.54</ele>
        <time>2021-08-26T15:03:38Z</time>
      </trkpt>
      <trkpt lat="45.09536" lon="5.84924">
        <ele>1194.09</ele>
        <time>2021-08-26T15:03:52Z</time>
      </trkpt>
      <trkpt lat="45.09548" lon="5.8492">
        <ele>1192.17</ele>
        <time>2021-08-26T15:04:05Z</time>
      </trkpt>
      <trkpt lat="45.09554" lon="5.84921">
        <ele>1190.73</ele>
        <time>2021-08-26T15:04:15Z</time>
      </trkpt>
      <trkpt lat="45.09554" lon="5.84923">
        <ele>1190.73</ele>
        <time>2021-08-26T15:04:37Z</time>
      </trkpt>
      <trkpt lat="45.09562" lon="5.84922">
        <ele>1189.77</ele>
        <time>2021-08-26T15:04:46Z</time>
      </trkpt>
      <trkpt lat="45.09571" lon="5.84927">
        <ele>1188.33</ele>
        <time>2021-08-26T15:04:56Z</time>
      </trkpt>
      <trkpt lat="45.09579" lon="5.84936">
        <ele>1186.4</ele>
        <time>2021-08-26T15:05:07Z</time>
      </trkpt>
      <trkpt lat="45.09583" lon="5.84939">
        <ele>1185.92</ele>
        <time>2021-08-26T15:05:10Z</time>
      </trkpt>
      <trkpt lat="45.09589" lon="5.84945">
        <ele>1184.96</ele>
        <time>2021-08-26T15:05:23Z</time>
      </trkpt>
      <trkpt lat="45.09588" lon="5.84945">
        <ele>1184.96</ele>
        <time>2021-08-26T15:05:43Z</time>
      </trkpt>
      <trkpt lat="45.09589" lon="5.84943">
        <ele>1184.96</ele>
        <time>2021-08-26T15:05:59Z</time>
      </trkpt>
      <trkpt lat="45.09591" lon="5.84944">
        <ele>1184.48</ele>
        <time>2021-08-26T15:06:15Z</time>
      </trkpt>
      <trkpt lat="45.09605" lon="5.84942">
        <ele>1183.04</ele>
        <time>2021-08-26T15:06:32Z</time>
      </trkpt>
      <trkpt lat="45.09609" lon="5.84944">
        <ele>1182.08</ele>
        <time>2021-08-26T15:06:44Z</time>
      </trkpt>
      <trkpt lat="45.09613" lon="5.84943">
        <ele>1181.6</ele>
        <time>2021-08-26T15:06:56Z</time>
      </trkpt>
      <trkpt lat="45.09625" lon="5.84934">
        <ele>1180.16</ele>
        <time>2021-08-26T15:07:11Z</time>
      </trkpt>
      <trkpt lat="45.09631" lon="5.8493">
        <ele>1179.19</ele>
        <time>2021-08-26T15:07:20Z</time>
      </trkpt>
      <trkpt lat="45.09641" lon="5.84924">
        <ele>1177.75</ele>
        <time>2021-08-26T15:07:32Z</time>
      </trkpt>
      <trkpt lat="45.09649" lon="5.84917">
        <ele>1176.31</ele>
        <time>2021-08-26T15:07:45Z</time>
      </trkpt>
      <trkpt lat="45.09657" lon="5.84913">
        <ele>1174.87</ele>
        <time>2021-08-26T15:07:54Z</time>
      </trkpt>
      <trkpt lat="45.09671" lon="5.84914">
        <ele>1172.95</ele>
        <time>2021-08-26T15:08:06Z</time>
      </trkpt>
      <trkpt lat="45.09684" lon="5.84912">
        <ele>1171.5</ele>
        <time>2021-08-26T15:08:18Z</time>
      </trkpt>
      <trkpt lat="45.09688" lon="5.84912">
        <ele>1171.02</ele>
        <time>2021-08-26T15:08:20Z</time>
      </trkpt>
      <trkpt lat="45.097" lon="5.8491">
        <ele>1169.1</ele>
        <time>2021-08-26T15:08:32Z</time>
      </trkpt>
      <trkpt lat="45.0971" lon="5.84913">
        <ele>1167.66</ele>
        <time>2021-08-26T15:08:46Z</time>
      </trkpt>
      <trkpt lat="45.09712" lon="5.84912">
        <ele>1167.18</ele>
        <time>2021-08-26T15:08:48Z</time>
      </trkpt>
      <trkpt lat="45.09717" lon="5.84913">
        <ele>1166.7</ele>
        <time>2021-08-26T15:08:52Z</time>
      </trkpt>
      <trkpt lat="45.09727" lon="5.84916">
        <ele>1164.77</ele>
        <time>2021-08-26T15:09:04Z</time>
      </trkpt>
      <trkpt lat="45.09736" lon="5.84912">
        <ele>1163.33</ele>
        <time>2021-08-26T15:09:17Z</time>
      </trkpt>
      <trkpt lat="45.09743" lon="5.84914">
        <ele>1162.37</ele>
        <time>2021-08-26T15:09:24Z</time>
      </trkpt>
      <trkpt lat="45.09756" lon="5.84923">
        <ele>1159.97</ele>
        <time>2021-08-26T15:09:38Z</time>
      </trkpt>
      <trkpt lat="45.09762" lon="5.84923">
        <ele>1159.01</ele>
        <time>2021-08-26T15:09:45Z</time>
      </trkpt>
      <trkpt lat="45.09766" lon="5.84924">
        <ele>1158.53</ele>
        <time>2021-08-26T15:09:48Z</time>
      </trkpt>
      <trkpt lat="45.09781" lon="5.84928">
        <ele>1157.08</ele>
        <time>2021-08-26T15:09:59Z</time>
      </trkpt>
      <trkpt lat="45.09782" lon="5.84928">
        <ele>1157.08</ele>
        <time>2021-08-26T15:10:00Z</time>
      </trkpt>
      <trkpt lat="45.09792" lon="5.84927">
        <ele>1155.16</ele>
        <time>2021-08-26T15:10:12Z</time>
      </trkpt>
      <trkpt lat="45.09798" lon="5.84928">
        <ele>1153.72</ele>
        <time>2021-08-26T15:10:24Z</time>
      </trkpt>
      <trkpt lat="45.09807" lon="5.84932">
        <ele>1152.28</ele>
        <time>2021-08-26T15:10:37Z</time>
      </trkpt>
      <trkpt lat="45.09809" lon="5.84931">
        <ele>1151.32</ele>
        <time>2021-08-26T15:10:50Z</time>
      </trkpt>
      <trkpt lat="45.09821" lon="5.84929">
        <ele>1149.87</ele>
        <time>2021-08-26T15:11:10Z</time>
      </trkpt>
      <trkpt lat="45.09827" lon="5.84932">
        <ele>1148.91</ele>
        <time>2021-08-26T15:11:21Z</time>
      </trkpt>
      <trkpt lat="45.09838" lon="5.84932">
        <ele>1146.99</ele>
        <time>2021-08-26T15:11:33Z</time>
      </trkpt>
      <trkpt lat="45.09841" lon="5.84933">
        <ele>1146.99</ele>
        <time>2021-08-26T15:11:35Z</time>
      </trkpt>
      <trkpt lat="45.0985" lon="5.84936">
        <ele>1145.55</ele>
        <time>2021-08-26T15:11:46Z</time>
      </trkpt>
      <trkpt lat="45.0986" lon="5.84935">
        <ele>1144.59</ele>
        <time>2021-08-26T15:11:59Z</time>
      </trkpt>
      <trkpt lat="45.09872" lon="5.84933">
        <ele>1143.14</ele>
        <time>2021-08-26T15:12:10Z</time>
      </trkpt>
      <trkpt lat="45.0988" lon="5.84936">
        <ele>1142.66</ele>
        <time>2021-08-26T15:12:23Z</time>
      </trkpt>
      <trkpt lat="45.09887" lon="5.84938">
        <ele>1141.22</ele>
        <time>2021-08-26T15:12:30Z</time>
      </trkpt>
      <trkpt lat="45.09905" lon="5.84946">
        <ele>1138.82</ele>
        <time>2021-08-26T15:12:44Z</time>
      </trkpt>
      <trkpt lat="45.09914" lon="5.84944">
        <ele>1137.86</ele>
        <time>2021-08-26T15:12:53Z</time>
      </trkpt>
      <trkpt lat="45.09916" lon="5.84947">
        <ele>1136.9</ele>
        <time>2021-08-26T15:12:56Z</time>
      </trkpt>
      <trkpt lat="45.09931" lon="5.8495">
        <ele>1134.97</ele>
        <time>2021-08-26T15:13:08Z</time>
      </trkpt>
      <trkpt lat="45.09945" lon="5.84945">
        <ele>1133.53</ele>
        <time>2021-08-26T15:13:20Z</time>
      </trkpt>
      <trkpt lat="45.09957" lon="5.84947">
        <ele>1130.65</ele>
        <time>2021-08-26T15:13:32Z</time>
      </trkpt>
      <trkpt lat="45.09963" lon="5.84945">
        <ele>1130.17</ele>
        <time>2021-08-26T15:13:46Z</time>
      </trkpt>
      <trkpt lat="45.09972" lon="5.84955">
        <ele>1130.65</ele>
        <time>2021-08-26T15:14:03Z</time>
      </trkpt>
      <trkpt lat="45.09971" lon="5.84957">
        <ele>1130.17</ele>
        <time>2021-08-26T15:14:22Z</time>
      </trkpt>
      <trkpt lat="45.09971" lon="5.84958">
        <ele>1129.69</ele>
        <time>2021-08-26T15:14:25Z</time>
      </trkpt>
      <trkpt lat="45.09983" lon="5.84953">
        <ele>1127.28</ele>
        <time>2021-08-26T15:14:38Z</time>
      </trkpt>
      <trkpt lat="45.09988" lon="5.84953">
        <ele>1125.84</ele>
        <time>2021-08-26T15:14:52Z</time>
      </trkpt>
      <trkpt lat="45.10006" lon="5.84944">
        <ele>1124.4</ele>
        <time>2021-08-26T15:15:09Z</time>
      </trkpt>
      <trkpt lat="45.10016" lon="5.84937">
        <ele>1122.48</ele>
        <time>2021-08-26T15:15:25Z</time>
      </trkpt>
      <trkpt lat="45.10024" lon="5.84934">
        <ele>1121.52</ele>
        <time>2021-08-26T15:15:36Z</time>
      </trkpt>
      <trkpt lat="45.10034" lon="5.84931">
        <ele>1120.07</ele>
        <time>2021-08-26T15:15:47Z</time>
      </trkpt>
      <trkpt lat="45.1004" lon="5.84927">
        <ele>1119.11</ele>
        <time>2021-08-26T15:15:58Z</time>
      </trkpt>
      <trkpt lat="45.10044" lon="5.84917">
        <ele>1118.63</ele>
        <time>2021-08-26T15:16:10Z</time>
      </trkpt>
      <trkpt lat="45.10053" lon="5.84907">
        <ele>1117.67</ele>
        <time>2021-08-26T15:16:20Z</time>
      </trkpt>
      <trkpt lat="45.10063" lon="5.849">
        <ele>1116.23</ele>
        <time>2021-08-26T15:16:32Z</time>
      </trkpt>
      <trkpt lat="45.10073" lon="5.84892">
        <ele>1113.82</ele>
        <time>2021-08-26T15:16:46Z</time>
      </trkpt>
      <trkpt lat="45.10077" lon="5.84888">
        <ele>1113.34</ele>
        <time>2021-08-26T15:16:58Z</time>
      </trkpt>
      <trkpt lat="45.10086" lon="5.84884">
        <ele>1112.38</ele>
        <time>2021-08-26T15:17:07Z</time>
      </trkpt>
      <trkpt lat="45.10094" lon="5.84881">
        <ele>1110.94</ele>
        <time>2021-08-26T15:17:16Z</time>
      </trkpt>
      <trkpt lat="45.101" lon="5.84879">
        <ele>1109.98</ele>
        <time>2021-08-26T15:17:24Z</time>
      </trkpt>
      <trkpt lat="45.10103" lon="5.84877">
        <ele>1109.5</ele>
        <time>2021-08-26T15:17:29Z</time>
      </trkpt>
      <trkpt lat="45.10111" lon="5.84865">
        <ele>1108.06</ele>
        <time>2021-08-26T15:17:40Z</time>
      </trkpt>
      <trkpt lat="45.10118" lon="5.84862">
        <ele>1106.61</ele>
        <time>2021-08-26T15:17:47Z</time>
      </trkpt>
      <trkpt lat="45.10124" lon="5.84853">
        <ele>1105.17</ele>
        <time>2021-08-26T15:17:59Z</time>
      </trkpt>
      <trkpt lat="45.10132" lon="5.84846">
        <ele>1104.21</ele>
        <time>2021-08-26T15:18:12Z</time>
      </trkpt>
      <trkpt lat="45.10136" lon="5.84837">
        <ele>1103.73</ele>
        <time>2021-08-26T15:18:18Z</time>
      </trkpt>
      <trkpt lat="45.10142" lon="5.8483">
        <ele>1102.77</ele>
        <time>2021-08-26T15:18:26Z</time>
      </trkpt>
      <trkpt lat="45.10144" lon="5.8482">
        <ele>1101.81</ele>
        <time>2021-08-26T15:18:38Z</time>
      </trkpt>
      <trkpt lat="45.10144" lon="5.84817">
        <ele>1101.81</ele>
        <time>2021-08-26T15:18:40Z</time>
      </trkpt>
      <trkpt lat="45.10151" lon="5.84798">
        <ele>1100.37</ele>
        <time>2021-08-26T15:18:55Z</time>
      </trkpt>
      <trkpt lat="45.10151" lon="5.84794">
        <ele>1099.4</ele>
        <time>2021-08-26T15:19:01Z</time>
      </trkpt>
      <trkpt lat="45.10151" lon="5.84781">
        <ele>1099.4</ele>
        <time>2021-08-26T15:19:13Z</time>
      </trkpt>
      <trkpt lat="45.10156" lon="5.84769">
        <ele>1099.4</ele>
        <time>2021-08-26T15:19:20Z</time>
      </trkpt>
      <trkpt lat="45.10166" lon="5.84753">
        <ele>1098.92</ele>
        <time>2021-08-26T15:19:33Z</time>
      </trkpt>
      <trkpt lat="45.10167" lon="5.8475">
        <ele>1098.92</ele>
        <time>2021-08-26T15:19:35Z</time>
      </trkpt>
      <trkpt lat="45.10173" lon="5.84736">
        <ele>1098.92</ele>
        <time>2021-08-26T15:19:45Z</time>
      </trkpt>
      <trkpt lat="45.10173" lon="5.84733">
        <ele>1098.44</ele>
        <time>2021-08-26T15:19:47Z</time>
      </trkpt>
      <trkpt lat="45.10167" lon="5.84717">
        <ele>1097.96</ele>
        <time>2021-08-26T15:19:58Z</time>
      </trkpt>
      <trkpt lat="45.1016" lon="5.84711">
        <ele>1097</ele>
        <time>2021-08-26T15:20:13Z</time>
      </trkpt>
      <trkpt lat="45.1016" lon="5.8471">
        <ele>1096.04</ele>
        <time>2021-08-26T15:20:26Z</time>
      </trkpt>
      <trkpt lat="45.1016" lon="5.84711">
        <ele>1095.56</ele>
        <time>2021-08-26T15:20:45Z</time>
      </trkpt>
      <trkpt lat="45.1016" lon="5.84713">
        <ele>1096.04</ele>
        <time>2021-08-26T15:21:06Z</time>
      </trkpt>
      <trkpt lat="45.10161" lon="5.84714">
        <ele>1095.56</ele>
        <time>2021-08-26T15:21:37Z</time>
      </trkpt>
      <trkpt lat="45.10161" lon="5.84713">
        <ele>1095.56</ele>
        <time>2021-08-26T15:21:56Z</time>
      </trkpt>
      <trkpt lat="45.1016" lon="5.84713">
        <ele>1095.56</ele>
        <time>2021-08-26T15:22:26Z</time>
      </trkpt>
      <trkpt lat="45.10161" lon="5.84714">
        <ele>1095.56</ele>
        <time>2021-08-26T15:22:55Z</time>
      </trkpt>
      <trkpt lat="45.10162" lon="5.84714">
        <ele>1095.56</ele>
        <time>2021-08-26T15:23:22Z</time>
      </trkpt>
      <trkpt lat="45.10161" lon="5.84713">
        <ele>1095.56</ele>
        <time>2021-08-26T15:23:48Z</time>
      </trkpt>
      <trkpt lat="45.10162" lon="5.84713">
        <ele>1095.56</ele>
        <time>2021-08-26T15:24:16Z</time>
      </trkpt>
      <trkpt lat="45.10162" lon="5.84712">
        <ele>1090.75</ele>
        <time>2021-08-26T15:24:25Z</time>
      </trkpt>
      <trkpt lat="45.10162" lon="5.84712">
        <ele>1092.68</ele>
        <time>2021-08-26T15:24:26Z</time>
      </trkpt>
      <trkpt lat="45.10162" lon="5.84712">
        <ele>1098.44</ele>
        <time>2021-08-26T15:24:27Z</time>
      </trkpt>
      <trkpt lat="45.10162" lon="5.84712">
        <ele>1094.6</ele>
        <time>2021-08-26T15:24:29Z</time>
      </trkpt>
      <trkpt lat="45.10162" lon="5.84712">
        <ele>1097</ele>
        <time>2021-08-26T15:24:30Z</time>
      </trkpt>
      <trkpt lat="45.10162" lon="5.84712">
        <ele>1091.23</ele>
        <time>2021-08-26T15:24:31Z</time>
      </trkpt>
      <trkpt lat="45.10161" lon="5.84712">
        <ele>1100.37</ele>
        <time>2021-08-26T15:24:32Z</time>
      </trkpt>
      <trkpt lat="45.10161" lon="5.84713">
        <ele>1096.04</ele>
        <time>2021-08-26T15:24:33Z</time>
      </trkpt>
      <trkpt lat="45.10161" lon="5.84713">
        <ele>1081.14</ele>
        <time>2021-08-26T15:24:36Z</time>
      </trkpt>
      <trkpt lat="45.10161" lon="5.84713">
        <ele>1097</ele>
        <time>2021-08-26T15:24:37Z</time>
      </trkpt>
      <trkpt lat="45.10161" lon="5.84712">
        <ele>1093.16</ele>
        <time>2021-08-26T15:24:56Z</time>
      </trkpt>
      <trkpt lat="45.10161" lon="5.84712">
        <ele>1097.48</ele>
        <time>2021-08-26T15:24:57Z</time>
      </trkpt>
      <trkpt lat="45.10161" lon="5.84713">
        <ele>1093.16</ele>
        <time>2021-08-26T15:24:59Z</time>
      </trkpt>
      <trkpt lat="45.10161" lon="5.84713">
        <ele>1095.08</ele>
        <time>2021-08-26T15:25:00Z</time>
      </trkpt>
      <trkpt lat="45.10161" lon="5.84713">
        <ele>1099.89</ele>
        <time>2021-08-26T15:25:01Z</time>
      </trkpt>
      <trkpt lat="45.10161" lon="5.84713">
        <ele>1096.52</ele>
        <time>2021-08-26T15:25:02Z</time>
      </trkpt>
      <trkpt lat="45.10161" lon="5.84713">
        <ele>1101.33</ele>
        <time>2021-08-26T15:25:04Z</time>
      </trkpt>
      <trkpt lat="45.10161" lon="5.84713">
        <ele>1096.04</ele>
        <time>2021-08-26T15:25:05Z</time>
      </trkpt>
      <trkpt lat="45.1016" lon="5.84709">
        <ele>1096.04</ele>
        <time>2021-08-26T15:25:30Z</time>
      </trkpt>
      <trkpt lat="45.1016" lon="5.8471">
        <ele>1092.2</ele>
        <time>2021-08-26T15:25:42Z</time>
      </trkpt>
      <trkpt lat="45.1016" lon="5.8471">
        <ele>1098.92</ele>
        <time>2021-08-26T15:25:43Z</time>
      </trkpt>
      <trkpt lat="45.1016" lon="5.8471">
        <ele>1088.83</ele>
        <time>2021-08-26T15:25:45Z</time>
      </trkpt>
      <trkpt lat="45.10161" lon="5.8471">
        <ele>1101.33</ele>
        <time>2021-08-26T15:25:46Z</time>
      </trkpt>
      <trkpt lat="45.10161" lon="5.8471">
        <ele>1096.52</ele>
        <time>2021-08-26T15:25:47Z</time>
      </trkpt>
      <trkpt lat="45.10161" lon="5.8471">
        <ele>1090.75</ele>
        <time>2021-08-26T15:25:51Z</time>
      </trkpt>
      <trkpt lat="45.10161" lon="5.8471">
        <ele>1099.4</ele>
        <time>2021-08-26T15:25:52Z</time>
      </trkpt>
      <trkpt lat="45.10161" lon="5.8471">
        <ele>1086.43</ele>
        <time>2021-08-26T15:25:53Z</time>
      </trkpt>
      <trkpt lat="45.10161" lon="5.8471">
        <ele>1102.77</ele>
        <time>2021-08-26T15:25:54Z</time>
      </trkpt>
      <trkpt lat="45.10161" lon="5.8471">
        <ele>1096.52</ele>
        <time>2021-08-26T15:25:55Z</time>
      </trkpt>
      <trkpt lat="45.10161" lon="5.8471">
        <ele>1121.03</ele>
        <time>2021-08-26T15:25:56Z</time>
      </trkpt>
      <trkpt lat="45.10161" lon="5.8471">
        <ele>1078.26</ele>
        <time>2021-08-26T15:25:57Z</time>
      </trkpt>
      <trkpt lat="45.10161" lon="5.8471">
        <ele>1110.94</ele>
        <time>2021-08-26T15:25:58Z</time>
      </trkpt>
    </trkseg>
  </trk>
</gpx>